[[{"header":{"parameterUnit":"m.s-1","parameterCategory":1,"la1":31.0,"la2":29.5877,"lo1":-88.7671,"lo2":-86.6584,"dy":0.0162,"dx":0.0185,"nx":115,"ny":88,"refTime":"2024-04-27T00:00:00:Z","depth":0,"parameterNumber":2,"parameterNumberName":"U-component_of_WINDS"},"data":[0.0,0.0,0.0,0.0,0.0,0.0,0.0,0.0,0.0,0.0,0.0,0.0,0.0,0.0,0.0,0.0,0.0,0.0,0.0,0.0,0.0,0.0,0.0,0.0,0.0,0.0,0.0,0.0,0.0,0.0,0.0,0.0,0.0,0.0,0.0,0.0,0.0,0.0,0.0,0.0,0.0,0.0,0.0,0.0,0.0,0.0,0.0,0.0,0.0,0.0,0.0,0.0,0.0,0.0,0.0,0.0,0.0,0.0,0.0,0.0,0.0,0.0,0.0,0.0,0.0,0.0,0.0,0.0,0.0,0.0,0.0,0.0,0.0,0.0,0.0,0.0,0.0,0.0,0.0,0.0,0.0,0.0,0.0,0.0,0.0,0.0,0.0,0.0,0.0,0.0,0.0,0.0,0.0,0.0,0.0,0.0,0.0,0.0,0.0,0.0,0.0,0.0,0.0,0.0,0.0,0.0,0.0,0.0,0.0,0.0,0.0,0.0,0.0,0.0,0.0,0.0,0.0,0.0,0.0,0.0,0.0,0.0,0.0,0.0,0.0,0.0,0.0,0.0,0.0,0.0,0.0,0.0,0.0,0.0,0.0,0.0,0.0,0.0,0.0,0.0,0.0,0.0,0.0,0.0,0.0,0.0,0.0,0.0,0.0,0.0,0.0,0.0,0.0,0.0,0.0,0.0,0.0,0.0,0.0,0.0,0.0,0.0,0.0,0.0,0.0,0.0,0.0,0.0,0.0,0.0,0.0,0.0,0.0,0.0,0.0,0.0,0.0,0.0,0.0,0.0,0.0,0.0,0.0,0.0,0.0,0.0,0.0,0.0,0.0,0.0,0.0,0.0,0.0,0.0,0.0,0.0,0.0,0.0,0.0,0.0,0.0,0.0,0.0,0.0,0.0,0.0,0.0,0.0,0.0,0.0,0.0,0.0,0.0,0.0,0.0,0.0,0.0,0.0,0.0,0.0,0.0,0.0,0.0,0.0,0.0,0.0,0.0,0.0,0.0,0.0,0.0,0.0,0.0,0.0,0.0,0.0,0.0,0.0,0.0,0.0,0.0,0.0,0.0,0.0,0.0,0.0,0.0,0.0,0.0,0.0,0.0,0.0,0.0,0.0,0.0,0.0,0.0,0.0,0.0,0.0,0.0,0.0,0.0,0.0,0.0,0.0,0.0,0.0,0.0,0.0,0.0,0.0,0.0,0.0,0.0,0.0,0.0,0.0,0.0,0.0,0.0,0.0,0.0,0.0,0.0,0.0,0.0,0.0,0.0,0.0,0.0,0.0,0.0,0.0,0.0,0.0,0.0,0.0,0.0,0.0,0.0,0.0,0.0,0.0,0.0,0.0,0.0,0.0,0.0,0.0,0.0,0.0,0.0,0.0,0.0,0.0,0.0,0.0,0.0,0.0,0.0,0.0,0.0,0.0,0.0,0.0,0.0,0.0,0.0,0.0,0.0,0.0,0.0,0.0,0.0,0.0,0.0,0.0,0.0,0.0,0.0,0.0,0.0,0.0,0.0,0.0,0.0,0.0,0.0,0.0,0.0,0.0,0.0,0.0,0.0,0.0,0.0,0.0,0.0,0.0,0.0,0.0,0.0,0.0,0.0,0.0,0.0,0.0,0.0,0.0,0.0,0.0,0.0,0.0,0.0,0.0,0.0,0.0,0.0,0.0,0.0,0.0,0.0,0.0,0.0,0.0,0.0,0.0,0.0,0.0,0.0,0.0,0.0,0.0,0.0,0.0,0.0,0.0,0.0,0.0,0.0,0.0,0.0,0.0,0.0,0.0,0.0,0.0,0.0,0.0,0.0,0.0,0.0,0.0,0.0,0.0,0.0,0.0,0.0,0.0,0.0,0.0,0.0,0.0,0.0,0.0,0.0,0.0,0.0,0.0,0.0,0.0,0.0,0.0,0.0,0.0,0.0,0.0,0.0,0.0,0.0,0.0,0.0,0.0,0.0,0.0,0.0,0.0,0.0,0.0,0.0,0.0,0.0,0.0,0.0,0.0,0.0,0.0,0.0,0.0,0.0,0.0,0.0,0.0,0.0,0.0,0.0,0.0,0.0,0.0,0.0,0.0,0.0,0.0,0.0,0.0,0.0,0.0,0.0,0.0,0.0,0.0,0.0,0.0,0.0,0.0,0.0,0.0,0.0,0.0,0.0,0.0,0.0,0.0,0.0,0.0,0.0,0.0,0.0,0.0,0.0,0.0,0.0,0.0,0.0,0.0,0.0,0.0,0.0,0.0,0.0,0.0,0.0,0.0,0.0,0.0,0.0,0.0,0.0,0.0,0.0,0.0,0.0,0.0,0.0,0.0,0.0,0.0,0.0,0.0,0.0,0.0,0.0,0.0,0.0,0.0,0.0,0.0,0.0,0.0,0.0,0.0,0.0,0.0,0.0,0.0,0.0,0.0,0.0,0.0,0.0,0.0,0.0,0.0,0.0,0.0,0.0,0.0,0.0,0.0,0.0,0.0,0.0,0.0,0.0,0.0,0.0,0.0,0.0,0.0,0.0,0.0,0.0,0.0,0.0,0.0,0.0,0.0,0.0,0.0,0.0,0.0,0.0,0.0,0.0,0.0,0.0,0.0,0.0,0.0,0.0,0.0,0.0,0.0,0.0,0.0,0.0,0.0,0.0,0.0,0.0,0.0,0.0,0.0,0.0,0.0,0.0,0.0,0.0,0.0,0.0,0.0,0.0,0.0,0.0,0.0,0.0,0.0,0.0,0.0,0.0,0.0,0.0,0.0,0.0,0.0,0.0,0.0,0.0,0.0,0.0,0.0,0.0,0.0,0.0,0.0,0.0,0.0,0.0,0.0,0.0,0.0,0.0,0.0,0.0,0.0,0.0,0.0,0.0,0.0,0.0,0.0,0.0,0.0,0.0,0.0,0.0,0.0,0.0,0.0,0.0,0.0,0.0,0.0,0.0,0.0,0.0,0.0,0.0,0.0,0.0,0.0,0.0,0.0,0.0,0.0,0.0,0.0,0.0,0.0,0.0,0.0,0.0,0.0,0.0,0.0,0.0,0.0,0.0,0.0,0.0,0.0,0.0,0.0,0.0,0.0,0.0,0.0,0.0,0.0,0.0,0.0,0.0,0.0,0.0,0.0,0.0,0.0,0.0,0.0,0.0,0.0,0.0,0.0,0.0,0.0,0.0,0.0,0.0,0.0,0.0,0.0,0.0,0.0,0.0,0.0,0.0,0.0,0.0,0.0,0.0,0.0,0.0,0.0,0.0,0.0,0.0,0.0,0.0,0.0,0.0,0.0,0.0,0.0,0.0,0.0,0.0,0.0,0.0,0.0,0.0,0.0,0.0,0.0,0.0,0.0,0.0,0.0,0.0,0.0,0.0,0.0,0.0,0.0,0.0,0.0,0.0,0.0,0.0,0.0,0.0,0.0,0.0,0.0,0.0,0.0,0.0,0.0,0.0,0.0,0.0,0.0,0.0,0.0,0.0,0.0,0.0,0.0,0.0,0.0,0.0,0.0,0.0,0.0,0.0,0.0,0.0,0.0,0.0,0.0,0.0,0.0,0.0,0.0,0.0,0.0,0.0,0.0,0.0,0.0,0.0,0.0,0.0,0.0,0.0,0.0,0.0,0.0,0.0,0.0,0.0,0.0,0.0,0.0,0.0,0.0,0.0,0.0,0.0,0.0,0.0,0.0,0.0,0.0,0.0,0.0,0.0,0.0,0.0,0.0,0.0,0.0,0.0,0.0,0.0,0.0,0.0,0.0,0.0,0.0,0.0,0.0,0.0,0.0,0.0,0.0,0.0,0.0,0.0,0.0,0.0,0.0,0.0,0.0,0.0,0.0,0.0,0.0,0.0,0.0,0.0,0.0,0.0,0.0,0.0,0.0,0.0,0.0,0.0,0.0,0.0,0.0,0.0,0.0,0.0,0.0,0.0,0.0,0.0,0.0,0.0,0.0,0.0,0.0,0.0,0.0,0.0,0.0,0.0,0.0,0.0,0.0,0.0,0.0,0.0,0.0,0.0,0.0,0.0,0.0,0.0,0.0,0.0,0.0,0.0,0.0,0.0,0.0,0.0,0.0,0.0,0.0,0.0,0.0,0.0,0.0,0.0,0.0,0.0,0.0,0.0,0.0,0.0,0.0,0.0,0.0,0.0,0.0,0.0,0.0,0.0,0.0,0.0,0.0,0.0,0.0,0.0,0.0,0.0,0.0,0.0,0.0,0.0,0.0,0.0,0.0,0.0,0.0,0.0,0.0,0.0,0.0,-4.4193,0.0,0.0,0.0,-4.2379,0.0,0.0,0.0,0.0,0.0,0.0,0.0,0.0,0.0,0.0,0.0,0.0,0.0,0.0,0.0,0.0,0.0,0.0,0.0,0.0,0.0,0.0,0.0,0.0,0.0,0.0,0.0,0.0,0.0,0.0,0.0,0.0,0.0,0.0,0.0,0.0,0.0,0.0,0.0,0.0,0.0,0.0,0.0,0.0,0.0,0.0,0.0,0.0,0.0,0.0,0.0,0.0,0.0,0.0,0.0,0.0,0.0,0.0,0.0,0.0,0.0,0.0,0.0,0.0,0.0,0.0,0.0,0.0,0.0,0.0,0.0,0.0,0.0,0.0,0.0,0.0,0.0,0.0,0.0,0.0,0.0,0.0,0.0,0.0,0.0,0.0,0.0,0.0,0.0,0.0,0.0,0.0,0.0,0.0,0.0,0.0,0.0,0.0,0.0,0.0,0.0,0.0,0.0,0.0,0.0,0.0,0.0,0.0,0.0,0.0,-4.4442,-4.4086,-4.4014,-4.3679,-4.3001,0.0,0.0,0.0,0.0,0.0,0.0,0.0,0.0,0.0,0.0,0.0,0.0,0.0,0.0,0.0,0.0,0.0,0.0,0.0,0.0,0.0,0.0,0.0,0.0,0.0,0.0,0.0,0.0,0.0,0.0,0.0,0.0,0.0,0.0,0.0,0.0,0.0,0.0,0.0,0.0,0.0,0.0,0.0,0.0,0.0,0.0,0.0,0.0,0.0,0.0,0.0,0.0,0.0,0.0,0.0,0.0,0.0,0.0,0.0,0.0,0.0,0.0,0.0,0.0,0.0,0.0,0.0,0.0,0.0,0.0,0.0,0.0,0.0,0.0,0.0,0.0,0.0,0.0,0.0,0.0,0.0,0.0,0.0,0.0,0.0,0.0,0.0,0.0,0.0,0.0,0.0,0.0,0.0,0.0,0.0,0.0,0.0,0.0,0.0,0.0,0.0,0.0,0.0,0.0,0.0,0.0,0.0,0.0,0.0,0.0,0.0,0.0,-4.5035,-4.4749,-4.4571,0.0,0.0,0.0,0.0,0.0,0.0,0.0,0.0,0.0,0.0,0.0,0.0,0.0,0.0,0.0,0.0,0.0,0.0,0.0,0.0,0.0,0.0,0.0,0.0,0.0,0.0,0.0,0.0,0.0,0.0,0.0,0.0,0.0,0.0,0.0,0.0,0.0,0.0,0.0,0.0,0.0,0.0,0.0,0.0,0.0,0.0,0.0,0.0,0.0,0.0,0.0,0.0,0.0,0.0,0.0,0.0,0.0,0.0,0.0,0.0,0.0,0.0,0.0,0.0,0.0,0.0,0.0,0.0,0.0,0.0,0.0,0.0,0.0,0.0,0.0,0.0,0.0,0.0,0.0,0.0,0.0,0.0,0.0,0.0,0.0,0.0,0.0,0.0,0.0,0.0,0.0,0.0,0.0,0.0,0.0,0.0,0.0,0.0,0.0,0.0,0.0,0.0,0.0,0.0,0.0,0.0,0.0,0.0,0.0,0.0,-4.4963,-4.7806,-4.8425,0.0,-4.777,0.0,0.0,0.0,0.0,0.0,0.0,0.0,0.0,0.0,0.0,0.0,0.0,0.0,0.0,0.0,0.0,0.0,0.0,0.0,0.0,0.0,0.0,0.0,0.0,0.0,0.0,0.0,0.0,0.0,0.0,0.0,0.0,0.0,0.0,0.0,0.0,0.0,0.0,0.0,0.0,0.0,0.0,0.0,0.0,0.0,0.0,0.0,0.0,0.0,0.0,0.0,0.0,0.0,0.0,0.0,0.0,0.0,0.0,0.0,0.0,0.0,0.0,0.0,0.0,0.0,0.0,0.0,0.0,0.0,0.0,0.0,0.0,0.0,0.0,0.0,0.0,0.0,0.0,0.0,0.0,0.0,0.0,0.0,0.0,0.0,0.0,0.0,0.0,0.0,0.0,0.0,0.0,0.0,0.0,0.0,0.0,0.0,0.0,0.0,0.0,0.0,0.0,0.0,0.0,0.0,0.0,0.0,0.0,0.0,0.0,-4.6141,-4.8782,-4.871,-4.7818,0.0,0.0,0.0,0.0,0.0,0.0,0.0,0.0,0.0,0.0,0.0,0.0,0.0,0.0,0.0,0.0,0.0,0.0,0.0,0.0,0.0,0.0,0.0,0.0,0.0,0.0,0.0,0.0,0.0,0.0,0.0,0.0,0.0,0.0,0.0,0.0,0.0,0.0,0.0,0.0,0.0,0.0,0.0,0.0,0.0,0.0,0.0,0.0,0.0,0.0,0.0,0.0,0.0,0.0,0.0,0.0,0.0,0.0,0.0,0.0,0.0,0.0,0.0,0.0,0.0,0.0,0.0,0.0,0.0,0.0,0.0,0.0,0.0,0.0,0.0,0.0,0.0,0.0,0.0,0.0,0.0,0.0,0.0,0.0,0.0,0.0,0.0,0.0,0.0,0.0,0.0,0.0,0.0,0.0,0.0,0.0,0.0,0.0,0.0,0.0,0.0,0.0,0.0,0.0,0.0,0.0,0.0,0.0,0.0,0.0,-4.6177,-4.7033,-4.94,-4.8675,-4.727,-4.532,0.0,0.0,0.0,0.0,0.0,0.0,0.0,0.0,0.0,0.0,0.0,0.0,0.0,0.0,0.0,0.0,0.0,0.0,0.0,0.0,0.0,0.0,0.0,0.0,0.0,0.0,0.0,0.0,0.0,0.0,0.0,0.0,0.0,0.0,0.0,0.0,0.0,0.0,0.0,0.0,0.0,0.0,0.0,0.0,0.0,0.0,0.0,0.0,0.0,0.0,0.0,0.0,0.0,0.0,0.0,0.0,0.0,0.0,0.0,0.0,0.0,0.0,0.0,0.0,0.0,0.0,0.0,0.0,0.0,0.0,0.0,0.0,0.0,0.0,0.0,0.0,0.0,0.0,0.0,0.0,0.0,0.0,0.0,0.0,0.0,0.0,0.0,0.0,0.0,0.0,0.0,0.0,0.0,0.0,0.0,0.0,0.0,0.0,0.0,0.0,0.0,0.0,0.0,0.0,0.0,0.0,0.0,0.0,-5.2019,-4.8068,-4.7319,-5.0316,-4.8984,-4.7806,0.0,0.0,0.0,0.0,0.0,0.0,0.0,0.0,0.0,0.0,0.0,0.0,0.0,0.0,0.0,0.0,0.0,0.0,0.0,0.0,0.0,0.0,0.0,0.0,0.0,0.0,0.0,0.0,0.0,0.0,0.0,0.0,0.0,0.0,0.0,0.0,0.0,0.0,0.0,0.0,0.0,0.0,0.0,0.0,0.0,0.0,0.0,0.0,0.0,0.0,0.0,0.0,0.0,0.0,0.0,0.0,0.0,0.0,0.0,0.0,0.0,0.0,0.0,0.0,0.0,0.0,0.0,0.0,0.0,0.0,0.0,0.0,0.0,0.0,0.0,0.0,0.0,0.0,0.0,0.0,0.0,0.0,0.0,0.0,0.0,0.0,0.0,0.0,0.0,0.0,0.0,0.0,0.0,0.0,0.0,0.0,0.0,0.0,0.0,0.0,0.0,0.0,0.0,0.0,0.0,0.0,0.0,0.0,0.0,-4.7497,-4.7854,-4.9067,-5.1101,-4.9305,-4.8056,0.0,0.0,0.0,0.0,0.0,0.0,0.0,0.0,0.0,0.0,0.0,0.0,0.0,0.0,0.0,0.0,0.0,0.0,0.0,0.0,0.0,0.0,0.0,0.0,0.0,0.0,0.0,0.0,0.0,0.0,0.0,0.0,0.0,0.0,0.0,0.0,0.0,0.0,0.0,0.0,0.0,0.0,0.0,0.0,0.0,0.0,0.0,0.0,0.0,0.0,0.0,0.0,0.0,0.0,0.0,0.0,0.0,0.0,0.0,0.0,0.0,0.0,0.0,0.0,0.0,0.0,0.0,0.0,0.0,0.0,0.0,0.0,0.0,0.0,0.0,0.0,0.0,0.0,0.0,0.0,0.0,0.0,0.0,0.0,0.0,0.0,0.0,0.0,0.0,0.0,0.0,0.0,0.0,0.0,0.0,0.0,0.0,0.0,0.0,0.0,0.0,0.0,0.0,0.0,0.0,0.0,0.0,0.0,0.0,-4.6235,0.0,-4.9892,-5.0265,-4.8862,-4.7429,0.0,0.0,0.0,0.0,0.0,0.0,0.0,0.0,0.0,0.0,0.0,0.0,0.0,0.0,0.0,0.0,0.0,0.0,0.0,0.0,0.0,0.0,0.0,0.0,0.0,0.0,0.0,0.0,0.0,0.0,0.0,0.0,0.0,0.0,0.0,0.0,0.0,0.0,0.0,0.0,0.0,0.0,0.0,0.0,0.0,0.0,0.0,0.0,0.0,0.0,0.0,0.0,0.0,0.0,0.0,0.0,0.0,0.0,0.0,0.0,0.0,0.0,0.0,0.0,0.0,0.0,0.0,0.0,0.0,0.0,0.0,0.0,0.0,0.0,0.0,0.0,0.0,0.0,0.0,0.0,0.0,0.0,0.0,0.0,0.0,0.0,0.0,0.0,0.0,0.0,0.0,0.0,0.0,0.0,0.0,0.0,0.0,0.0,0.0,0.0,0.0,0.0,0.0,0.0,0.0,0.0,0.0,0.0,-4.6956,-4.9249,-4.9909,-4.9479,-4.7755,-4.7697,-4.5811,0.0,0.0,0.0,0.0,0.0,0.0,0.0,0.0,0.0,0.0,0.0,0.0,0.0,0.0,0.0,0.0,0.0,0.0,0.0,0.0,0.0,0.0,0.0,0.0,0.0,0.0,0.0,0.0,0.0,0.0,0.0,0.0,0.0,0.0,0.0,0.0,0.0,0.0,0.0,0.0,0.0,0.0,0.0,0.0,0.0,0.0,0.0,0.0,0.0,0.0,0.0,0.0,0.0,0.0,0.0,0.0,0.0,0.0,0.0,0.0,0.0,0.0,0.0,0.0,0.0,0.0,0.0,0.0,0.0,0.0,0.0,0.0,0.0,0.0,0.0,0.0,0.0,0.0,0.0,0.0,0.0,0.0,0.0,0.0,0.0,0.0,0.0,0.0,0.0,0.0,0.0,0.0,0.0,0.0,0.0,0.0,0.0,0.0,0.0,0.0,0.0,0.0,0.0,0.0,0.0,0.0,0.0,0.0,0.0,-4.676,-4.828,-4.9625,-5.0469,-4.7615,-4.6126,0.0,0.0,0.0,0.0,0.0,0.0,0.0,0.0,0.0,0.0,0.0,0.0,0.0,0.0,0.0,0.0,0.0,0.0,0.0,0.0,0.0,0.0,0.0,0.0,0.0,0.0,0.0,0.0,0.0,0.0,0.0,0.0,0.0,0.0,0.0,0.0,0.0,0.0,0.0,0.0,0.0,0.0,0.0,0.0,0.0,0.0,0.0,0.0,0.0,0.0,0.0,0.0,0.0,0.0,0.0,0.0,0.0,0.0,0.0,0.0,0.0,0.0,0.0,0.0,0.0,0.0,0.0,0.0,0.0,0.0,0.0,0.0,0.0,0.0,0.0,0.0,0.0,0.0,0.0,0.0,0.0,0.0,0.0,0.0,0.0,0.0,0.0,0.0,0.0,0.0,0.0,0.0,0.0,0.0,0.0,0.0,0.0,0.0,0.0,0.0,0.0,0.0,0.0,0.0,0.0,0.0,0.0,0.0,0.0,-4.7471,-4.9184,-5.0385,-5.09,-4.8143,-4.6405,-4.5823,0.0,0.0,0.0,0.0,0.0,0.0,0.0,0.0,0.0,0.0,0.0,0.0,0.0,0.0,0.0,0.0,0.0,0.0,0.0,0.0,0.0,0.0,0.0,0.0,0.0,0.0,0.0,0.0,0.0,0.0,0.0,0.0,0.0,0.0,0.0,0.0,0.0,0.0,0.0,0.0,0.0,0.0,0.0,0.0,0.0,0.0,0.0,0.0,0.0,0.0,0.0,0.0,0.0,0.0,0.0,0.0,0.0,0.0,0.0,0.0,0.0,0.0,0.0,0.0,0.0,0.0,0.0,0.0,0.0,0.0,0.0,0.0,0.0,0.0,0.0,0.0,0.0,0.0,0.0,0.0,0.0,0.0,0.0,0.0,0.0,0.0,0.0,0.0,0.0,0.0,0.0,0.0,0.0,0.0,0.0,0.0,0.0,0.0,0.0,0.0,0.0,0.0,0.0,0.0,0.0,0.0,0.0,0.0,-5.0624,-5.2427,-5.2226,-4.979,-4.9407,-4.6835,0.0,0.0,0.0,0.0,0.0,0.0,0.0,0.0,0.0,0.0,0.0,0.0,0.0,0.0,0.0,0.0,0.0,0.0,0.0,0.0,0.0,0.0,0.0,0.0,0.0,0.0,0.0,0.0,0.0,0.0,0.0,0.0,0.0,0.0,0.0,0.0,0.0,0.0,0.0,0.0,0.0,0.0,0.0,0.0,0.0,0.0,0.0,0.0,0.0,0.0,0.0,0.0,0.0,0.0,0.0,0.0,0.0,0.0,0.0,0.0,0.0,0.0,0.0,0.0,0.0,0.0,0.0,0.0,0.0,0.0,0.0,0.0,0.0,0.0,0.0,0.0,0.0,0.0,0.0,0.0,0.0,0.0,0.0,0.0,0.0,0.0,0.0,0.0,0.0,0.0,0.0,0.0,0.0,0.0,0.0,0.0,0.0,0.0,0.0,0.0,0.0,0.0,0.0,0.0,0.0,0.0,0.0,0.0,0.0,-5.3503,-5.809,-5.8953,-5.5587,-5.189,-4.9025,0.0,0.0,0.0,0.0,0.0,0.0,0.0,0.0,0.0,0.0,0.0,0.0,0.0,0.0,0.0,0.0,0.0,0.0,0.0,0.0,0.0,0.0,0.0,0.0,0.0,0.0,0.0,0.0,0.0,0.0,0.0,0.0,0.0,0.0,0.0,0.0,0.0,0.0,0.0,0.0,0.0,0.0,0.0,0.0,0.0,0.0,0.0,0.0,0.0,0.0,0.0,0.0,0.0,0.0,0.0,0.0,0.0,0.0,0.0,0.0,0.0,0.0,0.0,0.0,0.0,0.0,0.0,0.0,0.0,0.0,0.0,0.0,0.0,0.0,0.0,0.0,0.0,0.0,0.0,0.0,0.0,0.0,0.0,0.0,0.0,0.0,0.0,0.0,0.0,0.0,0.0,0.0,0.0,0.0,0.0,0.0,0.0,0.0,0.0,0.0,0.0,0.0,0.0,0.0,0.0,0.0,0.0,0.0,-5.446,-5.7276,-6.2709,-6.4531,-6.2411,-5.7442,-5.2804,0.0,0.0,0.0,0.0,0.0,0.0,0.0,0.0,0.0,0.0,0.0,0.0,0.0,0.0,0.0,0.0,0.0,0.0,0.0,0.0,0.0,0.0,0.0,0.0,0.0,0.0,0.0,0.0,0.0,0.0,0.0,0.0,0.0,0.0,0.0,0.0,0.0,0.0,0.0,0.0,0.0,0.0,0.0,0.0,0.0,0.0,0.0,0.0,0.0,0.0,0.0,0.0,0.0,0.0,0.0,0.0,0.0,0.0,0.0,0.0,0.0,0.0,0.0,0.0,0.0,0.0,0.0,0.0,0.0,0.0,0.0,0.0,0.0,0.0,0.0,0.0,0.0,0.0,0.0,0.0,0.0,0.0,0.0,0.0,0.0,0.0,0.0,0.0,0.0,0.0,0.0,0.0,0.0,0.0,0.0,0.0,0.0,0.0,0.0,0.0,0.0,0.0,0.0,0.0,0.0,0.0,0.0,0.0,-5.7568,-6.1384,-6.6419,-6.9003,-6.8771,-6.3769,-5.7111,0.0,0.0,0.0,0.0,0.0,0.0,0.0,0.0,0.0,0.0,0.0,0.0,0.0,0.0,0.0,0.0,0.0,0.0,0.0,0.0,0.0,0.0,0.0,0.0,0.0,0.0,0.0,0.0,0.0,0.0,0.0,0.0,0.0,0.0,0.0,0.0,0.0,0.0,0.0,0.0,0.0,0.0,0.0,0.0,0.0,0.0,0.0,0.0,0.0,0.0,0.0,0.0,0.0,0.0,0.0,0.0,0.0,0.0,0.0,0.0,0.0,0.0,0.0,0.0,0.0,0.0,0.0,0.0,0.0,0.0,0.0,0.0,0.0,0.0,0.0,0.0,0.0,0.0,0.0,0.0,0.0,0.0,0.0,0.0,0.0,0.0,0.0,0.0,0.0,0.0,0.0,0.0,0.0,0.0,0.0,0.0,0.0,0.0,0.0,0.0,0.0,0.0,0.0,0.0,0.0,0.0,0.0,0.0,-5.88,-6.357,-6.8639,-7.1024,-7.0428,-6.3802,-5.774,0.0,0.0,0.0,0.0,0.0,0.0,0.0,0.0,0.0,0.0,0.0,0.0,0.0,0.0,0.0,0.0,0.0,0.0,0.0,0.0,0.0,0.0,0.0,0.0,0.0,0.0,0.0,0.0,0.0,0.0,0.0,0.0,0.0,0.0,0.0,0.0,0.0,0.0,0.0,0.0,0.0,0.0,0.0,0.0,0.0,0.0,0.0,0.0,-3.9422,0.0,0.0,0.0,0.0,0.0,0.0,0.0,0.0,0.0,0.0,0.0,0.0,0.0,0.0,0.0,0.0,0.0,0.0,0.0,0.0,0.0,0.0,0.0,0.0,0.0,0.0,0.0,0.0,0.0,0.0,0.0,0.0,0.0,0.0,0.0,0.0,0.0,0.0,0.0,0.0,0.0,0.0,0.0,0.0,0.0,0.0,0.0,0.0,0.0,0.0,0.0,0.0,0.0,0.0,0.0,0.0,0.0,0.0,0.0,-6.0887,-6.6254,-7.0726,-7.2846,-7.225,-6.6353,-6.0316,0.0,0.0,0.0,0.0,0.0,0.0,0.0,0.0,0.0,0.0,0.0,0.0,0.0,0.0,0.0,0.0,0.0,0.0,0.0,0.0,0.0,0.0,0.0,0.0,0.0,0.0,0.0,0.0,0.0,0.0,0.0,0.0,0.0,0.0,0.0,0.0,0.0,0.0,0.0,0.0,0.0,0.0,0.0,0.0,0.0,0.0,0.0,0.0,0.0,0.0,0.0,0.0,0.0,0.0,0.0,0.0,0.0,0.0,0.0,0.0,0.0,0.0,0.0,0.0,0.0,0.0,0.0,0.0,0.0,0.0,0.0,0.0,0.0,0.0,0.0,0.0,0.0,0.0,0.0,0.0,0.0,0.0,0.0,0.0,0.0,0.0,0.0,0.0,0.0,0.0,0.0,0.0,0.0,0.0,0.0,0.0,0.0,0.0,0.0,0.0,0.0,0.0,0.0,0.0,0.0,0.0,0.0,-5.721,-6.2875,-6.9003,-7.2448,-7.4155,-7.3939,-6.9268,-6.3206,-5.5913,0.0,0.0,0.0,0.0,0.0,0.0,0.0,0.0,0.0,0.0,0.0,0.0,0.0,0.0,0.0,0.0,0.0,0.0,0.0,0.0,0.0,0.0,0.0,0.0,0.0,0.0,0.0,0.0,0.0,0.0,0.0,0.0,0.0,0.0,0.0,0.0,0.0,0.0,-3.8711,-4.1198,0.0,0.0,0.0,0.0,0.0,0.0,0.0,0.0,-3.9975,0.0,0.0,0.0,0.0,0.0,0.0,0.0,0.0,0.0,0.0,0.0,0.0,0.0,0.0,0.0,0.0,0.0,0.0,0.0,0.0,0.0,0.0,0.0,0.0,0.0,0.0,0.0,0.0,0.0,0.0,0.0,0.0,0.0,0.0,0.0,0.0,0.0,0.0,0.0,0.0,0.0,0.0,0.0,0.0,0.0,0.0,0.0,0.0,0.0,0.0,0.0,0.0,0.0,0.0,0.0,0.0,-5.5686,-5.7972,-6.3107,-7.1223,-7.321,-7.3906,-7.321,-6.95,-6.3692,-5.5979,0.0,0.0,0.0,0.0,0.0,0.0,0.0,0.0,0.0,0.0,0.0,0.0,0.0,0.0,0.0,0.0,0.0,0.0,0.0,0.0,0.0,0.0,0.0,0.0,0.0,0.0,0.0,0.0,0.0,0.0,0.0,0.0,0.0,0.0,0.0,0.0,0.0,0.0,0.0,-4.2422,-4.3936,0.0,0.0,0.0,0.0,0.0,0.0,0.0,0.0,-4.1047,0.0,0.0,0.0,0.0,0.0,0.0,0.0,0.0,0.0,0.0,0.0,0.0,0.0,0.0,0.0,0.0,0.0,0.0,0.0,0.0,0.0,0.0,0.0,0.0,0.0,0.0,0.0,0.0,0.0,0.0,0.0,0.0,0.0,0.0,0.0,0.0,0.0,0.0,0.0,0.0,0.0,0.0,0.0,0.0,0.0,0.0,0.0,0.0,0.0,0.0,0.0,0.0,0.0,0.0,0.0,-5.5322,-5.9264,-6.4498,-7.1189,-7.2481,-7.2879,-7.2448,-6.7512,-6.1914,0.0,0.0,0.0,0.0,0.0,0.0,0.0,0.0,0.0,0.0,0.0,0.0,0.0,0.0,0.0,0.0,0.0,0.0,0.0,0.0,0.0,0.0,0.0,0.0,0.0,0.0,0.0,0.0,0.0,0.0,0.0,0.0,0.0,0.0,0.0,0.0,0.0,0.0,0.0,0.0,-4.2828,-4.3925,-4.3856,0.0,0.0,0.0,0.0,0.0,0.0,-4.1057,-4.1204,0.0,0.0,0.0,0.0,0.0,0.0,0.0,0.0,0.0,0.0,0.0,0.0,0.0,0.0,0.0,0.0,0.0,0.0,0.0,0.0,0.0,0.0,0.0,0.0,0.0,0.0,0.0,0.0,0.0,0.0,0.0,0.0,0.0,0.0,0.0,0.0,0.0,0.0,0.0,0.0,0.0,0.0,0.0,0.0,0.0,0.0,0.0,0.0,0.0,0.0,0.0,0.0,0.0,0.0,0.0,-5.4494,-6.0026,-6.5459,-7.0626,-7.162,-7.1803,-7.1308,-6.5412,-5.9919,0.0,0.0,0.0,0.0,0.0,0.0,0.0,0.0,0.0,0.0,0.0,0.0,0.0,0.0,0.0,0.0,0.0,0.0,0.0,0.0,0.0,0.0,0.0,0.0,0.0,0.0,0.0,0.0,0.0,0.0,0.0,0.0,0.0,0.0,0.0,0.0,0.0,0.0,0.0,0.0,0.0,-4.4384,-4.4581,-4.3673,0.0,0.0,0.0,0.0,-4.1982,-4.2117,0.0,0.0,0.0,0.0,0.0,0.0,0.0,0.0,0.0,0.0,0.0,0.0,0.0,0.0,0.0,0.0,0.0,0.0,0.0,0.0,0.0,0.0,0.0,0.0,0.0,0.0,0.0,0.0,0.0,0.0,0.0,0.0,0.0,0.0,0.0,0.0,0.0,0.0,0.0,0.0,0.0,0.0,0.0,0.0,0.0,0.0,0.0,0.0,0.0,0.0,0.0,0.0,0.0,0.0,0.0,0.0,-5.4394,-5.9032,-6.4465,-7.056,-7.162,-7.1193,-6.9402,-6.4583,-5.9174,0.0,0.0,0.0,0.0,0.0,0.0,0.0,0.0,0.0,0.0,0.0,0.0,0.0,0.0,0.0,0.0,0.0,0.0,0.0,0.0,0.0,0.0,0.0,0.0,0.0,0.0,0.0,0.0,0.0,0.0,0.0,0.0,0.0,0.0,0.0,0.0,0.0,0.0,0.0,0.0,0.0,-4.6718,-4.4852,-4.4993,-4.5331,0.0,0.0,-4.4344,-4.5094,-4.5196,0.0,0.0,0.0,0.0,0.0,0.0,0.0,0.0,0.0,0.0,0.0,0.0,0.0,0.0,0.0,0.0,0.0,0.0,0.0,0.0,0.0,0.0,0.0,0.0,0.0,0.0,0.0,0.0,0.0,0.0,0.0,0.0,0.0,0.0,0.0,0.0,0.0,0.0,0.0,0.0,0.0,0.0,0.0,0.0,0.0,0.0,0.0,0.0,0.0,0.0,0.0,0.0,0.0,0.0,0.0,-4.9193,-5.446,-5.9661,-6.4697,-6.9434,-6.9676,-6.9154,-6.7877,-6.1373,-5.6251,0.0,0.0,0.0,0.0,0.0,0.0,0.0,0.0,0.0,0.0,0.0,0.0,0.0,0.0,0.0,0.0,0.0,0.0,0.0,0.0,0.0,0.0,0.0,0.0,0.0,0.0,0.0,0.0,0.0,0.0,0.0,0.0,0.0,0.0,0.0,0.0,0.0,0.0,0.0,0.0,0.0,0.0,-4.6481,-4.6041,0.0,0.0,0.0,-4.5466,-4.621,0.0,0.0,0.0,0.0,0.0,0.0,0.0,0.0,0.0,0.0,0.0,0.0,0.0,0.0,0.0,0.0,0.0,0.0,0.0,0.0,0.0,0.0,0.0,0.0,0.0,0.0,0.0,0.0,0.0,0.0,0.0,0.0,0.0,0.0,0.0,0.0,0.0,0.0,0.0,0.0,0.0,0.0,0.0,0.0,0.0,0.0,0.0,0.0,0.0,0.0,0.0,0.0,0.0,0.0,0.0,0.0,0.0,-5.3968,-5.958,-6.4207,-6.7677,-6.7458,-6.6809,-6.5868,-5.9017,0.0,0.0,0.0,0.0,0.0,0.0,0.0,0.0,0.0,0.0,0.0,0.0,0.0,0.0,0.0,0.0,0.0,0.0,0.0,0.0,0.0,0.0,0.0,0.0,0.0,0.0,0.0,-3.1641,0.0,0.0,0.0,0.0,0.0,0.0,0.0,0.0,0.0,0.0,0.0,0.0,0.0,0.0,-4.638,-4.7496,-4.6989,-4.7259,0.0,0.0,-4.6853,-4.7767,-4.7733,-4.6786,0.0,0.0,0.0,0.0,0.0,0.0,0.0,0.0,0.0,0.0,0.0,0.0,0.0,0.0,0.0,0.0,0.0,0.0,0.0,0.0,0.0,0.0,0.0,0.0,0.0,0.0,0.0,0.0,-4.3325,0.0,0.0,0.0,0.0,0.0,0.0,0.0,0.0,0.0,0.0,0.0,0.0,0.0,0.0,0.0,0.0,0.0,0.0,0.0,0.0,0.0,0.0,0.0,0.0,0.0,-4.8855,-5.2568,-5.7614,-6.1959,-6.5346,-6.5258,-6.4557,-6.3344,-5.9086,-5.4431,0.0,0.0,0.0,0.0,0.0,0.0,0.0,0.0,0.0,0.0,0.0,0.0,0.0,0.0,0.0,0.0,0.0,0.0,0.0,0.0,0.0,0.0,0.0,0.0,0.0,0.0,0.0,0.0,0.0,0.0,0.0,0.0,0.0,0.0,0.0,0.0,0.0,0.0,0.0,0.0,0.0,-4.6752,-4.6853,-4.797,-4.9323,0.0,-4.9796,-4.9289,-5.0676,-5.0304,-4.8883,-4.6007,0.0,0.0,0.0,0.0,0.0,0.0,0.0,0.0,0.0,0.0,0.0,0.0,0.0,0.0,0.0,0.0,0.0,0.0,0.0,0.0,0.0,0.0,0.0,0.0,0.0,-4.3191,-4.3589,0.0,-4.3511,0.0,0.0,0.0,0.0,0.0,0.0,0.0,0.0,0.0,0.0,0.0,0.0,0.0,0.0,0.0,0.0,0.0,0.0,0.0,0.0,0.0,0.0,0.0,0.0,-4.818,-5.1855,-5.7073,-6.1057,-6.3609,-6.3571,-6.2953,-6.1802,-5.7466,-5.3207,0.0,0.0,0.0,0.0,0.0,0.0,0.0,0.0,0.0,0.0,0.0,0.0,0.0,0.0,0.0,0.0,0.0,0.0,0.0,0.0,0.0,0.0,0.0,0.0,0.0,0.0,0.0,0.0,-3.359,-3.4385,-3.5029,0.0,0.0,0.0,0.0,0.0,0.0,0.0,0.0,0.0,0.0,-4.671,-4.8277,-4.9154,0.0,0.0,-5.1386,-5.0913,-5.0574,-5.027,-4.9086,-4.6177,-4.506,0.0,0.0,0.0,0.0,0.0,0.0,0.0,0.0,0.0,0.0,0.0,0.0,0.0,0.0,0.0,0.0,0.0,0.0,0.0,0.0,0.0,0.0,0.0,0.0,0.0,0.0,0.0,0.0,0.0,0.0,0.0,0.0,0.0,0.0,0.0,0.0,0.0,0.0,0.0,0.0,0.0,0.0,0.0,0.0,0.0,0.0,0.0,0.0,0.0,0.0,0.0,0.0,-4.7383,-5.0755,-5.6049,-5.9727,-6.1725,-6.1792,-6.135,-6.0241,-5.6433,-5.2732,0.0,0.0,0.0,0.0,0.0,0.0,0.0,0.0,0.0,0.0,0.0,0.0,0.0,0.0,0.0,0.0,0.0,0.0,0.0,0.0,0.0,0.0,0.0,0.0,0.0,0.0,0.0,0.0,-3.412,-3.4668,-3.5163,0.0,0.0,0.0,0.0,0.0,0.0,0.0,0.0,0.0,0.0,-4.6843,-4.906,-4.9725,-5.0524,-5.2099,-5.1928,-5.142,-5.0845,-5.0371,-4.9255,-4.6786,0.0,0.0,0.0,0.0,0.0,0.0,0.0,0.0,0.0,0.0,0.0,0.0,0.0,0.0,0.0,0.0,0.0,0.0,0.0,0.0,0.0,0.0,0.0,0.0,0.0,0.0,0.0,-4.5684,0.0,0.0,-4.5454,0.0,0.0,0.0,0.0,0.0,0.0,0.0,0.0,0.0,0.0,0.0,0.0,0.0,0.0,0.0,0.0,0.0,0.0,0.0,0.0,0.0,0.0,-4.6399,-4.9169,-5.4297,-5.7728,-5.944,-5.9862,-5.9629,-5.8662,-5.6372,-5.3313,-4.9344,0.0,0.0,0.0,0.0,0.0,0.0,0.0,0.0,0.0,0.0,0.0,0.0,0.0,0.0,0.0,0.0,0.0,0.0,0.0,0.0,0.0,0.0,0.0,0.0,0.0,0.0,-3.4257,-3.4612,-3.4788,0.0,0.0,0.0,0.0,0.0,0.0,0.0,0.0,0.0,0.0,-4.5302,-4.7194,-4.8695,-4.9556,-5.0557,-5.2066,-5.1117,-5.0676,-5.1995,-5.1014,-4.9593,0.0,0.0,0.0,0.0,0.0,0.0,0.0,0.0,0.0,0.0,0.0,0.0,0.0,0.0,0.0,0.0,0.0,0.0,0.0,0.0,0.0,0.0,0.0,0.0,0.0,0.0,0.0,-4.5911,-4.5605,0.0,0.0,0.0,0.0,0.0,0.0,0.0,0.0,0.0,0.0,0.0,-4.9016,-4.8962,0.0,0.0,0.0,0.0,0.0,0.0,0.0,0.0,0.0,0.0,0.0,0.0,-4.6199,-4.8602,-5.3574,-5.6907,-5.841,-5.9093,-5.8911,-5.7954,-5.614,-5.2725,-4.7489,0.0,0.0,0.0,0.0,0.0,0.0,0.0,0.0,0.0,0.0,0.0,0.0,0.0,0.0,0.0,0.0,0.0,0.0,0.0,0.0,0.0,0.0,0.0,0.0,0.0,-3.3328,0.0,0.0,0.0,0.0,0.0,0.0,0.0,0.0,0.0,0.0,0.0,-4.1566,-4.3583,-4.4689,-4.5918,-4.7661,-4.9357,-5.0587,0.0,0.0,0.0,0.0,0.0,0.0,0.0,0.0,0.0,0.0,0.0,0.0,0.0,0.0,-4.8308,-4.3876,-4.3064,-4.3301,-4.4045,0.0,0.0,0.0,0.0,0.0,0.0,0.0,0.0,0.0,0.0,0.0,0.0,0.0,0.0,-4.8247,-4.79,-4.6541,0.0,0.0,0.0,0.0,0.0,0.0,0.0,0.0,-4.9848,-5.062,-5.1683,-5.1613,-5.081,0.0,-4.9105,-4.7503,0.0,0.0,0.0,0.0,0.0,0.0,0.0,0.0,-4.6133,-4.8687,-5.3219,-5.6373,-5.7922,-5.8332,-5.8234,-5.7437,-5.528,-5.1917,-4.716,-4.3838,-4.1384,0.0,0.0,0.0,0.0,0.0,0.0,0.0,0.0,0.0,0.0,0.0,0.0,0.0,0.0,0.0,0.0,0.0,0.0,0.0,0.0,0.0,0.0,0.0,-3.3665,0.0,0.0,0.0,0.0,0.0,0.0,0.0,0.0,0.0,-3.9872,-4.1115,-4.2768,-4.4948,-4.5304,-4.5918,-4.7601,0.0,0.0,0.0,0.0,0.0,0.0,0.0,-4.9357,-4.8398,-4.8729,-4.9257,-4.9556,-5.1731,-5.3179,-5.2164,0.0,0.0,-4.7868,-4.6921,-4.7124,-4.7868,-4.7597,-4.7462,-4.8173,-4.7996,-4.7585,0.0,0.0,0.0,0.0,0.0,0.0,0.0,0.0,-5.2256,-5.2238,0.0,-5.0113,0.0,0.0,0.0,0.0,0.0,-4.7958,0.0,0.0,-5.2684,-5.3653,-5.4341,-5.4371,-5.3982,-5.3264,-5.2636,-5.099,-4.8401,-4.5843,0.0,0.0,0.0,0.0,0.0,0.0,-4.6325,-4.9445,-5.3113,-5.5948,-5.784,-5.7674,-5.7437,-5.6944,-5.3892,-5.105,-4.8476,-4.6411,-4.4436,-4.256,-3.9349,0.0,0.0,0.0,0.0,0.0,0.0,0.0,0.0,0.0,0.0,0.0,0.0,0.0,0.0,0.0,0.0,0.0,0.0,0.0,0.0,-3.513,0.0,0.0,0.0,0.0,0.0,0.0,0.0,0.0,0.0,0.0,-4.1482,-4.2407,-4.4204,-4.7105,0.0,0.0,0.0,0.0,-4.8796,-4.8941,-4.8986,-4.9272,-4.996,-4.9988,-4.995,-4.9886,0.0,0.0,-5.1892,-5.4086,-5.541,-5.4025,-5.558,-5.6258,-5.4059,-5.2401,-5.1657,-5.2266,-5.1386,-5.0676,-5.1251,-5.1522,-5.1317,-6.1821,0.0,0.0,0.0,0.0,-5.3392,-5.403,-5.5171,-5.5024,-5.4256,-5.3004,-5.2626,0.0,0.0,0.0,0.0,0.0,0.0,-5.2013,-5.4072,-5.494,-5.6166,-5.7693,-5.7723,-5.7094,-5.5987,-5.5777,-5.4341,-5.1798,-5.0541,-4.7233,-4.1978,0.0,0.0,0.0,0.0,-4.7806,-5.0304,-5.3381,-5.58,-5.7562,-5.7385,-5.6779,-5.5748,-5.3443,-5.1618,-5.0391,-4.8027,-4.6022,-4.4496,-4.2222,0.0,0.0,0.0,0.0,0.0,0.0,0.0,0.0,0.0,0.0,0.0,0.0,0.0,0.0,0.0,0.0,0.0,0.0,0.0,-3.516,-3.6207,-3.645,0.0,0.0,0.0,0.0,0.0,0.0,0.0,0.0,0.0,-4.4248,-4.4242,-4.4809,0.0,0.0,-4.6744,-4.7136,-4.8284,-4.9282,-4.9804,-5.0968,0.0,-5.2341,-5.2373,-5.2213,-5.1733,-5.2789,-5.4253,-5.5936,-5.7608,-5.863,-5.8433,-5.9313,-5.9607,-5.8457,-5.7002,-5.6122,-5.619,-5.5919,-5.5716,-5.5919,-5.5987,-5.5886,-6.8271,-6.3238,-5.9875,-5.8105,-5.7607,-5.7652,-5.8316,-5.9249,-5.9009,-5.8284,-5.7086,-5.6242,-5.4477,-5.2008,-5.1258,0.0,0.0,0.0,-5.483,-5.7124,-5.7543,-5.8501,-5.9847,-5.9877,-5.9338,-5.8291,-5.8022,-5.6795,-5.473,-5.3563,-5.0601,-4.6035,0.0,0.0,-4.4148,-4.6554,-4.888,-5.1076,-5.3175,-5.5249,-5.7428,-5.7281,-5.6376,-5.485,-5.3354,-5.2157,-5.1229,-4.9224,-4.7459,-4.6142,-4.3928,-4.1624,0.0,0.0,0.0,0.0,0.0,0.0,0.0,0.0,0.0,0.0,0.0,-3.2736,-3.2318,0.0,0.0,0.0,-3.5489,-3.6327,-3.6985,-3.7524,0.0,0.0,0.0,0.0,0.0,0.0,0.0,-4.2741,-4.4602,-4.6312,-4.7804,-4.7896,-4.8112,-4.8912,-4.8789,-4.8727,-4.8974,0.0,-5.0723,-5.0847,-5.2199,-5.3333,-5.3507,-5.399,-5.4316,-5.4396,-5.551,-5.6858,-5.8421,-5.9761,-6.0689,-6.1143,-6.1509,-6.1695,-6.1627,-6.0858,-5.9857,-5.8961,-5.8761,-5.8761,-5.8761,-5.8998,-5.9235,-7.4001,-7.1757,-6.5592,-6.251,-6.1732,-6.2301,-6.3199,-6.4186,-6.3558,-6.3346,-6.3049,-6.0595,-5.874,-5.7334,-5.491,0.0,-5.6697,-5.6645,-5.7992,-6.0386,-6.0386,-6.0745,-6.1313,-6.1343,-6.0954,-6.0236,-5.9638,-5.862,-5.7184,-5.5418,-5.3443,-5.1349,-4.8895,-4.7366,-4.6846,-4.7859,-4.9584,-5.191,-5.2725,-5.452,-5.7226,-5.7109,-5.6137,-5.4251,-5.3533,-5.2576,-5.1259,-4.9942,-4.8686,-4.7399,-4.4904,-4.2931,-4.1564,0.0,0.0,0.0,0.0,0.0,0.0,0.0,0.0,0.0,0.0,0.0,0.0,0.0,0.0,-3.6477,-3.7973,0.0,-3.9852,-3.9409,0.0,0.0,0.0,-4.0516,-4.2,-4.3897,-4.5697,-4.7277,0.0,0.0,-5.173,-5.2575,-5.3067,-5.3191,-5.2452,-5.2175,-5.279,-5.2852,-5.2729,-5.2312,-5.3221,-5.4052,-5.4422,-5.5285,-5.626,-5.7167,-5.8436,-5.9191,-5.9816,-6.0725,-6.1711,-6.2175,-6.2439,-6.2695,-6.3633,-6.3492,-6.3165,-6.084,-6.0482,-6.052,-6.0588,-6.1095,-6.1569,-7.6544,-7.5407,-7.2355,-6.9273,-6.64,-6.652,-6.646,-6.6221,-6.5592,-6.5024,-6.4485,-6.3348,-6.2121,-6.0835,-5.9727,-5.9757,-6.0685,-6.0685,-6.1553,-6.3019,-6.3079,-6.3169,-6.3318,-6.3318,-6.272,-6.1672,-6.1463,-6.0446,-5.865,-5.7663,-5.5688,-5.2785,-5.1588,-4.9988,-4.8025,-4.895,-5.0382,-5.2137,-5.2515,-5.3699,-5.567,-5.6188,-5.5688,-5.4251,-5.3533,-5.2546,-5.1259,-4.9942,-4.8895,-4.8057,-4.6501,-4.4796,-4.3,-4.0247,0.0,0.0,0.0,0.0,0.0,0.0,0.0,0.0,0.0,-3.513,-3.3604,0.0,-3.5848,0.0,-4.0965,-4.3389,-4.4556,-4.4485,0.0,0.0,-4.5065,-4.5728,-4.8399,-4.9152,-4.9978,-5.1185,-5.2563,-5.3561,-5.3914,-5.5068,-5.6176,-5.7131,-5.5407,-5.4083,-5.4191,-5.4699,-5.513,-5.553,-5.6269,-5.6977,-5.7469,-5.7808,-5.8165,-5.8418,-5.8721,-5.9216,-6.0254,-6.0929,-6.1551,-6.2023,-6.2717,-6.3064,-6.2826,-6.3076,-6.3297,-6.3056,-6.329,-6.3531,-6.3531,-6.3666,-6.3802,-7.8723,-7.7562,-7.5886,-7.3073,-6.9722,-6.9722,-6.9512,-6.9093,-6.8166,-6.7567,-6.7148,-6.5892,-6.4784,-6.3827,-6.3169,-6.3049,-6.3408,-6.3408,-6.3797,-6.4455,-6.4455,-6.4455,-6.4455,-6.4156,-6.3617,-6.2929,-6.2361,-6.1373,-5.9997,-5.9039,-5.7483,-5.5388,-5.4431,-5.2935,-5.096,-5.0095,-5.0366,-5.1738,-5.281,-5.395,-5.5149,-5.5837,-5.5269,-5.3384,-5.2665,-5.1409,-4.9553,-4.8207,-4.7189,-4.6531,-4.5274,-4.3928,-4.2551,-4.0546,-3.8811,0.0,0.0,0.0,0.0,0.0,0.0,0.0,0.0,0.0,0.0,0.0,-3.8182,-4.0397,-4.3928,-4.6381,-4.713,-4.7459,-4.8117,-4.9344,-4.9404,-5.0274,-5.2627,-5.3222,-5.4005,-5.5363,-5.6273,-5.6954,-5.7359,-5.8362,-5.9255,-6.0024,-5.9101,-5.8085,-5.7592,-5.7746,-5.8116,-5.8516,-5.9131,-5.9809,-6.0486,-6.0578,-6.0578,-6.0547,-6.0332,-6.0373,-6.0989,-6.1107,-6.1239,-6.1751,-6.2284,-6.2681,-6.2668,-6.2926,-6.3367,-6.4002,-6.4428,-6.458,-6.4626,-6.4884,-6.5087,-8.0544,-7.9083,-7.7584,-7.5305,-7.2571,-7.2212,-7.1792,-7.1158,-6.9901,-6.9393,-6.9393,-6.7897,-6.6879,-6.6221,-6.5652,-6.5353,-6.5233,-6.5263,-6.5293,-6.5263,-6.5293,-6.5233,-6.5114,-6.4455,-6.4096,-6.3947,-6.278,-6.1882,-6.1194,-5.9967,-5.889,-5.7962,-5.6765,-5.5508,-5.4132,-5.1259,-5.0242,-5.1199,-5.3204,-5.4491,-5.5059,-5.5448,-5.4461,-5.2067,-5.1229,-4.9643,-4.716,-4.5903,-4.5005,-4.4317,-4.3339,-4.256,-4.2013,-4.0756,-3.9523,0.0,-3.7764,0.0,0.0,0.0,0.0,0.0,0.0,0.0,0.0,-4.0756,-4.1683,-4.3977,-4.707,-4.909,-4.9404,-4.9912,-5.1066,-5.2845,-5.3593,-5.4431,-5.5709,-5.6624,-5.7643,-5.9197,-5.9557,-6.0031,-6.073,-6.1458,-6.188,-6.1972,-6.228,-6.2179,-6.1502,-6.1071,-6.0917,-6.104,-6.1532,-6.1902,-6.2425,-6.2671,-6.2671,-6.2671,-6.2086,-6.184,-6.1717,-6.1246,-6.0969,-6.1348,-6.1602,-6.1922,-6.2761,-6.2923,-6.3308,-6.4137,-6.4289,-6.4461,-6.4825,-6.5301,-6.5756,-8.1595,-8.1111,-7.8719,-7.712,-7.622,-7.4081,-7.1118,-6.7837,-6.652,-6.6251,-6.6849,-6.8076,-6.8256,-6.7627,-6.7478,-6.7119,-6.664,-6.661,-6.661,-6.661,-6.661,-6.634,-6.5802,-6.5144,-6.4545,-6.3977,-6.3228,-6.257,-6.1882,-6.1104,-5.9548,-5.7304,-5.6607,-5.5508,-5.4221,0.0,0.0,0.0,-5.3174,-5.4281,-5.4371,-5.3443,-5.2187,-5.0614,-4.9464,0.0,-4.5813,-4.5424,-4.4975,-4.4377,-4.4586,0.0,0.0,0.0,0.0,0.0,0.0,0.0,0.0,0.0,0.0,0.0,-4.5484,-4.4646,-4.3748,-4.5933,-4.7818,-4.885,-5.096,-5.3114,-5.5209,-5.5538,-5.6196,-5.7603,-5.7902,-5.8398,-5.9392,-5.9627,-6.018,-6.1207,-6.1352,-6.1467,-6.1727,-6.2042,-6.2479,-6.3023,-6.3401,-6.3725,-6.4026,-6.3071,-6.2456,-6.2456,-6.261,-6.2671,-6.2794,-6.2887,-6.2948,-6.2733,-6.224,-6.1871,-6.1809,-6.1255,-6.0794,-6.1,-6.1277,-6.1633,-6.1885,-6.2234,-6.2695,-6.3244,-6.3388,-6.3858,-6.5434,-6.589,-6.6152,-8.1896,0.0,-7.8898,-7.7031,0.0,-7.3537,-7.0721,-6.7517,-6.7781,-6.8106,-6.8465,-6.9373,-6.9346,-6.8655,-6.7664,-6.6703,-6.5712,-6.5229,-6.5141,-6.5503,-6.5622,-6.5982,-6.646,-6.5503,-6.4844,-6.4485,-6.3528,-6.272,-6.2091,-6.1762,-6.0745,-5.9099,-5.8112,-5.7274,-5.6615,-5.5628,-5.4461,-5.3174,-5.4192,-5.4999,-5.5568,-5.467,-5.3384,-5.1738,-5.072,0.0,0.0,0.0,0.0,0.0,0.0,0.0,0.0,0.0,0.0,-4.6711,-4.6142,-4.6352,-4.7608,-4.8027,-4.9075,-5.105,-5.2097,-5.1528,-4.8895,-5.1409,-5.3414,-5.4072,-5.5359,-5.6765,-5.8351,-5.859,-5.8979,-5.9937,-6.0086,-6.0411,-6.1177,-6.1378,-6.1815,-6.2531,-6.2819,-6.3016,-6.3097,-6.3127,-6.3446,-6.4028,-6.4114,-6.4292,-6.4764,-6.4303,-6.3872,-6.3841,-6.3841,-6.3841,-6.3841,-6.3841,-6.381,-6.3749,-6.2979,-6.2394,-6.2302,-6.1471,-6.0794,-6.0794,-6.1052,-6.1206,-6.1257,-6.143,-6.1734,-6.2202,-6.2351,-6.281,-6.4328,-6.5192,-6.5932,-8.198,-8.0741,-7.8855,-7.6726,-7.4537,-7.3077,-7.0977,-6.8789,0.0,0.0,0.0,-7.0742,-7.0263,-6.9418,-6.7789,-6.6341,-6.5041,-6.4065,-6.3924,-6.4512,-6.4625,-6.541,-6.6732,-6.5473,-6.4934,-6.4844,-6.3706,-6.281,-6.2301,-6.2181,-6.1822,-6.1224,-6.0057,-5.9458,-5.9368,-5.8351,-5.7304,-5.6256,-5.5658,-5.5867,-5.6855,-5.6196,-5.497,-5.3234,-5.2426,-5.096,-4.8716,-4.8117,-4.7818,-4.7818,-4.7429,-4.7549,-4.8297,-4.8446,-4.8865,-4.9613,-4.9793,-5.0601,-5.2306,-5.2935,-5.4042,-5.5927,-5.7663,-5.7393,-5.4431,-5.6316,-5.7842,-5.8411,-5.9069,-5.9697,-6.0386,-6.0446,-6.0715,-6.1373,-6.1463,-6.1672,-6.2238,-6.2468,-6.2762,-6.3361,-6.3562,-6.3906,-6.4015,-6.3958,-6.4106,-6.4499,-6.4351,-6.4437,-6.4721,-6.4771,-6.4764,-6.4764,-6.4703,-6.4826,-6.4888,-6.4826,-6.4857,-6.4518,-6.3564,-6.2825,-6.2487,-6.1625,-6.0886,-6.0794,-6.0794,-6.0845,-6.0794,-6.0845,-6.0949,-6.1379,-6.1481,-6.1784,-6.2761,-6.3923,-6.4979,-8.2271,-8.094,-7.9527,-7.8157,-7.6849,-7.4924,-7.3147,-7.14,-7.0518,-6.9789,-6.9365,-7.1064,-7.1094,-6.9881,-6.9608,-6.8759,-6.7514,-6.6725,-6.6393,-6.6486,-6.591,-6.5819,-6.5973,-6.5044,-6.4595,-6.4477,-6.3524,-6.3019,-6.2899,-6.2361,-6.2032,-6.1882,-6.1194,-6.0835,-6.0805,-6.0655,-6.0475,-6.0236,-5.7483,-5.6107,-5.6338,-5.5119,-5.4072,-5.3204,-5.2067,-5.096,-4.9956,-4.9867,-4.9777,-4.9777,-5.0226,-5.1079,-5.2276,-5.2905,-5.3773,-5.497,-5.5568,-5.6256,-5.7012,-5.7244,-5.7902,-5.9249,-6.0206,-5.9997,-5.8501,-5.9129,-5.9697,-5.9847,-6.0446,-6.1104,-6.1702,-6.1792,-6.2032,-6.263,-6.278,-6.2839,-6.2899,-6.2957,-6.3044,-6.3164,-6.3194,-6.3252,-6.3367,-6.3451,-6.3652,-6.3766,-6.3963,-6.4132,-6.4412,-6.4721,-6.4888,-6.4888,-6.4888,-6.4888,-6.4888,-6.4888,-6.4611,-6.4002,-6.3318,-6.2579,-6.2117,-6.1348,-6.0824,-6.0794,-6.0794,-6.0794,-6.0794,-6.0794,-6.0845,-6.0949,-6.1,-6.1277,-6.2171,-6.2632,-6.3116,-8.1756,-8.0494,-7.9509,-7.818,-7.6507,-7.4577,-7.3253,-7.2515,-7.1903,-7.1258,-7.0734,-7.1376,-7.1103,-7.0129,-6.9062,-6.7903,-6.6592,-6.5273,-6.4915,-6.5238,-6.4801,-6.5018,-6.5784,-6.5064,-6.4677,-6.4473,-6.3897,-6.3481,-6.3279,-6.2979,-6.2859,-6.2799,-6.2028,-6.1463,-6.1134,-6.1104,-6.1104,-6.1104,-5.9638,-5.886,-5.883,-5.7902,-5.7244,-5.6915,-5.5987,-5.5359,-5.5059,-5.465,-5.462,-5.5029,-5.4999,-5.5388,-5.6316,-5.6705,-5.7304,-5.8231,-5.856,-5.9009,-5.9697,-6.0086,-6.0535,-6.1134,-6.1792,-6.1942,-6.1313,-6.1194,-6.1313,-6.1672,-6.2002,-6.2301,-6.26,-6.263,-6.275,-6.3049,-6.3137,-6.3137,-6.3137,-6.3137,-6.3137,-6.3137,-6.3137,-6.3194,-6.3309,-6.3309,-6.3424,-6.3709,-6.3936,-6.4019,-6.4132,-6.4331,-6.4554,-6.4863,-6.4888,-6.4888,-6.4857,-6.4549,-6.421,-6.3841,-6.2948,-6.224,-6.1809,-6.1255,-6.0855,-6.0794,-6.0794,-6.0794,-6.0794,-6.0794,-6.0794,-6.0794,-6.0794,-6.1072,-6.1379,-6.145,-6.2121,-8.1079,-7.9817,-7.9139,-7.7662,-7.5661,-7.3937,-7.3137,-7.2983,-7.2983,-7.2734,-7.2202,-7.1719,-7.1108,-7.0312,-6.8631,-6.7197,-6.5914,-6.4432,-6.4051,-6.4566,-6.4188,-6.4558,-6.5541,-6.5089,-6.4643,-6.4262,-6.3951,-6.3652,-6.3424,-6.3424,-6.3424,-6.3364,-6.2685,-6.2061,-6.1553,-6.1553,-6.1553,-6.1553,-6.1553,-6.1433,-6.1104,-6.0595,-6.0296,-6.0296,-5.9787,-5.9548,-5.9548,-5.9069,-5.9039,-5.9488,-5.9069,-5.9039,-5.9518,-5.9697,-5.9997,-6.0475,-6.0685,-6.0984,-6.1523,-6.2032,-6.2331,-6.2331,-6.278,-6.3137,-6.3019,-6.263,-6.251,-6.2989,-6.3077,-6.3107,-6.3107,-6.3049,-6.3137,-6.3137,-6.3137,-6.3137,-6.3137,-6.3137,-6.3137,-6.3137,-6.3137,-6.3194,-6.3309,-6.3252,-6.3309,-6.3652,-6.3823,-6.388,-6.388,-6.3963,-6.4331,-6.461,-6.4777,-6.4709,-6.4672,-6.421,-6.3749,-6.3502,-6.2548,-6.1871,-6.1532,-6.1101,-6.0855,-6.0794,-6.0794,-6.0794,-6.0794,-6.0794,-6.0794,-6.0794,-6.0794,-6.0794,-6.0845,-6.0897,-6.143,-8.0402,-7.917,-7.8432,-7.6954,-7.5076,-7.4214,-7.3506,-7.3014,-7.2983,-7.2983,-7.2797,-7.2214,-7.1384,-7.0465,-6.9548,-6.8603,-6.7664,-6.6875,-6.6511,-6.6511,-6.5936,-6.542,-6.5059,-6.4707,-6.4201,-6.3662,-6.3397,-6.3252,-6.3194,-6.3164,-6.3137,-6.3137,-6.3019,-6.2929,-6.2869,-6.2869,-6.2869,-6.2899,-6.2899,-6.2301,-6.1194,-6.1044,-6.1014,-6.1014,-6.0984,-6.0924,-6.0924,-6.0864,-6.0864,-6.0924,-6.0864,-6.0864,-6.0984,-6.1463,-6.1822,-6.1912,-6.245,-6.2839,-6.2869,-6.2959,-6.2959,-6.2989,-6.3077,-6.3137,-6.3137,-6.3077,-6.2989,-6.3079,-6.3137,-6.3137,-6.3137,-6.3137,-6.3137,-6.3137,-6.3137,-6.3137,-6.3137,-6.3137,-6.3137,-6.3137,-6.3137,-6.3137,-6.3137,-6.3137,-6.3137,-6.3252,-6.3481,-6.3595,-6.3595,-6.3906,-6.4183,-6.4351,-6.4437,-6.4273,-6.4009,-6.3903,-6.3287,-6.2333,-6.1933,-6.1532,-6.1132,-6.0917,-6.0794,-6.0794,-6.0794,-6.0794,-6.0794,-6.0794,-6.0794,-6.0794,-6.0794,-6.0794,-6.0794,-6.0794,-6.1226,-7.9694,-7.8401,-7.7724,-7.6246,-7.443,-7.3691,-7.3229,-7.2983,-7.2983,-7.2983,-7.2829,-7.1844,-7.1106,-7.0678,-6.9603,-6.8899,-6.8505,-6.7803,-6.7467,-6.7405,-6.6793,-6.6219,-6.5772,-6.5231,-6.4698,-6.4081,-6.3776,-6.3508,-6.3367,-6.3367,-6.3252,-6.3137,-6.3137,-6.3137,-6.3137,-6.3137,-6.3137,-6.3137,-6.3137,-6.281,-6.2361,-6.2271,-6.2271,-6.2271,-6.2271,-6.2271,-6.2271,-6.2271,-6.2271,-6.2271,-6.2271,-6.2271,-6.2271,-6.254,-6.266,-6.269,-6.2929,-6.3137,-6.3137,-6.3137,-6.3137,-6.3137,-6.3137,-6.3137,-6.3137,-6.3137,-6.3137,-6.3137,-6.3137,-6.3137,-6.3137,-6.3137,-6.3137,-6.3137,-6.3137,-6.3137,-6.3137,-6.3137,-6.3137,-6.3137,-6.3137,-6.3137,-6.3137,-6.3137,-6.3137,-6.3137,-6.3194,-6.3309,-6.3309,-6.3451,-6.3555,-6.3558,-6.3523,-6.3654,-6.3616,-6.3071,-6.2456,-6.1933,-6.1471,-6.104,-6.0917,-6.0794,-6.0794,-6.0794,-6.0794,-6.0794,-6.0794,-6.0794,-6.0794,-6.0794,-6.0794,-6.0794,-6.0794,-6.0794,-6.0949,-7.9016,-7.7693,-7.6646,-7.5353,-7.3968,-7.326,-7.2983,-7.2983,-7.2983,-7.2983,-7.2829,-7.1506,-7.089,-7.0705,-6.9415,-6.8713,-6.8592,-6.8163,-6.789,-6.7859,-6.7399,-6.6946,-6.6442,-6.5985,-6.5241,-6.4473,-6.4078,-6.3776,-6.3454,-6.3424,-6.3309,-6.3137,-6.3137,-6.3137,-6.3137,-6.3137,-6.3137,-6.3137,-6.3137,-6.3137,-6.3107,-6.3137,-6.3137,-6.3137,-6.3137,-6.3137,-6.3137,-6.3137,-6.3137,-6.3137,-6.3137,-6.3137,-6.3137,-6.3137,-6.3137,-6.3137,-6.3137,-6.3137,-6.3137,-6.3137,-6.3137,-6.3137,-6.3137,-6.3137,-6.3137,-6.3137,-6.3137,-6.3137,-6.3137,-6.3137,-6.3137,-6.3137,-6.3137,-6.3137,-6.3137,-6.3137,-6.3137,-6.3137,-6.3137,-6.3137,-6.3137,-6.3137,-6.3137,-6.3137,-6.3137,-6.3137,-6.3137,-6.3137,-6.3077,-6.3072,-6.3026,-6.288,-6.2743,-6.2683,-6.3087,-6.2579,-6.184,-6.1471,-6.1101,-6.0855,-6.0794,-6.0794,-6.0794,-6.0794,-6.0794,-6.0794,-6.0794,-6.0794,-6.0794,-6.0794,-6.0794,-6.0794,-6.0794,-6.0794,-6.0794,-7.8308,-7.6862,-7.4953,-7.4122,-7.3937,-7.3291,-7.2983,-7.2983,-7.2983,-7.2983,-7.2798,-7.1506,-7.089,-7.0798,-6.9237,-6.8298,-6.8059,-6.8089,-6.8058,-6.8028,-6.7997,-6.7455,-6.6522,-6.6461,-6.559,-6.4273,-6.4064,-6.3734,-6.3166,-6.3137,-6.3137,-6.3137,-6.3137,-6.3137,-6.3137,-6.3137,-6.3137,-6.3137,-6.3137,-6.3137,-6.3137,-6.3137,-6.3137,-6.3137,-6.3137,-6.3137,-6.3137,-6.3137,-6.3137,-6.3137,-6.3137,-6.3137,-6.3137,-6.3137,-6.3137,-6.3137,-6.3137,-6.3137,-6.3137,-6.3137,-6.3137,-6.3137,-6.3137,-6.3137,-6.3137,-6.3137,-6.3137,-6.3137,-6.3137,-6.3137,-6.3137,-6.3137,-6.3137,-6.3137,-6.3137,-6.3137,-6.3137,-6.3137,-6.3137,-6.3137,-6.3137,-6.3137,-6.3137,-6.3137,-6.3137,-6.3137,-6.3137,-6.3137,-6.3104,-6.2996,-6.2884,-6.2688,-6.2177,-6.1561,-6.1849,-6.1726,-6.1418,-6.1163,-6.0948,-6.0794,-6.0794,-6.0794,-6.0794,-6.0794,-6.0794,-6.0794,-6.0794,-6.0794,-6.0794,-6.0794,-6.0794,-6.0794,-6.0794,-6.0794,-6.0794,-7.7354,-7.5661,-7.4491,-7.3753,-7.3322,-7.3076,-7.2983,-7.2983,-7.2983,-7.2983,-7.2737,-7.1506,-7.089,-7.0828,-6.9355,-6.8654,-6.8595,-6.8595,-6.8595,-6.8595,-6.8595,-6.8295,-6.7694,-6.7121,-6.6218,-6.502,-6.4333,-6.3677,-6.3196,-6.3137,-6.3137,-6.3137,-6.3137,-6.3137,-6.3137,-6.3137,-6.3137,-6.3137,-6.3137,-6.3137,-6.3137,-6.3137,-6.3137,-6.3137,-6.3137,-6.3137,-6.3137,-6.3137,-6.3137,-6.3137,-6.3137,-6.3137,-6.3137,-6.3137,-6.3137,-6.3137,-6.3137,-6.3137,-6.3137,-6.3137,-6.3137,-6.3137,-6.3137,-6.3137,-6.3137,-6.3137,-6.3137,-6.3137,-6.3137,-6.3137,-6.3137,-6.3137,-6.3137,-6.3137,-6.3137,-6.3137,-6.3137,-6.3137,-6.3137,-6.3137,-6.3137,-6.3137,-6.3137,-6.3137,-6.3137,-6.3137,-6.3137,-6.3137,-6.3017,-6.2739,-6.2363,-6.2183,-6.1619,-6.1126,-6.1111,-6.1006,-6.0831,-6.0865,-6.0794,-6.0794,-6.0794,-6.0794,-6.0794,-6.0794,-6.0794,-6.0794,-6.0794,-6.0794,-6.0794,-6.0794,-6.0794,-6.0794,-6.0794,-6.0794,-6.0794,-7.6123,-7.4676,-7.3937,-7.3414,-7.3014,-7.2983,-7.2983,-7.2983,-7.2983,-7.2983,-7.2737,-7.1506,-7.089,-7.0675,-6.9355,-6.8772,-6.8772,-6.883,-6.8889,-6.8889,-6.8889,-6.8654,-6.8206,-6.7603,-6.679,-6.565,-6.4513,-6.3767,-6.3378,-6.3169,-6.3137,-6.3137,-6.3137,-6.3137,-6.3137,-6.3137,-6.3137,-6.3137,-6.3137,-6.3137,-6.3137,-6.3137,-6.3137,-6.3137,-6.3137,-6.3137,-6.3137,-6.3137,-6.3137,-6.3137,-6.3137,-6.3137,-6.3137,-6.3137,-6.3137,-6.3137,-6.3137,-6.3137,-6.3137,-6.3137,-6.3137,-6.3137,-6.3137,-6.3137,-6.3137,-6.3137,-6.3137,-6.3137,-6.3137,-6.3137,-6.3137,-6.3137,-6.3137,-6.3137,-6.3137,-6.3137,-6.3137,-6.3137,-6.3137,-6.3137,-6.3137,-6.3137,-6.3137,-6.3137,-6.3137,-6.3137,-6.3137,-6.3137,-6.2989,-6.2415,-6.1868,-6.1684,-6.1007,-6.0639,-6.0643,-6.0582,-6.0635,-6.0721,-6.0794,-6.0794,-6.0794,-6.0794,-6.0794,-6.0794,-6.0794,-6.0794,-6.0794,-6.0794,-6.0794,-6.0794,-6.0794,-6.0794,-6.0794,-6.0794,-6.0794,-7.4645,-7.3999,-7.326,-7.3045,-7.2983,-7.2983,-7.2983,-7.2983,-7.2983,-7.2983,-7.2798,-7.1506,-7.089,-7.0553,-6.9177,-6.8386,-6.8535,-6.8713,-6.8772,-6.883,-6.883,-6.8535,-6.7999,-6.7909,-6.7155,-6.5922,-6.4665,-6.4036,-6.3887,-6.3438,-6.3169,-6.3137,-6.3137,-6.3137,-6.3137,-6.3196,-6.3109,-6.3109,-6.3139,-6.3196,-6.3137,-6.3137,-6.3137,-6.3137,-6.3137,-6.3137,-6.3137,-6.3137,-6.3137,-6.3137,-6.3137,-6.3137,-6.3137,-6.3137,-6.3137,-6.3137,-6.3137,-6.3137,-6.3137,-6.3137,-6.3137,-6.3137,-6.3137,-6.3137,-6.3137,-6.3137,-6.3137,-6.3137,-6.3137,-6.3137,-6.3137,-6.3137,-6.3137,-6.3137,-6.3137,-6.3137,-6.3137,-6.3137,-6.3137,-6.3137,-6.3137,-6.3137,-6.3137,-6.3137,-6.3137,-6.3137,-6.3137,-6.3137,-6.3017,-6.2202,-6.1614,-6.1308,-6.0609,-6.0031,-6.0122,-6.025,-6.046,-6.0638,-6.0742,-6.0794,-6.0794,-6.0794,-6.0794,-6.0794,-6.0794,-6.0794,-6.0794,-6.0794,-6.0794,-6.0794,-6.0794,-6.0794,-6.0794,-6.0794,-6.0794,-7.4184,-7.3907,-7.326,-7.2983,-7.2983,-7.2983,-7.2983,-7.2983,-7.2983,-7.2983,-7.2737,-7.1536,-7.089,-7.0522,-6.9177,-6.8386,-6.8386,-6.8298,-6.8269,-6.8269,-6.8329,-6.8209,-6.797,-6.7789,-6.7065,-6.6012,-6.5114,-6.4455,-6.4066,-6.3797,-6.3528,-6.3169,-6.3166,-6.3137,-6.3169,-6.3468,-6.3528,-6.3169,-6.3498,-6.3528,-6.3196,-6.3137,-6.3137,-6.3137,-6.3137,-6.3137,-6.3137,-6.3137,-6.3137,-6.3137,-6.3137,-6.3137,-6.3137,-6.3137,-6.3137,-6.3137,-6.3137,-6.3137,-6.3137,-6.3137,-6.3137,-6.3137,-6.3137,-6.3137,-6.3137,-6.3137,-6.3137,-6.3137,-6.3137,-6.3137,-6.3137,-6.3137,-6.3137,-6.3137,-6.3137,-6.3137,-6.3137,-6.3137,-6.3137,-6.3137,-6.3137,-6.3137,-6.3137,-6.3137,-6.3137,-6.3137,-6.3137,-6.3137,-6.2957,-6.2055,-6.1357,-6.1343,-6.0373,-5.9613,-5.9849,-6.0092,-6.0272,-6.0481,-6.0638,-6.0794,-6.0794,-6.0794,-6.0794,-6.0794,-6.0794,-6.0794,-6.0794,-6.0794,-6.0794,-6.0794,-6.0794,-6.0794,-6.0794,-6.0794,-6.0794,-7.3845,-7.3568,-7.3168,-7.2983,-7.2983,-7.2983,-7.2983,-7.2983,-7.2983,-7.2983,-7.2706,-7.1536,-7.089,-7.0553,-6.9117,-6.8388,-6.8238,-6.797,-6.7729,-6.7729,-6.791,-6.791,-6.7789,-6.7457,-6.7063,-6.6401,-6.5712,-6.5173,-6.4755,-6.4485,-6.4186,-6.3857,-6.3797,-6.3827,-6.3827,-6.4156,-6.4156,-6.3917,-6.4186,-6.4066,-6.3558,-6.3408,-6.3318,-6.3166,-6.3137,-6.3137,-6.3137,-6.3137,-6.3137,-6.3137,-6.3137,-6.3137,-6.3137,-6.3137,-6.3137,-6.3137,-6.3137,-6.3137,-6.3137,-6.3137,-6.3137,-6.3137,-6.3137,-6.3137,-6.3137,-6.3137,-6.3137,-6.3137,-6.3137,-6.3137,-6.3137,-6.3137,-6.3137,-6.3137,-6.3137,-6.3137,-6.3137,-6.3137,-6.3137,-6.3137,-6.3137,-6.3137,-6.3137,-6.3137,-6.3137,-6.3137,-6.3137,-6.3137,-6.2867,-6.1942,-6.1571,-6.1027,-6.0126,-5.9747,-5.975,-5.9902,-6.0061,-6.0324,-6.0564,-6.069,-6.0794,-6.0794,-6.0794,-6.0794,-6.0794,-6.0794,-6.0794,-6.0794,-6.0794,-6.0794,-6.0794,-6.0794,-6.0794,-6.0794,-6.0794,-7.3568,-7.3014,-7.2983,-7.2983,-7.2983,-7.2983,-7.2983,-7.2983,-7.2983,-7.2983,-7.2675,-7.1506,-7.089,-7.0553,-6.9117,-6.8298,-6.797,-6.7729,-6.7365,-6.7304,-6.7548,-6.7729,-6.7487,-6.7182,-6.7,-6.6819,-6.634,-6.6011,-6.5742,-6.5293,-6.5054,-6.4874,-6.4814,-6.4964,-6.4874,-6.5024,-6.4994,-6.4874,-6.4934,-6.4725,-6.4096,-6.4066,-6.3767,-6.3228,-6.3199,-6.3169,-6.3079,-6.3137,-6.3137,-6.3137,-6.3137,-6.3137,-6.3137,-6.3137,-6.3137,-6.3137,-6.3137,-6.3137,-6.3137,-6.3137,-6.3137,-6.3137,-6.3137,-6.3137,-6.3137,-6.3137,-6.3137,-6.3137,-6.3137,-6.3137,-6.3137,-6.3137,-6.3137,-6.3137,-6.3137,-6.3137,-6.3137,-6.3137,-6.3137,-6.3137,-6.3137,-6.3137,-6.3137,-6.3137,-6.3137,-6.3137,-6.3137,-6.3137,-6.281,-6.2121,-6.1343,-6.0595,-5.9962,-5.9561,-5.9476,-5.9636,-5.9796,-5.9955,-6.0302,-6.0481,-6.0742,-6.0742,-6.0794,-6.0794,-6.0794,-6.0794,-6.0794,-6.0794,-6.0794,-6.0794,-6.0794,-6.0794,-6.0794,-6.0794,-6.0794,-7.3137,-7.2983,-7.2983,-7.2983,-7.2983,-7.2983,-7.2983,-7.2983,-7.2983,-7.2983,-7.2675,-7.1506,-7.089,-7.0676,-6.9148,-6.8238,-6.797,-6.7669,-6.7304,-6.703,-6.7182,-6.7243,-6.7121,-6.706,-6.6999,-6.6939,-6.6759,-6.649,-6.6041,-6.5832,-6.5533,-6.5024,-6.5144,-6.5084,-6.5054,-6.5533,-6.5443,-6.5173,-6.5562,-6.5443,-6.4874,-6.4755,-6.4425,-6.3827,-6.3767,-6.3528,-6.3139,-6.3137,-6.3137,-6.3137,-6.3137,-6.3137,-6.3137,-6.3137,-6.3137,-6.3137,-6.3137,-6.3137,-6.3137,-6.3137,-6.3137,-6.3137,-6.3137,-6.3137,-6.3137,-6.3137,-6.3137,-6.3137,-6.3137,-6.3137,-6.3137,-6.3137,-6.3137,-6.3137,-6.3137,-6.3137,-6.3137,-6.3137,-6.3137,-6.3137,-6.3137,-6.3137,-6.3137,-6.3137,-6.3137,-6.3137,-6.3137,-6.3137,-6.281,-6.2032,-6.1104,-6.0715,-6.0116,-5.9542,-5.9261,-5.9422,-5.9529,-5.9636,-5.9933,-6.025,-6.0481,-6.069,-6.0742,-6.0794,-6.0794,-6.0794,-6.0794,-6.0794,-6.0794,-6.0794,-6.0794,-6.0794,-6.0794,-6.0794,-6.0794,-7.2983,-7.2983,-7.2983,-7.2983,-7.2983,-7.2983,-7.2983,-7.2983,-7.2983,-7.2983,-7.2675,-7.1414,-7.0739,-7.0525,-6.8968,-6.809,-6.7789,-6.7608,-6.7365,-6.706,-6.6999,-6.6999,-6.6999,-6.6999,-6.6999,-6.6999,-6.6999,-6.6789,-6.649,-6.64,-6.6191,-6.5981,-6.5862,-6.5832,-6.5922,-6.6161,-6.6251,-6.5981,-6.6221,-6.6101,-6.5503,-6.5443,-6.5084,-6.4575,-6.4425,-6.4126,-6.3558,-6.3228,-6.3137,-6.3137,-6.3137,-6.3137,-6.3137,-6.3137,-6.3137,-6.3137,-6.3137,-6.3137,-6.3137,-6.3137,-6.3137,-6.3137,-6.3137,-6.3137,-6.3137,-6.3137,-6.3137,-6.3137,-6.3137,-6.3137,-6.3137,-6.3137,-6.3137,-6.3137,-6.3137,-6.3137,-6.3137,-6.3137,-6.3137,-6.3137,-6.3137,-6.3137,-6.3137,-6.3137,-6.3137,-6.3137,-6.3137,-6.3137,-6.2987,-6.1882,-6.1074,-6.0775,-6.0146,-5.9398,-5.9153,-5.9261,-5.9315,-5.9422,-5.9636,-5.9933,-6.0219,-6.0534,-6.0742,-6.0794,-6.0794,-6.0794,-6.0794,-6.0794,-6.0794,-6.0794,-6.0794,-6.0794,-6.0794,-6.0794,-6.0794,-7.2983,-7.2983,-7.2983,-7.2983,-7.2983,-7.2983,-7.2983,-7.2983,-7.2983,-7.2922,-7.2428,-7.12,-7.0465,-7.0282,-6.8697,-6.785,-6.7548,-6.7548,-6.7304,-6.7121,-6.6999,-6.6999,-6.6999,-6.6999,-6.6999,-6.6999,-6.6999,-6.6969,-6.6879,-6.6909,-6.6969,-6.6789,-6.6849,-6.6939,-6.6759,-6.6909,-6.6969,-6.6849,-6.6819,-6.664,-6.6191,-6.6071,-6.5772,-6.5203,-6.4934,-6.4665,-6.4126,-6.3677,-6.3348,-6.3199,-6.3109,-6.3137,-6.3137,-6.3137,-6.3137,-6.3137,-6.3137,-6.3137,-6.3137,-6.3137,-6.3137,-6.3137,-6.3137,-6.3137,-6.3137,-6.3137,-6.3137,-6.3137,-6.3137,-6.3137,-6.3137,-6.3137,-6.3137,-6.3137,-6.3137,-6.3137,-6.3137,-6.3137,-6.3137,-6.3137,-6.3137,-6.3137,-6.3137,-6.3137,-6.3137,-6.3137,-6.3137,-6.3137,-6.275,-6.1882,-6.1313,-6.1044,-6.0206,-5.9219,-5.9099,-5.9099,-5.9153,-5.9207,-5.9422,-5.9743,-6.0061,-6.0377,-6.0638,-6.0742,-6.0794,-6.0794,-6.0794,-6.0794,-6.0794,-6.0794,-6.0794,-6.0794,-6.0794,-6.0794,-6.0794,-7.2983,-7.2983,-7.2983,-7.2983,-7.2983,-7.2983,-7.2983,-7.2983,-7.2983,-7.2582,-7.1782,-7.0863,-7.0068,-6.9276,-6.8395,-6.785,-6.7487,-6.7487,-6.7304,-6.706,-6.6999,-6.6999,-6.6999,-6.6999,-6.6999,-6.6999,-6.6999,-6.6999,-6.6999,-6.6999,-6.6999,-6.6999,-6.6999,-6.6999,-6.6999,-6.6999,-6.6999,-6.6999,-6.6999,-6.6909,-6.6789,-6.67,-6.643,-6.5832,-6.5323,-6.4994,-6.4844,-6.4695,-6.4366,-6.3857,-6.3378,-6.3139,-6.3137,-6.3137,-6.3137,-6.3137,-6.3137,-6.3137,-6.3137,-6.3137,-6.3137,-6.3137,-6.3137,-6.3137,-6.3137,-6.3137,-6.3137,-6.3137,-6.3137,-6.3137,-6.3137,-6.3137,-6.3137,-6.3137,-6.3137,-6.3137,-6.3137,-6.3137,-6.3137,-6.3137,-6.3137,-6.3137,-6.3137,-6.3137,-6.3137,-6.3137,-6.3137,-6.3137,-6.251,-6.1822,-6.1343,-6.0954,-6.0057,-5.9129,-5.9099,-5.9099,-5.9099,-5.9099,-5.9315,-5.9476,-5.9849,-6.0114,-6.0377,-6.0586,-6.0794,-6.0794,-6.0794,-6.0794,-6.0794,-6.0794,-6.0794,-6.0794,-6.0794,-6.0794,-6.0794,-7.2521,-7.2552,-7.286,-7.2983,-7.2983,-7.2983,-7.2983,-7.2983,-7.2796,-7.2273,-7.1413,-7.0494,-6.9579,-6.8728,-6.794,-6.7426,-6.7304,-6.7243,-6.7182,-6.6999,-6.6999,-6.6999,-6.6999,-6.6999,-6.6999,-6.6999,-6.6999,-6.6999,-6.6999,-6.6999,-6.6999,-6.6999,-6.6999,-6.6999,-6.6999,-6.6999,-6.6999,-6.6999,-6.6999,-6.6999,-6.6999,-6.6969,-6.6909,-6.643,-6.5862,-6.5473,-6.5473,-6.5144,-6.4844,-6.4425,-6.3887,-6.3348,-6.3109,-6.3137,-6.3137,-6.3137,-6.3137,-6.3137,-6.3137,-6.3137,-6.3137,-6.3137,-6.3137,-6.3137,-6.3137,-6.3137,-6.3137,-6.3137,-6.3137,-6.3137,-6.3137,-6.3137,-6.3137,-6.3137,-6.3137,-6.3137,-6.3137,-6.3137,-6.3137,-6.3137,-6.3137,-6.3137,-6.3137,-6.3137,-6.3137,-6.3137,-6.3079,-6.3019,-6.2361,-6.1672,-6.1044,-6.0505,-5.9697,-5.9159,-5.9129,-5.9099,-5.9099,-5.9099,-5.9153,-5.9369,-5.9583,-5.9849,-6.0114,-6.0324,-6.0638,-6.0742,-6.0742,-6.0742,-6.0794,-6.0794,-6.0794,-6.0794,-6.0794,-6.0794,-6.0794,-7.1967,-7.2029,-7.2706,-7.2983,-7.2921,-7.2983,-7.2921,-7.2796,-7.2486,-7.1871,-7.1074,-6.9846,-6.8905,-6.8148,-6.7452,-6.6999,-6.6999,-6.6999,-6.6999,-6.6999,-6.6999,-6.6999,-6.6999,-6.6999,-6.6999,-6.6999,-6.6999,-6.6999,-6.6999,-6.6999,-6.6999,-6.6999,-6.6999,-6.6999,-6.6999,-6.6999,-6.6999,-6.6999,-6.6999,-6.6999,-6.6999,-6.6999,-6.6969,-6.6819,-6.649,-6.6161,-6.6071,-6.5742,-6.5323,-6.5084,-6.4635,-6.3977,-6.3378,-6.3109,-6.3137,-6.3137,-6.3137,-6.3137,-6.3137,-6.3137,-6.3137,-6.3137,-6.3137,-6.3137,-6.3137,-6.3137,-6.3137,-6.3137,-6.3137,-6.3137,-6.3137,-6.3137,-6.3137,-6.3137,-6.3137,-6.3137,-6.3137,-6.3137,-6.3137,-6.3137,-6.3137,-6.3137,-6.3137,-6.3137,-6.3137,-6.3137,-6.3079,-6.2839,-6.2151,-6.1523,-6.0924,-6.0296,-5.9578,-5.9159,-5.9129,-5.9099,-5.9099,-5.9099,-5.9099,-5.9207,-5.9369,-5.9476,-5.9743,-6.0167,-6.0407,-6.0534,-6.0638,-6.0742,-6.0742,-6.0794,-6.0794,-6.0794,-6.0794,-6.0794,-6.0794,-7.1967,-7.2029,-7.2706,-7.2859,-7.264,-7.2859,-7.261,-7.2139,-7.1778,-7.0919,-6.9846,-6.8996,-6.8208,-6.7391,-6.715,-6.6999,-6.6999,-6.6999,-6.6999,-6.6999,-6.6999,-6.6999,-6.6999,-6.6999,-6.6999,-6.6999,-6.6999,-6.6999,-6.6999,-6.6999,-6.6999,-6.6999,-6.6999,-6.6999,-6.6999,-6.6999,-6.6999,-6.6999,-6.6999,-6.6999,-6.6999,-6.6999,-6.6999,-6.6969,-6.6789,-6.6759,-6.6759,-6.667,-6.643,-6.5922,-6.5742,-6.4994,-6.4096,-6.3438,-6.3139,-6.3137,-6.3137,-6.3137,-6.3137,-6.3137,-6.3137,-6.3137,-6.3137,-6.3137,-6.3137,-6.3137,-6.3137,-6.3137,-6.3137,-6.3137,-6.3137,-6.3137,-6.3137,-6.3137,-6.3137,-6.3137,-6.3137,-6.3137,-6.3137,-6.3137,-6.3137,-6.3137,-6.3137,-6.3137,-6.3137,-6.3137,-6.3137,-6.266,-6.1972,-6.1403,-6.0835,-6.0206,-5.9518,-5.9279,-5.9099,-5.9099,-5.9099,-5.9099,-5.9099,-5.9099,-5.9207,-5.9153,-5.9369,-5.9796,-6.0114,-6.0324,-6.0481,-6.0638,-6.0742,-6.0794,-6.0794,-6.0794,-6.0794,-6.0794,-6.0794,-7.1444,-7.1536,-7.2336,-7.2457,-7.2056,-7.1933,-7.1562,-7.0977,-7.058,-6.994,-6.9056,-6.8448,-6.7783,-6.718,-6.6999,-6.6999,-6.6999,-6.6999,-6.6999,-6.6999,-6.6999,-6.6999,-6.6999,-6.6999,-6.6999,-6.6999,-6.6999,-6.6999,-6.6999,-6.6999,-6.6999,-6.6999,-6.6999,-6.6999,-6.6999,-6.6999,-6.6999,-6.6999,-6.6999,-6.6999,-6.6999,-6.6999,-6.6999,-6.6999,-6.6999,-6.6999,-6.6999,-6.6999,-6.6849,-6.652,-6.6191,-6.5682,-6.4964,-6.4156,-6.3408,-6.3169,-6.3137,-6.3137,-6.3137,-6.3137,-6.3137,-6.3137,-6.3137,-6.3137,-6.3137,-6.3137,-6.3137,-6.3137,-6.3137,-6.3137,-6.3137,-6.3137,-6.3137,-6.3137,-6.3137,-6.3137,-6.3137,-6.3137,-6.3137,-6.3137,-6.3137,-6.3137,-6.3137,-6.3137,-6.3137,-6.3137,-6.3137,-6.251,-6.1792,-6.1224,-6.0685,-5.9937,-5.9338,-5.9249,-5.9099,-5.9099,-5.9099,-5.9099,-5.9099,-5.9099,-5.9099,-5.9099,-5.9153,-5.9369,-5.969,-6.0008,-6.0324,-6.0534,-6.0638,-6.0742,-6.0742,-6.0794,-6.0794,-6.0794,-6.0794,-7.086,-7.0892,-7.2027,-7.2023,-7.1349,-7.11,-7.0548,-6.9848,-6.945,-6.8994,-6.8388,-6.7993,-6.7509,-6.7089,-6.6999,-6.6999,-6.6999,-6.6999,-6.6999,-6.6999,-6.6999,-6.6999,-6.6999,-6.6999,-6.6999,-6.6999,-6.6999,-6.6999,-6.6999,-6.6999,-6.6999,-6.6999,-6.6999,-6.6999,-6.6999,-6.6999,-6.6999,-6.6999,-6.6999,-6.6999,-6.6999,-6.6999,-6.6999,-6.6999,-6.6999,-6.6999,-6.6999,-6.6999,-6.6999,-6.6789,-6.652,-6.6131,-6.5862,-6.4994,-6.4066,-6.3408,-6.3169,-6.3137,-6.3137,-6.3137,-6.3137,-6.3137,-6.3137,-6.3137,-6.3137,-6.3137,-6.3137,-6.3137,-6.3137,-6.3137,-6.3137,-6.3137,-6.3137,-6.3137,-6.3137,-6.3137,-6.3137,-6.3137,-6.3137,-6.3137,-6.3137,-6.3137,-6.3137,-6.3137,-6.3137,-6.2899,-6.2899,-6.2211,-6.1523,-6.1014,-6.0416,-5.9638,-5.9159,-5.9159,-5.9099,-5.9099,-5.9099,-5.9099,-5.9099,-5.9099,-5.9099,-5.9099,-5.9153,-5.9207,-5.9315,-5.9636,-6.0008,-6.0324,-6.0429,-6.0534,-6.0638,-6.0742,-6.0794,-6.0794,-6.0794,-7.0496,-7.0557,-7.1902,-7.1772,-7.0724,-7.0759,-7.0237,-6.9073,-6.8751,-6.8448,-6.7991,-6.7449,-6.7119,-6.6999,-6.6999,-6.6999,-6.6999,-6.6999,-6.6999,-6.6999,-6.6999,-6.6999,-6.6999,-6.6999,-6.6999,-6.6999,-6.6999,-6.6999,-6.6999,-6.6999,-6.6999,-6.6999,-6.6999,-6.6999,-6.6999,-6.6999,-6.6999,-6.6999,-6.6999,-6.6999,-6.6999,-6.6999,-6.6999,-6.6999,-6.6999,-6.6999,-6.6999,-6.6999,-6.6999,-6.6969,-6.6909,-6.658,-6.6101,-6.5922,-6.5054,-6.4156,-6.3438,-6.3137,-6.3166,-6.3137,-6.3137,-6.3137,-6.3137,-6.3137,-6.3137,-6.3137,-6.3137,-6.3137,-6.3137,-6.3137,-6.3137,-6.3137,-6.3137,-6.3137,-6.3137,-6.3137,-6.3137,-6.3137,-6.3137,-6.3137,-6.3137,-6.3137,-6.3137,-6.3137,-6.3107,-6.2869,-6.257,-6.1942,-6.1224,-6.0655,-6.0356,-5.9668,-5.9428,-5.9428,-5.9697,-5.9608,-5.9398,-5.9338,-5.9249,-5.9219,-5.9099,-5.9099,-5.9099,-5.9153,-5.9207,-5.9261,-5.9583,-5.9902,-6.0114,-6.0324,-6.0481,-6.0638,-6.0742,-6.0794,-6.0742,-6.9792,-6.9702,-7.0854,-7.0605,-6.9478,-6.9325,-6.8777,-6.7959,-6.7753,-6.7541,-6.7449,-6.7148,-6.6999,-6.6999,-6.6999,-6.6999,-6.6999,-6.6999,-6.6999,-6.6999,-6.6999,-6.6999,-6.6999,-6.6999,-6.6999,-6.6999,-6.6999,-6.6999,-6.6999,-6.6999,-6.6999,-6.6999,-6.6999,-6.6999,-6.6999,-6.6999,-6.6999,-6.6999,-6.6999,-6.6999,-6.6999,-6.6999,-6.6999,-6.6999,-6.6999,-6.6999,-6.6999,-6.6999,-6.6999,-6.6999,-6.6999,-6.6879,-6.652,-6.6221,-6.5652,-6.5293,-6.4545,-6.3887,-6.3228,-6.3196,-6.3166,-6.3137,-6.3137,-6.3137,-6.3137,-6.3137,-6.3137,-6.3137,-6.3137,-6.3137,-6.3137,-6.3137,-6.3137,-6.3137,-6.3137,-6.3137,-6.3137,-6.3137,-6.3137,-6.3137,-6.3137,-6.3137,-6.3137,-6.3137,-6.3137,-6.2959,-6.269,-6.2151,-6.1164,-6.0146,-5.9967,-5.9877,-5.9817,-5.9907,-6.0266,-6.0446,-6.0116,-5.9967,-5.9757,-5.9608,-5.9189,-5.9099,-5.9099,-5.9099,-5.9153,-5.9207,-5.9315,-5.9529,-5.9796,-6.0061,-6.0302,-6.0407,-6.0429,-6.0534,-6.0481,-6.8905,-6.8636,-6.9931,-6.9655,-6.8388,-6.8081,-6.7689,-6.7029,-6.7029,-6.6999,-6.6999,-6.6999,-6.6999,-6.6999,-6.6999,-6.6999,-6.6999,-6.6999,-6.6999,-6.6999,-6.6999,-6.6999,-6.6999,-6.6999,-6.6999,-6.6999,-6.6999,-6.6999,-6.6999,-6.6999,-6.6999,-6.6999,-6.6999,-6.6999,-6.6999,-6.6999,-6.6999,-6.6999,-6.6999,-6.6999,-6.6999,-6.6999,-6.6999,-6.6999,-6.6999,-6.6999,-6.6999,-6.6999,-6.6999,-6.6999,-6.6999,-6.6969,-6.6849,-6.655,-6.6191,-6.5862,-6.5353,-6.4755,-6.3977,-6.3558,-6.3258,-6.3139,-6.3137,-6.3137,-6.3137,-6.3137,-6.3137,-6.3137,-6.3137,-6.3137,-6.3137,-6.3137,-6.3137,-6.3137,-6.3137,-6.3137,-6.3137,-6.3137,-6.3137,-6.3137,-6.3137,-6.3137,-6.3137,-6.3137,-6.3107,-6.3049,-6.272,-6.2271,-6.1343,-6.0176,-6.0176,-6.0326,-6.0386,-6.0475,-6.0715,-6.0924,-6.0685,-6.0565,-6.0356,-5.9997,-5.9608,-5.9249,-5.9099,-5.9099,-5.9099,-5.9153,-5.9207,-5.9369,-5.9476,-5.9743,-5.9955,-6.0039,-6.0144,-6.0197,-6.0333,-6.7719,-6.7331,-6.9532,-6.9469,-6.7989,-6.8019,-6.7629,-6.6999,-6.6999,-6.6999,-6.6999,-6.6999,-6.6999,-6.6999,-6.6999,-6.6999,-6.6999,-6.6999,-6.6999,-6.6999,-6.6999,-6.6999,-6.6999,-6.6999,-6.6999,-6.6999,-6.6999,-6.6999,-6.6999,-6.6999,-6.6999,-6.6999,-6.6999,-6.6999,-6.6999,-6.6999,-6.6999,-6.6999,-6.6999,-6.6999,-6.6999,-6.6999,-6.6999,-6.6999,-6.6999,-6.6999,-6.6999,-6.6999,-6.6999,-6.6999,-6.6999,-6.6999,-6.6939,-6.6849,-6.655,-6.6221,-6.6071,-6.5503,-6.4874,-6.4216,-6.3677,-6.3288,-6.3196,-6.3169,-6.3079,-6.3137,-6.3137,-6.3137,-6.3137,-6.3137,-6.3137,-6.3137,-6.3137,-6.3137,-6.3137,-6.3137,-6.3137,-6.3137,-6.3137,-6.3137,-6.3137,-6.3137,-6.3137,-6.3137,-6.3137,-6.3107,-6.257,-6.2121,-6.1732,-6.0835,-6.0894,-6.0984,-6.1044,-6.1074,-6.1134,-6.1224,-6.1373,-6.1164,-6.0864,-6.0446,-5.9997,-5.9668,-5.9338,-5.9099,-5.9099,-5.9099,-5.9099,-5.9207,-5.9315,-5.9476,-5.9613,-5.9834,-6.0008,-6.0152,-6.0259,-6.7597,-6.7119,-6.8473,-6.832,-6.7358,-6.7358,-6.7208,-6.7029,-6.6999,-6.6999,-6.6999,-6.6999,-6.6999,-6.6999,-6.6999,-6.6999,-6.6999,-6.6999,-6.6999,-6.6999,-6.6999,-6.6999,-6.6999,-6.6999,-6.6999,-6.6999,-6.6999,-6.6999,-6.6999,-6.6999,-6.6999,-6.6999,-6.6999,-6.6999,-6.6999,-6.6999,-6.6999,-6.6999,-6.6999,-6.6999,-6.6999,-6.6999,-6.6999,-6.6999,-6.6999,-6.6999,-6.6999,-6.6999,-6.6999,-6.6999,-6.6999,-6.6999,-6.6999,-6.6999,-6.6849,-6.6549,-6.6489,-6.6221,-6.5592,-6.4934,-6.4366,-6.3827,-6.3617,-6.3498,-6.3228,-6.3109,-6.3137,-6.3137,-6.3079,-6.3021,-6.3137,-6.3137,-6.3137,-6.3137,-6.3137,-6.3137,-6.3137,-6.3137,-6.3137,-6.3137,-6.3137,-6.3137,-6.3137,-6.3137,-6.3137,-6.3077,-6.248,-6.2002,-6.1762,-6.1553,-6.1583,-6.1672,-6.1702,-6.1912,-6.2002,-6.2061,-6.2121,-6.1792,-6.1403,-6.0894,-6.0416,-6.0057,-5.9727,-5.9428,-5.9099,-5.9099,-5.9099,-5.9099,-5.9153,-5.9315,-5.9513,-5.9764,-5.9915,-6.0126,-6.0337,-6.7418,-6.7059,-6.7478,-6.7418,-6.7029,-6.6999,-6.6999,-6.6999,-6.6999,-6.6999,-6.6999,-6.6999,-6.6999,-6.6999,-6.6999,-6.6999,-6.6999,-6.6999,-6.6999,-6.6999,-6.6999,-6.6999,-6.6999,-6.6999,-6.6999,-6.6999,-6.6999,-6.6999,-6.6999,-6.6999,-6.6999,-6.6999,-6.6999,-6.6999,-6.6999,-6.6999,-6.6999,-6.6999,-6.6999,-6.6999,-6.6999,-6.6999,-6.6999,-6.6999,-6.6999,-6.6999,-6.6999,-6.6999,-6.6999,-6.6999,-6.6999,-6.6999,-6.6999,-6.6999,-6.6846,-6.6876,-6.6816,-6.6668,-6.6008,-6.5353,-6.4815,-6.4395,-6.4306,-6.3977,-6.3558,-6.3348,-6.3378,-6.3079,-6.2963,-6.2905,-6.2963,-6.2905,-6.2963,-6.2963,-6.3079,-6.3137,-6.3137,-6.3137,-6.3137,-6.3137,-6.3079,-6.3079,-6.3079,-6.3079,-6.3079,-6.3079,-6.2869,-6.254,-6.245,-6.2271,-6.2181,-6.2271,-6.2391,-6.266,-6.2929,-6.272,-6.254,-6.2391,-6.1972,-6.1373,-6.0894,-6.0475,-5.9907,-5.9338,-5.9099,-5.9099,-5.9099,-5.9099,-5.9099,-5.9099,-5.9471,-5.985,-6.009,-6.0306,-6.0726,-6.7029,-6.6999,-6.7029,-6.7029,-6.6999,-6.6999,-6.6999,-6.6999,-6.6999,-6.6999,-6.6999,-6.6999,-6.6999,-6.6999,-6.6999,-6.6999,-6.6999,-6.6999,-6.6999,-6.6999,-6.6999,-6.6999,-6.6999,-6.6999,-6.6999,-6.6999,-6.6999,-6.6999,-6.6999,-6.6999,-6.6999,-6.6814,-6.6723,-6.6814,-6.6937,-6.6999,-6.6999,-6.6999,-6.6999,-6.6999,-6.6999,-6.6999,-6.6999,-6.6999,-6.6999,-6.6999,-6.6785,-6.6785,-6.6785,-6.6785,-6.6785,-6.6876,-6.6999,-6.6999,-6.6785,-6.6352,-6.6661,-6.657,-6.6017,-6.535,-6.5114,-6.4994,-6.4994,-6.4635,-6.4126,-6.3887,-6.3617,-6.3169,-6.2643,-6.2585,-6.2585,-6.2585,-6.2585,-6.2701,-6.2817,-6.2701,-6.2643,-6.2905,-6.2847,-6.2643,-6.2817,-6.3079,-6.3079,-6.3021,-6.3021,-6.3079,-6.3079,-6.3019,-6.2899,-6.281,-6.266,-6.266,-6.278,-6.2869,-6.3019,-6.3049,-6.2959,-6.2839,-6.254,-6.1942,-6.1283,-6.0745,-6.0116,-5.9368,-5.9099,-5.9099,-5.9099,-5.9099,-5.9189,-5.9338,-5.9727,-6.0052,-6.0321,-6.0681,-6.116,-6.6999,-6.6999,-6.6999,-6.6999,-6.6999,-6.6999,-6.6999,-6.6999,-6.6999,-6.6999,-6.6999,-6.6999,-6.6999,-6.6999,-6.6999,-6.6999,-6.6999,-6.6999,-6.6999,-6.6999,-6.6999,-6.6999,-6.6999,-6.6999,-6.6999,-6.6999,-6.6999,-6.6999,-6.6999,-6.6937,-6.66,-6.6414,-6.6103,-6.6165,-6.6753,-6.6999,-6.6999,-6.6999,-6.6999,-6.6999,-6.6999,-6.6999,-6.6937,-6.6937,-6.6937,-6.6785,-6.6476,-6.6476,-6.6476,-6.6476,-6.6476,-6.66,-6.6876,-6.6999,-6.6846,-6.6476,-6.66,-6.604,-6.5698,-6.5385,-6.5705,-6.562,-6.5622,-6.5173,-6.4246,-6.4036,-6.3647,-6.3084,-6.2322,-6.2439,-6.2847,-6.1969,-6.1791,-6.2087,-6.2087,-6.1762,-6.1703,-6.2145,-6.2292,-6.1969,-6.1969,-6.2028,-6.2087,-6.2321,-6.238,-6.2526,-6.2526,-6.2905,-6.2874,-6.2989,-6.2929,-6.2929,-6.3047,-6.3077,-6.3079,-6.2963,-6.2905,-6.2844,-6.2782,-6.257,-6.1882,-6.1104,-6.0475,-5.9817,-5.9428,-5.9099,-5.9129,-5.9135,-5.9428,-5.9668,-6.0091,-6.0629,-6.1134,-6.1523,-6.1942,-6.6999,-6.6999,-6.6999,-6.6999,-6.6999,-6.6999,-6.6999,-6.6999,-6.6999,-6.6999,-6.6999,-6.6999,-6.6999,-6.6999,-6.6999,-6.6999,-6.6999,-6.6999,-6.6999,-6.6999,-6.6999,-6.6999,-6.6999,-6.6999,-6.6999,-6.6999,-6.6999,-6.6937,-6.66,-6.66,-6.6228,-6.5664,-6.5222,-6.5538,-6.6103,-6.6352,-6.6753,-6.6814,-6.6814,-6.66,-6.66,-6.6629,-6.6629,-6.6661,-6.6785,-6.6785,-6.6414,-6.6165,-6.6103,-6.6103,-6.6165,-6.629,-6.6723,-6.6937,-6.66,-6.6073,-6.5227,-6.4938,-6.5065,-6.5319,-6.55,-6.5542,-6.5975,-6.5681,-6.4636,-6.4189,-6.3713,-6.3031,-6.2115,-6.1998,-6.2087,-6.1166,-6.1106,-6.1375,-6.1405,-6.1046,-6.1106,-6.1554,-6.1613,-6.1286,-6.1166,-6.1106,-6.1046,-6.1405,-6.1643,-6.1762,-6.191,-6.2263,-6.2643,-6.2701,-6.2701,-6.2701,-6.2643,-6.2468,-6.2526,-6.2643,-6.2643,-6.2701,-6.2728,-6.2637,-6.2181,-6.1343,-6.0805,-6.0206,-5.9553,-5.9105,-5.908,-5.92,-5.9453,-5.9904,-6.0466,-6.1118,-6.1945,-6.2244,-6.2368,-6.6999,-6.6999,-6.6999,-6.6999,-6.6999,-6.6909,-6.6939,-6.6999,-6.6999,-6.6999,-6.6999,-6.6999,-6.6999,-6.6999,-6.6999,-6.6999,-6.6999,-6.6999,-6.6999,-6.6999,-6.6999,-6.6999,-6.6999,-6.6999,-6.6999,-6.6999,-6.6876,-6.6538,-6.6103,-6.5761,-6.5383,-6.5031,-6.4711,-6.4839,-6.5158,-6.5538,-6.604,-6.6228,-6.6165,-6.5978,-6.5978,-6.5823,-6.5948,-6.6136,-6.6476,-6.6538,-6.6198,-6.5886,-6.5948,-6.6011,-6.6011,-6.629,-6.66,-6.6846,-6.5635,-6.4396,-6.3357,-6.3684,-6.4296,-6.4518,-6.4618,-6.47,-6.5922,-6.5784,-6.504,-6.4028,-6.3381,-6.2493,-6.1483,-6.1191,-6.0837,-6.0624,-6.0409,-6.0563,-6.0745,-6.0684,-6.0684,-6.0805,-6.0716,-6.0595,-6.0534,-6.0474,-6.0169,-6.0413,-6.0566,-6.0716,-6.0776,-6.0957,-6.1346,-6.2028,-6.2028,-6.2028,-6.185,-6.1673,-6.1732,-6.1969,-6.2087,-6.2087,-6.238,-6.2319,-6.1925,-6.1389,-6.0627,-5.9918,-5.9334,-5.8922,-5.863,-5.8873,-5.9457,-5.9959,-6.0205,-6.1308,-6.2045,-6.2169,-6.2407,-6.6999,-6.6999,-6.6999,-6.6999,-6.6909,-6.649,-6.655,-6.6969,-6.6999,-6.6999,-6.6999,-6.6999,-6.6909,-6.6999,-6.6999,-6.6969,-6.6969,-6.6999,-6.6999,-6.6939,-6.6789,-6.6909,-6.6969,-6.6878,-6.6969,-6.6814,-6.6538,-6.6103,-6.5698,-6.5192,-6.449,-6.4232,-6.3806,-6.3806,-6.4131,-6.4425,-6.4967,-6.5256,-6.5192,-6.5192,-6.5002,-6.4717,-6.5036,-6.5572,-6.5886,-6.5761,-6.5163,-6.4688,-6.456,-6.411,-6.3944,-6.4203,-6.5475,-6.5129,-6.4074,-6.3263,-6.2536,-6.227,-6.2725,-6.3188,-6.3319,-6.3319,-6.4425,-6.459,-6.3946,-6.3212,-6.2728,-6.1718,-6.0688,-6.0283,-6.0014,-5.9768,-5.9521,-5.9521,-5.9555,-5.9369,-5.9369,-5.9493,-5.9431,-5.9121,-5.9121,-5.9183,-5.8996,-5.9155,-5.9341,-5.9465,-5.9588,-5.965,-6.0018,-6.0655,-6.0986,-6.0957,-6.0805,-6.0474,-6.0926,-6.1226,-6.1346,-6.1405,-6.1555,-6.1585,-6.1204,-6.0648,-6.0121,-5.9419,-5.8572,-5.8112,-5.78,-5.8205,-5.8842,-5.9188,-5.959,-6.0882,-6.1907,-6.1851,-6.1939,-6.6221,-6.6221,-6.6221,-6.6221,-6.6131,-6.5802,-6.5862,-6.6191,-6.6221,-6.6221,-6.6251,-6.646,-6.661,-6.658,-6.658,-6.655,-6.655,-6.6191,-6.6101,-6.6101,-6.622,-6.637,-6.6399,-6.6304,-6.63,-6.6233,-6.5978,-6.5412,-6.4874,-6.3879,-6.3056,-6.299,-6.2554,-6.2952,-6.3413,-6.3777,-6.3777,-6.3908,-6.3879,-6.4009,-6.3814,-6.3459,-6.3915,-6.4525,-6.4781,-6.4303,-6.385,-6.3496,-6.284,-6.2735,-6.283,-6.316,-6.3879,-6.3197,-6.284,-6.2042,-6.1396,-6.122,-6.1451,-6.1789,-6.1654,-6.1789,-6.2592,-6.2396,-6.2258,-6.1703,-6.1295,-6.0695,-5.9899,-5.9239,-5.9052,-5.8774,-5.8585,-5.8305,-5.8079,-5.7852,-5.7952,-5.8143,-5.7889,-5.7441,-5.7441,-5.7569,-5.767,-5.7861,-5.8052,-5.8115,-5.8115,-5.8052,-5.8404,-5.9093,-5.9403,-5.9527,-5.9431,-5.9245,-5.974,-6.0108,-5.9986,-5.9957,-6.0141,-6.0144,-6.0148,-5.9718,-5.8971,-5.8251,-5.7562,-5.7241,-5.7123,-5.7491,-5.8033,-5.8334,-5.8697,-5.9469,-6.0425,-6.0841,-6.0957,-6.5054,-6.5084,-6.5024,-6.5024,-6.4934,-6.4964,-6.4934,-6.4874,-6.4874,-6.4905,-6.5173,-6.5682,-6.5922,-6.5951,-6.5951,-6.5922,-6.5832,-6.5533,-6.5383,-6.4935,-6.4843,-6.5081,-6.5166,-6.5069,-6.4685,-6.5061,-6.4851,-6.3837,-6.3357,-6.2526,-6.1856,-6.1721,-6.1721,-6.2018,-6.2487,-6.2924,-6.2792,-6.2259,-6.2298,-6.2431,-6.2403,-6.2136,-6.1935,-6.2669,-6.2934,-6.2906,-6.3037,-6.2641,-6.1908,-6.2309,-6.247,-6.2403,-6.2002,-6.1504,-6.1233,-6.0893,-6.0261,-6.0261,-6.0426,-6.077,-6.0701,-6.0632,-6.0728,-6.0715,-6.0754,-6.0557,-6.0236,-5.9589,-5.8797,-5.809,-5.7761,-5.7952,-5.7889,-5.7505,-5.7211,-5.7017,-5.7146,-5.7119,-5.6888,-5.6563,-5.6563,-5.6628,-5.6563,-5.6796,-5.6925,-5.6888,-5.6758,-5.6628,-5.699,-5.767,-5.7961,-5.8214,-5.8242,-5.8179,-5.8305,-5.8557,-5.834,-5.8404,-5.8718,-5.8843,-5.8849,-5.8373,-5.7724,-5.7121,-5.6487,-5.6632,-5.6593,-5.6932,-5.7209,-5.7501,-5.7799,-5.8076,-5.8655,-5.9217,-5.9834,-6.5024,-6.5024,-6.5024,-6.4725,-6.4276,-6.4246,-6.3977,-6.3558,-6.3558,-6.4126,-6.4934,-6.5173,-6.5263,-6.5263,-6.5263,-6.5263,-6.5173,-6.4815,-6.4964,-6.4397,-6.3916,-6.3522,-6.3447,-6.276,-6.2536,-6.2458,-6.2221,-6.1974,-6.1639,-6.1179,-6.0975,-6.0975,-6.0975,-6.1207,-6.1411,-6.1789,-6.1451,-6.0975,-6.077,-6.0947,-6.1016,-6.0742,-6.0605,-6.1464,-6.1975,-6.1639,-6.1571,-6.1233,-6.0647,-6.0537,-6.0399,-6.033,-6.033,-5.9985,-5.9916,-5.9916,-5.9385,-5.9385,-5.9595,-5.9873,-5.9873,-6.0081,-6.015,-6.0012,-5.9911,-5.956,-5.9067,-5.8437,-5.774,-5.7108,-5.6693,-5.7017,-5.7146,-5.6693,-5.6367,-5.6367,-5.6367,-5.6197,-5.5934,-5.5868,-5.5802,-5.5736,-5.567,-5.567,-5.5802,-5.5736,-5.5604,-5.5538,-5.5934,-5.6432,-5.6796,-5.7055,-5.7312,-5.7312,-5.7248,-5.7184,-5.7119,-5.7184,-5.7478,-5.7542,-5.7606,-5.7159,-5.6658,-5.6043,-5.5609,-5.5781,-5.5988,-5.616,-5.6459,-5.6658,-5.6719,-5.6936,-5.6731,-5.7028,-5.8024,-6.4156,-6.4156,-6.4156,-6.3947,-6.3617,-6.3588,-6.3378,-6.3109,-6.3137,-6.3468,-6.4156,-6.4425,-6.4575,-6.4575,-6.4575,-6.4516,-6.4397,-6.3862,-6.3565,-6.3238,-6.2511,-6.2112,-6.1456,-6.0717,-6.0855,-6.0793,-6.0701,-6.0443,-6.0181,-6.0219,-6.0219,-6.0219,-6.0219,-6.0357,-6.0591,-6.066,-6.0453,-6.0219,-5.9734,-5.9664,-5.99,-5.9525,-5.9664,-6.051,-6.0441,-6.0234,-6.0165,-5.9916,-5.9525,-5.9245,-5.9175,-5.9525,-5.9525,-5.9315,-5.9105,-5.9035,-5.885,-5.8709,-5.8991,-5.9105,-5.9175,-5.9412,-5.9412,-5.9202,-5.899,-5.8651,-5.7984,-5.7341,-5.7009,-5.642,-5.6066,-5.6197,-5.6197,-5.5868,-5.5736,-5.567,-5.567,-5.5538,-5.5472,-5.5472,-5.5405,-5.5339,-5.5339,-5.5339,-5.5405,-5.5405,-5.5165,-5.5099,-5.5365,-5.5472,-5.5802,-5.5973,-5.6367,-5.6301,-5.6105,-5.6039,-5.6105,-5.617,-5.6367,-5.6301,-5.634,-5.5996,-5.5599,-5.5347,-5.5229,-5.5271,-5.548,-5.5649,-5.5652,-5.5787,-5.5696,-5.567,-5.5405,-5.5405,-5.6275,-6.3196,-6.3137,-6.3166,-6.3137,-6.3137,-6.3137,-6.3137,-6.3137,-6.3137,-6.3137,-6.3258,-6.359,-6.3798,-6.3887,-6.377,-6.377,-6.3357,-6.2469,-6.2056,-6.1491,-6.0373,-6.007,-5.9669,-5.9173,-5.8979,-5.9187,-5.9318,-5.9356,-5.9312,-5.9349,-5.9455,-5.9455,-5.9595,-5.9734,-6.0246,-6.0315,-6.0039,-5.9595,-5.9272,-5.9061,-5.8779,-5.8523,-5.8991,-5.9061,-5.8991,-5.892,-5.9061,-5.8991,-5.8594,-5.8594,-5.8664,-5.892,-5.9061,-5.892,-5.8709,-5.8567,-5.8567,-5.8523,-5.8594,-5.8638,-5.8594,-5.8594,-5.8523,-5.8418,-5.8306,-5.7782,-5.7128,-5.6705,-5.6359,-5.5921,-5.5631,-5.5498,-5.5365,-5.5365,-5.5232,-5.5165,-5.5165,-5.5099,-5.5165,-5.5165,-5.5099,-5.5099,-5.5099,-5.5099,-5.5099,-5.5099,-5.5099,-5.5099,-5.5165,-5.5232,-5.5405,-5.5472,-5.5604,-5.5405,-5.5232,-5.5365,-5.5472,-5.5472,-5.567,-5.5272,-5.5113,-5.5314,-5.5353,-5.5234,-5.5141,-5.5129,-5.5089,-5.5287,-5.518,-5.5232,-5.5232,-5.5299,-5.5299,-5.5206,-5.5165,-6.3137,-6.3137,-6.3137,-6.3107,-6.3107,-6.3107,-6.3137,-6.3137,-6.3079,-6.3137,-6.2935,-6.2616,-6.2705,-6.32,-6.2646,-6.244,-6.2263,-6.1135,-6.0595,-6.023,-5.8718,-5.8135,-5.7669,-5.7277,-5.6532,-5.6968,-5.7804,-5.8095,-5.849,-5.864,-5.8709,-5.8779,-5.8779,-5.885,-5.885,-5.8991,-5.9061,-5.885,-5.885,-5.8638,-5.8664,-5.8523,-5.8523,-5.8567,-5.8567,-5.8567,-5.8638,-5.8567,-5.8523,-5.8523,-5.8523,-5.8664,-5.8664,-5.8664,-5.8523,-5.8523,-5.8523,-5.8523,-5.8523,-5.8523,-5.8523,-5.8523,-5.8523,-5.8497,-5.8157,-5.7556,-5.7007,-5.6641,-5.6273,-5.5616,-5.5284,-5.5232,-5.5165,-5.5165,-5.5099,-5.5099,-5.5099,-5.5099,-5.5099,-5.5099,-5.5099,-5.5099,-5.5099,-5.5099,-5.5099,-5.5099,-5.5099,-5.5099,-5.5099,-5.5099,-5.5099,-5.5099,-5.5099,-5.5099,-5.5099,-5.5165,-5.5232,-5.5165,-5.5099,-5.5099,-5.5099,-5.5099,-5.5099,-5.5099,-5.5099,-5.5087,-5.5072,-5.5099,-5.5099,-5.5165,-5.5099,-5.5099,-5.5099,-5.5099,-5.5099]},{"header":{"parameterUnit":"m.s-1","parameterCategory":1,"la1":31.0,"la2":29.5877,"lo1":-88.7671,"lo2":-86.6584,"dy":0.0162,"dx":0.0185,"nx":115,"ny":88,"refTime":"2024-04-27T00:00:00:Z","depth":0,"parameterNumber":3,"parameterNumberName":"V-component_of_WINDS"},"data":[0.0,0.0,0.0,0.0,0.0,0.0,0.0,0.0,0.0,0.0,0.0,0.0,0.0,0.0,0.0,0.0,0.0,0.0,0.0,0.0,0.0,0.0,0.0,0.0,0.0,0.0,0.0,0.0,0.0,0.0,0.0,0.0,0.0,0.0,0.0,0.0,0.0,0.0,0.0,0.0,0.0,0.0,0.0,0.0,0.0,0.0,0.0,0.0,0.0,0.0,0.0,0.0,0.0,0.0,0.0,0.0,0.0,0.0,0.0,0.0,0.0,0.0,0.0,0.0,0.0,0.0,0.0,0.0,0.0,0.0,0.0,0.0,0.0,0.0,0.0,0.0,0.0,0.0,0.0,0.0,0.0,0.0,0.0,0.0,0.0,0.0,0.0,0.0,0.0,0.0,0.0,0.0,0.0,0.0,0.0,0.0,0.0,0.0,0.0,0.0,0.0,0.0,0.0,0.0,0.0,0.0,0.0,0.0,0.0,0.0,0.0,0.0,0.0,0.0,0.0,0.0,0.0,0.0,0.0,0.0,0.0,0.0,0.0,0.0,0.0,0.0,0.0,0.0,0.0,0.0,0.0,0.0,0.0,0.0,0.0,0.0,0.0,0.0,0.0,0.0,0.0,0.0,0.0,0.0,0.0,0.0,0.0,0.0,0.0,0.0,0.0,0.0,0.0,0.0,0.0,0.0,0.0,0.0,0.0,0.0,0.0,0.0,0.0,0.0,0.0,0.0,0.0,0.0,0.0,0.0,0.0,0.0,0.0,0.0,0.0,0.0,0.0,0.0,0.0,0.0,0.0,0.0,0.0,0.0,0.0,0.0,0.0,0.0,0.0,0.0,0.0,0.0,0.0,0.0,0.0,0.0,0.0,0.0,0.0,0.0,0.0,0.0,0.0,0.0,0.0,0.0,0.0,0.0,0.0,0.0,0.0,0.0,0.0,0.0,0.0,0.0,0.0,0.0,0.0,0.0,0.0,0.0,0.0,0.0,0.0,0.0,0.0,0.0,0.0,0.0,0.0,0.0,0.0,0.0,0.0,0.0,0.0,0.0,0.0,0.0,0.0,0.0,0.0,0.0,0.0,0.0,0.0,0.0,0.0,0.0,0.0,0.0,0.0,0.0,0.0,0.0,0.0,0.0,0.0,0.0,0.0,0.0,0.0,0.0,0.0,0.0,0.0,0.0,0.0,0.0,0.0,0.0,0.0,0.0,0.0,0.0,0.0,0.0,0.0,0.0,0.0,0.0,0.0,0.0,0.0,0.0,0.0,0.0,0.0,0.0,0.0,0.0,0.0,0.0,0.0,0.0,0.0,0.0,0.0,0.0,0.0,0.0,0.0,0.0,0.0,0.0,0.0,0.0,0.0,0.0,0.0,0.0,0.0,0.0,0.0,0.0,0.0,0.0,0.0,0.0,0.0,0.0,0.0,0.0,0.0,0.0,0.0,0.0,0.0,0.0,0.0,0.0,0.0,0.0,0.0,0.0,0.0,0.0,0.0,0.0,0.0,0.0,0.0,0.0,0.0,0.0,0.0,0.0,0.0,0.0,0.0,0.0,0.0,0.0,0.0,0.0,0.0,0.0,0.0,0.0,0.0,0.0,0.0,0.0,0.0,0.0,0.0,0.0,0.0,0.0,0.0,0.0,0.0,0.0,0.0,0.0,0.0,0.0,0.0,0.0,0.0,0.0,0.0,0.0,0.0,0.0,0.0,0.0,0.0,0.0,0.0,0.0,0.0,0.0,0.0,0.0,0.0,0.0,0.0,0.0,0.0,0.0,0.0,0.0,0.0,0.0,0.0,0.0,0.0,0.0,0.0,0.0,0.0,0.0,0.0,0.0,0.0,0.0,0.0,0.0,0.0,0.0,0.0,0.0,0.0,0.0,0.0,0.0,0.0,0.0,0.0,0.0,0.0,0.0,0.0,0.0,0.0,0.0,0.0,0.0,0.0,0.0,0.0,0.0,0.0,0.0,0.0,0.0,0.0,0.0,0.0,0.0,0.0,0.0,0.0,0.0,0.0,0.0,0.0,0.0,0.0,0.0,0.0,0.0,0.0,0.0,0.0,0.0,0.0,0.0,0.0,0.0,0.0,0.0,0.0,0.0,0.0,0.0,0.0,0.0,0.0,0.0,0.0,0.0,0.0,0.0,0.0,0.0,0.0,0.0,0.0,0.0,0.0,0.0,0.0,0.0,0.0,0.0,0.0,0.0,0.0,0.0,0.0,0.0,0.0,0.0,0.0,0.0,0.0,0.0,0.0,0.0,0.0,0.0,0.0,0.0,0.0,0.0,0.0,0.0,0.0,0.0,0.0,0.0,0.0,0.0,0.0,0.0,0.0,0.0,0.0,0.0,0.0,0.0,0.0,0.0,0.0,0.0,0.0,0.0,0.0,0.0,0.0,0.0,0.0,0.0,0.0,0.0,0.0,0.0,0.0,0.0,0.0,0.0,0.0,0.0,0.0,0.0,0.0,0.0,0.0,0.0,0.0,0.0,0.0,0.0,0.0,0.0,0.0,0.0,0.0,0.0,0.0,0.0,0.0,0.0,0.0,0.0,0.0,0.0,0.0,0.0,0.0,0.0,0.0,0.0,0.0,0.0,0.0,0.0,0.0,0.0,0.0,0.0,0.0,0.0,0.0,0.0,0.0,0.0,0.0,0.0,0.0,0.0,0.0,0.0,0.0,0.0,0.0,0.0,0.0,0.0,0.0,0.0,0.0,0.0,0.0,0.0,0.0,0.0,0.0,0.0,0.0,0.0,0.0,0.0,0.0,0.0,0.0,0.0,0.0,0.0,0.0,0.0,0.0,0.0,0.0,0.0,0.0,0.0,0.0,0.0,0.0,0.0,0.0,0.0,0.0,0.0,0.0,0.0,0.0,0.0,0.0,0.0,0.0,0.0,0.0,0.0,0.0,0.0,0.0,0.0,0.0,0.0,0.0,0.0,0.0,0.0,0.0,0.0,0.0,0.0,0.0,0.0,0.0,0.0,0.0,0.0,0.0,0.0,0.0,0.0,0.0,0.0,0.0,0.0,0.0,0.0,0.0,0.0,0.0,0.0,0.0,0.0,0.0,0.0,0.0,0.0,0.0,0.0,0.0,0.0,0.0,0.0,0.0,0.0,0.0,0.0,0.0,0.0,0.0,0.0,0.0,0.0,0.0,0.0,0.0,0.0,0.0,0.0,0.0,0.0,0.0,0.0,0.0,0.0,0.0,0.0,0.0,0.0,0.0,0.0,0.0,0.0,0.0,0.0,0.0,0.0,0.0,0.0,0.0,0.0,0.0,0.0,0.0,0.0,0.0,0.0,0.0,0.0,0.0,0.0,0.0,0.0,0.0,0.0,0.0,0.0,0.0,0.0,0.0,0.0,0.0,0.0,0.0,0.0,0.0,0.0,0.0,0.0,0.0,0.0,0.0,0.0,0.0,0.0,0.0,0.0,0.0,0.0,0.0,0.0,0.0,0.0,0.0,0.0,0.0,0.0,0.0,0.0,0.0,0.0,0.0,0.0,0.0,0.0,0.0,0.0,0.0,0.0,0.0,0.0,0.0,0.0,0.0,0.0,0.0,0.0,0.0,0.0,0.0,0.0,0.0,0.0,0.0,0.0,0.0,0.0,0.0,0.0,0.0,0.0,0.0,0.0,0.0,0.0,0.0,0.0,0.0,0.0,0.0,0.0,0.0,0.0,0.0,0.0,0.0,0.0,0.0,0.0,0.0,0.0,0.0,0.0,0.0,0.0,0.0,0.0,0.0,0.0,0.0,0.0,0.0,0.0,0.0,0.0,0.0,0.0,0.0,0.0,0.0,0.0,0.0,0.0,0.0,0.0,0.0,0.0,0.0,0.0,0.0,0.0,0.0,0.0,0.0,0.0,0.0,0.0,0.0,0.0,0.0,0.0,0.0,0.0,0.0,0.0,0.0,0.0,0.0,0.0,0.0,0.0,0.0,0.0,0.0,0.0,0.0,0.0,0.0,0.0,0.0,0.0,0.0,0.0,0.0,0.0,0.0,0.0,0.0,0.0,0.0,0.0,0.0,0.0,0.0,0.0,0.0,0.0,0.0,0.0,0.0,0.0,0.0,0.0,0.0,0.0,0.0,0.0,0.0,0.0,0.0,0.0,0.0,0.0,0.0,0.0,0.0,0.0,0.0,0.0,0.0,0.0,0.0,0.0,0.0,0.0,0.0,0.0,0.0,0.0,0.0,0.0,0.0,0.0,0.0,0.0,0.0,0.0,0.0,0.0,0.0,0.0,1.9734,0.0,0.0,0.0,1.8813,0.0,0.0,0.0,0.0,0.0,0.0,0.0,0.0,0.0,0.0,0.0,0.0,0.0,0.0,0.0,0.0,0.0,0.0,0.0,0.0,0.0,0.0,0.0,0.0,0.0,0.0,0.0,0.0,0.0,0.0,0.0,0.0,0.0,0.0,0.0,0.0,0.0,0.0,0.0,0.0,0.0,0.0,0.0,0.0,0.0,0.0,0.0,0.0,0.0,0.0,0.0,0.0,0.0,0.0,0.0,0.0,0.0,0.0,0.0,0.0,0.0,0.0,0.0,0.0,0.0,0.0,0.0,0.0,0.0,0.0,0.0,0.0,0.0,0.0,0.0,0.0,0.0,0.0,0.0,0.0,0.0,0.0,0.0,0.0,0.0,0.0,0.0,0.0,0.0,0.0,0.0,0.0,0.0,0.0,0.0,0.0,0.0,0.0,0.0,0.0,0.0,0.0,0.0,0.0,0.0,0.0,0.0,0.0,0.0,0.0,1.9845,1.9686,1.9654,1.9447,1.9145,0.0,0.0,0.0,0.0,0.0,0.0,0.0,0.0,0.0,0.0,0.0,0.0,0.0,0.0,0.0,0.0,0.0,0.0,0.0,0.0,0.0,0.0,0.0,0.0,0.0,0.0,0.0,0.0,0.0,0.0,0.0,0.0,0.0,0.0,0.0,0.0,0.0,0.0,0.0,0.0,0.0,0.0,0.0,0.0,0.0,0.0,0.0,0.0,0.0,0.0,0.0,0.0,0.0,0.0,0.0,0.0,0.0,0.0,0.0,0.0,0.0,0.0,0.0,0.0,0.0,0.0,0.0,0.0,0.0,0.0,0.0,0.0,0.0,0.0,0.0,0.0,0.0,0.0,0.0,0.0,0.0,0.0,0.0,0.0,0.0,0.0,0.0,0.0,0.0,0.0,0.0,0.0,0.0,0.0,0.0,0.0,0.0,0.0,0.0,0.0,0.0,0.0,0.0,0.0,0.0,0.0,0.0,0.0,0.0,0.0,0.0,0.0,2.0051,1.9924,1.9844,0.0,0.0,0.0,0.0,0.0,0.0,0.0,0.0,0.0,0.0,0.0,0.0,0.0,0.0,0.0,0.0,0.0,0.0,0.0,0.0,0.0,0.0,0.0,0.0,0.0,0.0,0.0,0.0,0.0,0.0,0.0,0.0,0.0,0.0,0.0,0.0,0.0,0.0,0.0,0.0,0.0,0.0,0.0,0.0,0.0,0.0,0.0,0.0,0.0,0.0,0.0,0.0,0.0,0.0,0.0,0.0,0.0,0.0,0.0,0.0,0.0,0.0,0.0,0.0,0.0,0.0,0.0,0.0,0.0,0.0,0.0,0.0,0.0,0.0,0.0,0.0,0.0,0.0,0.0,0.0,0.0,0.0,0.0,0.0,0.0,0.0,0.0,0.0,0.0,0.0,0.0,0.0,0.0,0.0,0.0,0.0,0.0,0.0,0.0,0.0,0.0,0.0,0.0,0.0,0.0,0.0,0.0,0.0,0.0,0.0,2.0019,2.1222,2.156,0.0,2.1206,0.0,0.0,0.0,0.0,0.0,0.0,0.0,0.0,0.0,0.0,0.0,0.0,0.0,0.0,0.0,0.0,0.0,0.0,0.0,0.0,0.0,0.0,0.0,0.0,0.0,0.0,0.0,0.0,0.0,0.0,0.0,0.0,0.0,0.0,0.0,0.0,0.0,0.0,0.0,0.0,0.0,0.0,0.0,0.0,0.0,0.0,0.0,0.0,0.0,0.0,0.0,0.0,0.0,0.0,0.0,0.0,0.0,0.0,0.0,0.0,0.0,0.0,0.0,0.0,0.0,0.0,0.0,0.0,0.0,0.0,0.0,0.0,0.0,0.0,0.0,0.0,0.0,0.0,0.0,0.0,0.0,0.0,0.0,0.0,0.0,0.0,0.0,0.0,0.0,0.0,0.0,0.0,0.0,0.0,0.0,0.0,0.0,0.0,0.0,0.0,0.0,0.0,0.0,0.0,0.0,0.0,0.0,0.0,0.0,0.0,2.0543,2.1719,2.1687,2.129,0.0,0.0,0.0,0.0,0.0,0.0,0.0,0.0,0.0,0.0,0.0,0.0,0.0,0.0,0.0,0.0,0.0,0.0,0.0,0.0,0.0,0.0,0.0,0.0,0.0,0.0,0.0,0.0,0.0,0.0,0.0,0.0,0.0,0.0,0.0,0.0,0.0,0.0,0.0,0.0,0.0,0.0,0.0,0.0,0.0,0.0,0.0,0.0,0.0,0.0,0.0,0.0,0.0,0.0,0.0,0.0,0.0,0.0,0.0,0.0,0.0,0.0,0.0,0.0,0.0,0.0,0.0,0.0,0.0,0.0,0.0,0.0,0.0,0.0,0.0,0.0,0.0,0.0,0.0,0.0,0.0,0.0,0.0,0.0,0.0,0.0,0.0,0.0,0.0,0.0,0.0,0.0,0.0,0.0,0.0,0.0,0.0,0.0,0.0,0.0,0.0,0.0,0.0,0.0,0.0,0.0,0.0,0.0,0.0,0.0,2.0559,2.0941,2.2059,2.1671,2.0984,2.0178,0.0,0.0,0.0,0.0,0.0,0.0,0.0,0.0,0.0,0.0,0.0,0.0,0.0,0.0,0.0,0.0,0.0,0.0,0.0,0.0,0.0,0.0,0.0,0.0,0.0,0.0,0.0,0.0,0.0,0.0,0.0,0.0,0.0,0.0,0.0,0.0,0.0,0.0,0.0,0.0,0.0,0.0,0.0,0.0,0.0,0.0,0.0,0.0,0.0,0.0,0.0,0.0,0.0,0.0,0.0,0.0,0.0,0.0,0.0,0.0,0.0,0.0,0.0,0.0,0.0,0.0,0.0,0.0,0.0,0.0,0.0,0.0,0.0,0.0,0.0,0.0,0.0,0.0,0.0,0.0,0.0,0.0,0.0,0.0,0.0,0.0,0.0,0.0,0.0,0.0,0.0,0.0,0.0,0.0,0.0,0.0,0.0,0.0,0.0,0.0,0.0,0.0,0.0,0.0,0.0,0.0,0.0,0.0,2.3092,2.1401,2.1068,2.2402,2.1745,2.1222,0.0,0.0,0.0,0.0,0.0,0.0,0.0,0.0,0.0,0.0,0.0,0.0,0.0,0.0,0.0,0.0,0.0,0.0,0.0,0.0,0.0,0.0,0.0,0.0,0.0,0.0,0.0,0.0,0.0,0.0,0.0,0.0,0.0,0.0,0.0,0.0,0.0,0.0,0.0,0.0,0.0,0.0,0.0,0.0,0.0,0.0,0.0,0.0,0.0,0.0,0.0,0.0,0.0,0.0,0.0,0.0,0.0,0.0,0.0,0.0,0.0,0.0,0.0,0.0,0.0,0.0,0.0,0.0,0.0,0.0,0.0,0.0,0.0,0.0,0.0,0.0,0.0,0.0,0.0,0.0,0.0,0.0,0.0,0.0,0.0,0.0,0.0,0.0,0.0,0.0,0.0,0.0,0.0,0.0,0.0,0.0,0.0,0.0,0.0,0.0,0.0,0.0,0.0,0.0,0.0,0.0,0.0,0.0,0.0,2.1147,2.1306,2.1846,2.2752,2.1888,2.1333,0.0,0.0,0.0,0.0,0.0,0.0,0.0,0.0,0.0,0.0,0.0,0.0,0.0,0.0,0.0,0.0,0.0,0.0,0.0,0.0,0.0,0.0,0.0,0.0,0.0,0.0,0.0,0.0,0.0,0.0,0.0,0.0,0.0,0.0,0.0,0.0,0.0,0.0,0.0,0.0,0.0,0.0,0.0,0.0,0.0,0.0,0.0,0.0,0.0,0.0,0.0,0.0,0.0,0.0,0.0,0.0,0.0,0.0,0.0,0.0,0.0,0.0,0.0,0.0,0.0,0.0,0.0,0.0,0.0,0.0,0.0,0.0,0.0,0.0,0.0,0.0,0.0,0.0,0.0,0.0,0.0,0.0,0.0,0.0,0.0,0.0,0.0,0.0,0.0,0.0,0.0,0.0,0.0,0.0,0.0,0.0,0.0,0.0,0.0,0.0,0.0,0.0,0.0,0.0,0.0,0.0,0.0,0.0,0.0,2.1376,0.0,2.3331,2.364,2.2396,2.149,0.0,0.0,0.0,0.0,0.0,0.0,0.0,0.0,0.0,0.0,0.0,0.0,0.0,0.0,0.0,0.0,0.0,0.0,0.0,0.0,0.0,0.0,0.0,0.0,0.0,0.0,0.0,0.0,0.0,0.0,0.0,0.0,0.0,0.0,0.0,0.0,0.0,0.0,0.0,0.0,0.0,0.0,0.0,0.0,0.0,0.0,0.0,0.0,0.0,0.0,0.0,0.0,0.0,0.0,0.0,0.0,0.0,0.0,0.0,0.0,0.0,0.0,0.0,0.0,0.0,0.0,0.0,0.0,0.0,0.0,0.0,0.0,0.0,0.0,0.0,0.0,0.0,0.0,0.0,0.0,0.0,0.0,0.0,0.0,0.0,0.0,0.0,0.0,0.0,0.0,0.0,0.0,0.0,0.0,0.0,0.0,0.0,0.0,0.0,0.0,0.0,0.0,0.0,0.0,0.0,0.0,0.0,0.0,2.1771,2.422,2.5088,2.5415,2.5258,2.3393,2.1728,0.0,0.0,0.0,0.0,0.0,0.0,0.0,0.0,0.0,0.0,0.0,0.0,0.0,0.0,0.0,0.0,0.0,0.0,0.0,0.0,0.0,0.0,0.0,0.0,0.0,0.0,0.0,0.0,0.0,0.0,0.0,0.0,0.0,0.0,0.0,0.0,0.0,0.0,0.0,0.0,0.0,0.0,0.0,0.0,0.0,0.0,0.0,0.0,0.0,0.0,0.0,0.0,0.0,0.0,0.0,0.0,0.0,0.0,0.0,0.0,0.0,0.0,0.0,0.0,0.0,0.0,0.0,0.0,0.0,0.0,0.0,0.0,0.0,0.0,0.0,0.0,0.0,0.0,0.0,0.0,0.0,0.0,0.0,0.0,0.0,0.0,0.0,0.0,0.0,0.0,0.0,0.0,0.0,0.0,0.0,0.0,0.0,0.0,0.0,0.0,0.0,0.0,0.0,0.0,0.0,0.0,0.0,0.0,0.0,2.3954,2.5267,2.6317,2.6976,2.4853,2.382,0.0,0.0,0.0,0.0,0.0,0.0,0.0,0.0,0.0,0.0,0.0,0.0,0.0,0.0,0.0,0.0,0.0,0.0,0.0,0.0,0.0,0.0,0.0,0.0,0.0,0.0,0.0,0.0,0.0,0.0,0.0,0.0,0.0,0.0,0.0,0.0,0.0,0.0,0.0,0.0,0.0,0.0,0.0,0.0,0.0,0.0,0.0,0.0,0.0,0.0,0.0,0.0,0.0,0.0,0.0,0.0,0.0,0.0,0.0,0.0,0.0,0.0,0.0,0.0,0.0,0.0,0.0,0.0,0.0,0.0,0.0,0.0,0.0,0.0,0.0,0.0,0.0,0.0,0.0,0.0,0.0,0.0,0.0,0.0,0.0,0.0,0.0,0.0,0.0,0.0,0.0,0.0,0.0,0.0,0.0,0.0,0.0,0.0,0.0,0.0,0.0,0.0,0.0,0.0,0.0,0.0,0.0,0.0,0.0,2.6517,2.7615,2.8507,2.8945,2.6755,2.5459,2.5139,0.0,0.0,0.0,0.0,0.0,0.0,0.0,0.0,0.0,0.0,0.0,0.0,0.0,0.0,0.0,0.0,0.0,0.0,0.0,0.0,0.0,0.0,0.0,0.0,0.0,0.0,0.0,0.0,0.0,0.0,0.0,0.0,0.0,0.0,0.0,0.0,0.0,0.0,0.0,0.0,0.0,0.0,0.0,0.0,0.0,0.0,0.0,0.0,0.0,0.0,0.0,0.0,0.0,0.0,0.0,0.0,0.0,0.0,0.0,0.0,0.0,0.0,0.0,0.0,0.0,0.0,0.0,0.0,0.0,0.0,0.0,0.0,0.0,0.0,0.0,0.0,0.0,0.0,0.0,0.0,0.0,0.0,0.0,0.0,0.0,0.0,0.0,0.0,0.0,0.0,0.0,0.0,0.0,0.0,0.0,0.0,0.0,0.0,0.0,0.0,0.0,0.0,0.0,0.0,0.0,0.0,0.0,0.0,3.1175,3.197,3.1926,3.1037,2.903,2.6768,0.0,0.0,0.0,0.0,0.0,0.0,0.0,0.0,0.0,0.0,0.0,0.0,0.0,0.0,0.0,0.0,0.0,0.0,0.0,0.0,0.0,0.0,0.0,0.0,0.0,0.0,0.0,0.0,0.0,0.0,0.0,0.0,0.0,0.0,0.0,0.0,0.0,0.0,0.0,0.0,0.0,0.0,0.0,0.0,0.0,0.0,0.0,0.0,0.0,0.0,0.0,0.0,0.0,0.0,0.0,0.0,0.0,0.0,0.0,0.0,0.0,0.0,0.0,0.0,0.0,0.0,0.0,0.0,0.0,0.0,0.0,0.0,0.0,0.0,0.0,0.0,0.0,0.0,0.0,0.0,0.0,0.0,0.0,0.0,0.0,0.0,0.0,0.0,0.0,0.0,0.0,0.0,0.0,0.0,0.0,0.0,0.0,0.0,0.0,0.0,0.0,0.0,0.0,0.0,0.0,0.0,0.0,0.0,0.0,3.3351,3.6035,3.657,3.4734,3.1876,2.9896,0.0,0.0,0.0,0.0,0.0,0.0,0.0,0.0,0.0,0.0,0.0,0.0,0.0,0.0,0.0,0.0,0.0,0.0,0.0,0.0,0.0,0.0,0.0,0.0,0.0,0.0,0.0,0.0,0.0,0.0,0.0,0.0,0.0,0.0,0.0,0.0,0.0,0.0,0.0,0.0,0.0,0.0,0.0,0.0,0.0,0.0,0.0,0.0,0.0,0.0,0.0,0.0,0.0,0.0,0.0,0.0,0.0,0.0,0.0,0.0,0.0,0.0,0.0,0.0,0.0,0.0,0.0,0.0,0.0,0.0,0.0,0.0,0.0,0.0,0.0,0.0,0.0,0.0,0.0,0.0,0.0,0.0,0.0,0.0,0.0,0.0,0.0,0.0,0.0,0.0,0.0,0.0,0.0,0.0,0.0,0.0,0.0,0.0,0.0,0.0,0.0,0.0,0.0,0.0,0.0,0.0,0.0,0.0,3.4031,3.579,3.9185,4.0323,3.8999,3.5894,3.2996,0.0,0.0,0.0,0.0,0.0,0.0,0.0,0.0,0.0,0.0,0.0,0.0,0.0,0.0,0.0,0.0,0.0,0.0,0.0,0.0,0.0,0.0,0.0,0.0,0.0,0.0,0.0,0.0,0.0,0.0,0.0,0.0,0.0,0.0,0.0,0.0,0.0,0.0,0.0,0.0,0.0,0.0,0.0,0.0,0.0,0.0,0.0,0.0,0.0,0.0,0.0,0.0,0.0,0.0,0.0,0.0,0.0,0.0,0.0,0.0,0.0,0.0,0.0,0.0,0.0,0.0,0.0,0.0,0.0,0.0,0.0,0.0,0.0,0.0,0.0,0.0,0.0,0.0,0.0,0.0,0.0,0.0,0.0,0.0,0.0,0.0,0.0,0.0,0.0,0.0,0.0,0.0,0.0,0.0,0.0,0.0,0.0,0.0,0.0,0.0,0.0,0.0,0.0,0.0,0.0,0.0,0.0,0.0,3.606,3.8357,4.1503,4.3118,4.2973,3.9847,3.5687,0.0,0.0,0.0,0.0,0.0,0.0,0.0,0.0,0.0,0.0,0.0,0.0,0.0,0.0,0.0,0.0,0.0,0.0,0.0,0.0,0.0,0.0,0.0,0.0,0.0,0.0,0.0,0.0,0.0,0.0,0.0,0.0,0.0,0.0,0.0,0.0,0.0,0.0,0.0,0.0,0.0,0.0,0.0,0.0,0.0,0.0,0.0,0.0,0.0,0.0,0.0,0.0,0.0,0.0,0.0,0.0,0.0,0.0,0.0,0.0,0.0,0.0,0.0,0.0,0.0,0.0,0.0,0.0,0.0,0.0,0.0,0.0,0.0,0.0,0.0,0.0,0.0,0.0,0.0,0.0,0.0,0.0,0.0,0.0,0.0,0.0,0.0,0.0,0.0,0.0,0.0,0.0,0.0,0.0,0.0,0.0,0.0,0.0,0.0,0.0,0.0,0.0,0.0,0.0,0.0,0.0,0.0,0.0,3.6742,3.9723,4.289,4.4381,4.4008,3.9868,3.608,0.0,0.0,0.0,0.0,0.0,0.0,0.0,0.0,0.0,0.0,0.0,0.0,0.0,0.0,0.0,0.0,0.0,0.0,0.0,0.0,0.0,0.0,0.0,0.0,0.0,0.0,0.0,0.0,0.0,0.0,0.0,0.0,0.0,0.0,0.0,0.0,0.0,0.0,0.0,0.0,0.0,0.0,0.0,0.0,0.0,0.0,0.0,0.0,1.7192,0.0,0.0,0.0,0.0,0.0,0.0,0.0,0.0,0.0,0.0,0.0,0.0,0.0,0.0,0.0,0.0,0.0,0.0,0.0,0.0,0.0,0.0,0.0,0.0,0.0,0.0,0.0,0.0,0.0,0.0,0.0,0.0,0.0,0.0,0.0,0.0,0.0,0.0,0.0,0.0,0.0,0.0,0.0,0.0,0.0,0.0,0.0,0.0,0.0,0.0,0.0,0.0,0.0,0.0,0.0,0.0,0.0,0.0,0.0,3.8046,4.14,4.4194,4.5519,4.5147,4.1462,3.7781,0.0,0.0,0.0,0.0,0.0,0.0,0.0,0.0,0.0,0.0,0.0,0.0,0.0,0.0,0.0,0.0,0.0,0.0,0.0,0.0,0.0,0.0,0.0,0.0,0.0,0.0,0.0,0.0,0.0,0.0,0.0,0.0,0.0,0.0,0.0,0.0,0.0,0.0,0.0,0.0,0.0,0.0,0.0,0.0,0.0,0.0,0.0,0.0,0.0,0.0,0.0,0.0,0.0,0.0,0.0,0.0,0.0,0.0,0.0,0.0,0.0,0.0,0.0,0.0,0.0,0.0,0.0,0.0,0.0,0.0,0.0,0.0,0.0,0.0,0.0,0.0,0.0,0.0,0.0,0.0,0.0,0.0,0.0,0.0,0.0,0.0,0.0,0.0,0.0,0.0,0.0,0.0,0.0,0.0,0.0,0.0,0.0,0.0,0.0,0.0,0.0,0.0,0.0,0.0,0.0,0.0,0.0,3.5749,3.9288,4.3118,4.5271,4.6225,4.6202,4.3284,3.9495,3.5023,0.0,0.0,0.0,0.0,0.0,0.0,0.0,0.0,0.0,0.0,0.0,0.0,0.0,0.0,0.0,0.0,0.0,0.0,0.0,0.0,0.0,0.0,0.0,0.0,0.0,0.0,0.0,0.0,0.0,0.0,0.0,0.0,0.0,0.0,0.0,0.0,0.0,0.0,2.08,2.1275,0.0,0.0,0.0,0.0,0.0,0.0,0.0,0.0,2.0149,0.0,0.0,0.0,0.0,0.0,0.0,0.0,0.0,0.0,0.0,0.0,0.0,0.0,0.0,0.0,0.0,0.0,0.0,0.0,0.0,0.0,0.0,0.0,0.0,0.0,0.0,0.0,0.0,0.0,0.0,0.0,0.0,0.0,0.0,0.0,0.0,0.0,0.0,0.0,0.0,0.0,0.0,0.0,0.0,0.0,0.0,0.0,0.0,0.0,0.0,0.0,0.0,0.0,0.0,0.0,0.0,3.4797,3.6225,3.9433,4.4505,4.5747,4.6182,4.5747,4.3428,3.9896,3.5065,0.0,0.0,0.0,0.0,0.0,0.0,0.0,0.0,0.0,0.0,0.0,0.0,0.0,0.0,0.0,0.0,0.0,0.0,0.0,0.0,0.0,0.0,0.0,0.0,0.0,0.0,0.0,0.0,0.0,0.0,0.0,0.0,0.0,0.0,0.0,0.0,0.0,0.0,0.0,2.394,2.4354,0.0,0.0,0.0,0.0,0.0,0.0,0.0,0.0,2.1141,0.0,0.0,0.0,0.0,0.0,0.0,0.0,0.0,0.0,0.0,0.0,0.0,0.0,0.0,0.0,0.0,0.0,0.0,0.0,0.0,0.0,0.0,0.0,0.0,0.0,0.0,0.0,0.0,0.0,0.0,0.0,0.0,0.0,0.0,0.0,0.0,0.0,0.0,0.0,0.0,0.0,0.0,0.0,0.0,0.0,0.0,0.0,0.0,0.0,0.0,0.0,0.0,0.0,0.0,0.0,3.4569,3.7032,4.0303,4.4484,4.5291,4.554,4.5271,4.2186,3.8688,0.0,0.0,0.0,0.0,0.0,0.0,0.0,0.0,0.0,0.0,0.0,0.0,0.0,0.0,0.0,0.0,0.0,0.0,0.0,0.0,0.0,0.0,0.0,0.0,0.0,0.0,0.0,0.0,0.0,0.0,0.0,0.0,0.0,0.0,0.0,0.0,0.0,0.0,0.0,0.0,2.4727,2.5169,2.4498,0.0,0.0,0.0,0.0,0.0,0.0,2.27,2.243,0.0,0.0,0.0,0.0,0.0,0.0,0.0,0.0,0.0,0.0,0.0,0.0,0.0,0.0,0.0,0.0,0.0,0.0,0.0,0.0,0.0,0.0,0.0,0.0,0.0,0.0,0.0,0.0,0.0,0.0,0.0,0.0,0.0,0.0,0.0,0.0,0.0,0.0,0.0,0.0,0.0,0.0,0.0,0.0,0.0,0.0,0.0,0.0,0.0,0.0,0.0,0.0,0.0,0.0,0.0,3.4051,3.7508,4.0903,4.4132,4.4753,4.4976,4.4883,4.1272,3.7898,0.0,0.0,0.0,0.0,0.0,0.0,0.0,0.0,0.0,0.0,0.0,0.0,0.0,0.0,0.0,0.0,0.0,0.0,0.0,0.0,0.0,0.0,0.0,0.0,0.0,0.0,0.0,0.0,0.0,0.0,0.0,0.0,0.0,0.0,0.0,0.0,0.0,0.0,0.0,0.0,0.0,2.5625,2.5674,2.5215,0.0,0.0,0.0,0.0,2.4238,2.4316,0.0,0.0,0.0,0.0,0.0,0.0,0.0,0.0,0.0,0.0,0.0,0.0,0.0,0.0,0.0,0.0,0.0,0.0,0.0,0.0,0.0,0.0,0.0,0.0,0.0,0.0,0.0,0.0,0.0,0.0,0.0,0.0,0.0,0.0,0.0,0.0,0.0,0.0,0.0,0.0,0.0,0.0,0.0,0.0,0.0,0.0,0.0,0.0,0.0,0.0,0.0,0.0,0.0,0.0,0.0,0.0,3.3989,3.6887,4.0282,4.4091,4.4753,4.4919,4.4748,4.2343,3.8981,0.0,0.0,0.0,0.0,0.0,0.0,0.0,0.0,0.0,0.0,0.0,0.0,0.0,0.0,0.0,0.0,0.0,0.0,0.0,0.0,0.0,0.0,0.0,0.0,0.0,0.0,0.0,0.0,0.0,0.0,0.0,0.0,0.0,0.0,0.0,0.0,0.0,0.0,0.0,0.0,0.0,2.6973,2.583,2.5977,2.6172,0.0,0.0,2.5538,2.6035,2.6094,0.0,0.0,0.0,0.0,0.0,0.0,0.0,0.0,0.0,0.0,0.0,0.0,0.0,0.0,0.0,0.0,0.0,0.0,0.0,0.0,0.0,0.0,0.0,0.0,0.0,0.0,0.0,0.0,0.0,0.0,0.0,0.0,0.0,0.0,0.0,0.0,0.0,0.0,0.0,0.0,0.0,0.0,0.0,0.0,0.0,0.0,0.0,0.0,0.0,0.0,0.0,0.0,0.0,0.0,0.0,3.0739,3.4031,3.7281,4.0427,4.3387,4.4175,4.4268,4.387,4.1105,3.7942,0.0,0.0,0.0,0.0,0.0,0.0,0.0,0.0,0.0,0.0,0.0,0.0,0.0,0.0,0.0,0.0,0.0,0.0,0.0,0.0,0.0,0.0,0.0,0.0,0.0,0.0,0.0,0.0,0.0,0.0,0.0,0.0,0.0,0.0,0.0,0.0,0.0,0.0,0.0,0.0,0.0,0.0,2.6836,2.6582,0.0,0.0,0.0,2.625,2.668,0.0,0.0,0.0,0.0,0.0,0.0,0.0,0.0,0.0,0.0,0.0,0.0,0.0,0.0,0.0,0.0,0.0,0.0,0.0,0.0,0.0,0.0,0.0,0.0,0.0,0.0,0.0,0.0,0.0,0.0,0.0,0.0,0.0,0.0,0.0,0.0,0.0,0.0,0.0,0.0,0.0,0.0,0.0,0.0,0.0,0.0,0.0,0.0,0.0,0.0,0.0,0.0,0.0,0.0,0.0,0.0,0.0,3.4299,3.814,4.12,4.3531,4.4227,4.443,4.4011,4.1229,0.0,0.0,0.0,0.0,0.0,0.0,0.0,0.0,0.0,0.0,0.0,0.0,0.0,0.0,0.0,0.0,0.0,0.0,0.0,0.0,0.0,0.0,0.0,0.0,0.0,0.0,0.0,1.9012,0.0,0.0,0.0,0.0,0.0,0.0,0.0,0.0,0.0,0.0,0.0,0.0,0.0,0.0,2.6777,2.7422,2.7129,2.7285,0.0,0.0,2.7051,2.7578,2.7559,2.7012,0.0,0.0,0.0,0.0,0.0,0.0,0.0,0.0,0.0,0.0,0.0,0.0,0.0,0.0,0.0,0.0,0.0,0.0,0.0,0.0,0.0,0.0,0.0,0.0,0.0,0.0,0.0,0.0,2.7668,0.0,0.0,0.0,0.0,0.0,0.0,0.0,0.0,0.0,0.0,0.0,0.0,0.0,0.0,0.0,0.0,0.0,0.0,0.0,0.0,0.0,0.0,0.0,0.0,0.0,3.249,3.4877,3.9412,4.2882,4.5332,4.58,4.6048,4.6128,4.4525,4.1484,0.0,0.0,0.0,0.0,0.0,0.0,0.0,0.0,0.0,0.0,0.0,0.0,0.0,0.0,0.0,0.0,0.0,0.0,0.0,0.0,0.0,0.0,0.0,0.0,0.0,0.0,0.0,0.0,0.0,0.0,0.0,0.0,0.0,0.0,0.0,0.0,0.0,0.0,0.0,0.0,0.0,2.6992,2.7051,2.7695,2.8476,0.0,2.875,2.8457,2.9258,2.9043,2.8223,2.6562,0.0,0.0,0.0,0.0,0.0,0.0,0.0,0.0,0.0,0.0,0.0,0.0,0.0,0.0,0.0,0.0,0.0,0.0,0.0,0.0,0.0,0.0,0.0,0.0,0.0,2.7516,2.7836,0.0,2.8459,0.0,0.0,0.0,0.0,0.0,0.0,0.0,0.0,0.0,0.0,0.0,0.0,0.0,0.0,0.0,0.0,0.0,0.0,0.0,0.0,0.0,0.0,0.0,0.0,3.3346,3.5722,4.0056,4.3151,4.4954,4.6081,4.6265,4.5522,4.4395,4.1663,0.0,0.0,0.0,0.0,0.0,0.0,0.0,0.0,0.0,0.0,0.0,0.0,0.0,0.0,0.0,0.0,0.0,0.0,0.0,0.0,0.0,0.0,0.0,0.0,0.0,0.0,0.0,0.0,2.3194,2.3138,2.2802,0.0,0.0,0.0,0.0,0.0,0.0,0.0,0.0,0.0,0.0,2.9259,2.8793,2.9608,0.0,0.0,2.9668,2.9394,2.9199,2.9023,2.834,2.666,2.6016,0.0,0.0,0.0,0.0,0.0,0.0,0.0,0.0,0.0,0.0,0.0,0.0,0.0,0.0,0.0,0.0,0.0,0.0,0.0,0.0,0.0,0.0,0.0,0.0,0.0,0.0,0.0,0.0,0.0,0.0,0.0,0.0,0.0,0.0,0.0,0.0,0.0,0.0,0.0,0.0,0.0,0.0,0.0,0.0,0.0,0.0,0.0,0.0,0.0,0.0,0.0,0.0,3.4268,3.6538,4.0816,4.3794,4.5362,4.6775,4.6969,4.5912,4.4889,4.2512,0.0,0.0,0.0,0.0,0.0,0.0,0.0,0.0,0.0,0.0,0.0,0.0,0.0,0.0,0.0,0.0,0.0,0.0,0.0,0.0,0.0,0.0,0.0,0.0,0.0,0.0,0.0,0.0,2.5075,2.4786,2.3662,0.0,0.0,0.0,0.0,0.0,0.0,0.0,0.0,0.0,0.0,3.0858,3.0138,3.0846,3.1113,3.0307,2.998,2.9687,2.9355,2.9082,2.8437,2.7012,0.0,0.0,0.0,0.0,0.0,0.0,0.0,0.0,0.0,0.0,0.0,0.0,0.0,0.0,0.0,0.0,0.0,0.0,0.0,0.0,0.0,0.0,0.0,0.0,0.0,0.0,0.0,2.8616,0.0,0.0,2.8541,0.0,0.0,0.0,0.0,0.0,0.0,0.0,0.0,0.0,0.0,0.0,0.0,0.0,0.0,0.0,0.0,0.0,0.0,0.0,0.0,0.0,0.0,3.5203,3.7304,4.1852,4.5203,4.707,4.8044,4.8395,4.8036,4.6884,4.4636,4.1222,0.0,0.0,0.0,0.0,0.0,0.0,0.0,0.0,0.0,0.0,0.0,0.0,0.0,0.0,0.0,0.0,0.0,0.0,0.0,0.0,0.0,0.0,0.0,0.0,0.0,0.0,2.6644,2.6439,2.5683,0.0,0.0,0.0,0.0,0.0,0.0,0.0,0.0,0.0,0.0,3.0773,3.146,3.0798,3.1117,3.1209,3.0364,2.9587,2.9258,3.0019,2.9453,2.8633,0.0,0.0,0.0,0.0,0.0,0.0,0.0,0.0,0.0,0.0,0.0,0.0,0.0,0.0,0.0,0.0,0.0,0.0,0.0,0.0,0.0,0.0,0.0,0.0,0.0,0.0,0.0,3.2297,3.1711,0.0,0.0,0.0,0.0,0.0,0.0,0.0,0.0,0.0,0.0,0.0,3.7953,3.9033,0.0,0.0,0.0,0.0,0.0,0.0,0.0,0.0,0.0,0.0,0.0,0.0,3.642,3.8229,4.271,4.5673,4.6983,4.8496,4.8779,4.7667,4.6795,4.4242,3.9848,0.0,0.0,0.0,0.0,0.0,0.0,0.0,0.0,0.0,0.0,0.0,0.0,0.0,0.0,0.0,0.0,0.0,0.0,0.0,0.0,0.0,0.0,0.0,0.0,0.0,2.6748,0.0,0.0,0.0,0.0,0.0,0.0,0.0,0.0,0.0,0.0,0.0,2.9308,3.0446,3.2394,3.3361,3.2375,3.3214,3.3483,0.0,0.0,0.0,0.0,0.0,0.0,0.0,0.0,0.0,0.0,0.0,0.0,0.0,0.0,2.7891,2.5332,2.4863,2.5,2.543,0.0,0.0,0.0,0.0,0.0,0.0,0.0,0.0,0.0,0.0,0.0,0.0,0.0,0.0,3.5864,3.5283,3.4754,0.0,0.0,0.0,0.0,0.0,0.0,0.0,0.0,3.974,4.09,4.1759,4.2831,4.2635,0.0,4.1204,3.9158,0.0,0.0,0.0,0.0,0.0,0.0,0.0,0.0,3.7192,3.8814,4.2904,4.565,4.6904,4.8192,4.8432,4.7558,4.618,4.3564,3.9572,3.6784,3.4726,0.0,0.0,0.0,0.0,0.0,0.0,0.0,0.0,0.0,0.0,0.0,0.0,0.0,0.0,0.0,0.0,0.0,0.0,0.0,0.0,0.0,0.0,0.0,2.8186,0.0,0.0,0.0,0.0,0.0,0.0,0.0,0.0,0.0,2.8049,2.9804,3.1646,3.3033,3.445,3.4996,3.4032,0.0,0.0,0.0,0.0,0.0,0.0,0.0,3.1067,3.0463,3.0081,2.9816,2.985,3.0396,3.0703,3.0117,0.0,0.0,2.7637,2.709,2.7207,2.7637,2.748,2.7402,2.7812,2.7571,2.7266,0.0,0.0,0.0,0.0,0.0,0.0,0.0,0.0,3.9827,3.9722,0.0,3.8193,0.0,0.0,0.0,0.0,0.0,3.7722,0.0,0.0,4.4109,4.502,4.5598,4.5623,4.5296,4.4694,4.4166,4.2785,4.0523,3.8467,0.0,0.0,0.0,0.0,0.0,0.0,3.7513,3.9242,4.2723,4.5306,4.6942,4.7332,4.7558,4.7782,4.5221,4.2836,4.0676,3.8944,3.7287,3.5633,3.3018,0.0,0.0,0.0,0.0,0.0,0.0,0.0,0.0,0.0,0.0,0.0,0.0,0.0,0.0,0.0,0.0,0.0,0.0,0.0,0.0,2.9478,0.0,0.0,0.0,0.0,0.0,0.0,0.0,0.0,0.0,0.0,3.0625,3.1739,3.3766,3.672,0.0,0.0,0.0,0.0,3.5047,3.3479,3.3275,3.3548,3.3857,3.3956,3.401,3.3966,0.0,0.0,3.1722,3.1939,3.2152,3.127,3.217,3.248,3.1211,3.0254,2.9824,3.0176,2.9668,2.9258,2.959,2.9746,2.9553,4.9285,0.0,0.0,0.0,0.0,4.2186,4.3267,4.4776,4.4957,4.423,4.2922,4.2332,0.0,0.0,0.0,0.0,0.0,0.0,4.2591,4.5372,4.61,4.7129,4.841,4.8435,4.7908,4.6979,4.6803,4.5598,4.3463,4.2409,3.9545,3.499,0.0,0.0,0.0,0.0,3.854,4.0917,4.3324,4.5489,4.7345,4.762,4.7432,4.6778,4.4844,4.3313,4.2283,4.03,3.8617,3.7337,3.5429,0.0,0.0,0.0,0.0,0.0,0.0,0.0,0.0,0.0,0.0,0.0,0.0,0.0,0.0,0.0,0.0,0.0,0.0,0.0,2.9503,3.0382,3.0518,0.0,0.0,0.0,0.0,0.0,0.0,0.0,0.0,0.0,3.4029,3.4102,3.4773,0.0,0.0,3.6357,3.6169,3.6467,3.6633,3.6518,3.6777,0.0,3.6735,3.6757,3.6645,3.6308,3.6707,3.6853,3.6152,3.5997,3.5753,3.5023,3.4764,3.4414,3.375,3.291,3.2402,3.2441,3.2285,3.2168,3.2285,3.2324,3.2266,5.6278,5.0641,4.7841,4.6739,4.6858,4.7419,4.8394,4.9715,4.9515,4.8798,4.7795,4.6673,4.5007,4.2967,4.1787,0.0,0.0,0.0,4.55,4.7933,4.8284,4.9088,5.0218,5.0243,4.9791,4.8912,4.8686,4.7657,4.5924,4.4945,4.2459,3.8542,0.0,0.0,3.6718,3.8036,3.9759,4.1824,4.3639,4.5544,4.7445,4.7746,4.7305,4.6024,4.4769,4.3765,4.2986,4.1304,3.9823,3.8718,3.686,3.4926,0.0,0.0,0.0,0.0,0.0,0.0,0.0,0.0,0.0,0.0,0.0,2.7469,2.7178,0.0,0.0,0.0,2.9779,3.0482,3.1035,3.1486,0.0,0.0,0.0,0.0,0.0,0.0,0.0,3.4303,3.5478,3.6592,3.7348,3.7421,3.7589,3.8214,3.8118,3.807,3.8262,0.0,3.8745,3.884,3.9514,3.9826,3.9593,3.9859,4.0009,3.9702,3.9962,4.009,3.9684,3.9368,3.8943,3.8299,3.7785,3.7254,3.6301,3.5759,3.4995,3.4127,3.3926,3.3926,3.3926,3.4062,3.4199,6.2094,6.0211,5.5039,5.2452,5.18,5.2277,5.303,5.3858,5.3331,5.3036,5.2904,5.0845,4.9289,4.8109,4.6075,0.0,4.7469,4.7531,4.8661,5.067,5.067,5.0971,5.1448,5.1473,5.1147,5.0544,5.0042,4.9188,4.7983,4.6502,4.4844,4.3087,4.1028,3.9569,3.8789,3.9892,4.1056,4.2224,4.3754,4.5445,4.7383,4.7708,4.7104,4.5522,4.492,4.4116,4.3011,4.1907,4.0852,3.9772,3.7762,3.6103,3.4876,0.0,0.0,0.0,0.0,0.0,0.0,0.0,0.0,0.0,0.0,0.0,0.0,0.0,0.0,3.0608,3.1863,0.0,3.3514,3.3068,0.0,0.0,0.0,3.3997,3.5086,3.6347,3.7419,3.8199,0.0,0.0,4.0507,4.1076,4.1461,4.1557,4.098,4.0763,4.1244,4.1293,4.1196,4.0779,4.1581,4.223,4.2328,4.3,4.3463,4.3372,4.3438,4.3005,4.247,4.2126,4.1723,4.0958,4.084,4.023,3.8804,3.8433,3.7766,3.5481,3.5007,3.4941,3.498,3.5273,3.5547,6.4228,6.3274,6.0713,5.8127,5.5717,5.5817,5.5767,5.5566,5.5039,5.4561,5.411,5.3155,5.2126,5.1046,5.0117,5.0142,5.0921,5.0921,5.1649,5.2879,5.2929,5.3005,5.313,5.313,5.2628,5.1749,5.1574,5.072,4.9213,4.8385,4.6728,4.4292,4.3288,4.1852,4.012,4.0351,4.1439,4.3362,4.3579,4.4661,4.6506,4.7043,4.6728,4.5522,4.492,4.4091,4.3011,4.1907,4.1028,4.0325,3.9019,3.7588,3.6081,3.3771,0.0,0.0,0.0,0.0,0.0,0.0,0.0,0.0,0.0,2.9478,2.8197,0.0,3.008,0.0,3.4374,3.6408,3.7387,3.741,0.0,0.0,3.7814,3.8116,3.9544,3.9981,4.0202,4.0442,4.1344,4.2035,4.2217,4.3024,4.389,4.4635,4.3289,4.2254,4.2434,4.2735,4.3072,4.3385,4.3962,4.4515,4.49,4.5164,4.5342,4.5334,4.5262,4.5131,4.479,4.4267,4.3601,4.2927,4.1906,4.0954,4.0314,3.9702,3.8979,3.7794,3.7095,3.668,3.668,3.6758,3.6836,6.5764,6.5082,6.3676,6.1316,5.8504,5.8504,5.8328,5.7976,5.7198,5.6696,5.6344,5.529,5.4361,5.3557,5.3005,5.2904,5.3206,5.3206,5.3532,5.4084,5.4084,5.4084,5.4084,5.3833,5.3381,5.2804,5.2327,5.1498,5.0343,4.954,4.8234,4.6476,4.5673,4.4418,4.276,4.1479,4.1703,4.3413,4.4019,4.4969,4.6276,4.6853,4.6376,4.4794,4.4192,4.3137,4.158,4.045,3.9597,3.9044,3.799,3.686,3.5705,3.4022,3.2566,0.0,0.0,0.0,0.0,0.0,0.0,0.0,0.0,0.0,0.0,0.0,3.2039,3.3897,3.686,3.8919,3.9546,3.9823,4.0375,4.1404,4.1455,4.1998,4.3382,4.3581,4.3733,4.4038,4.4462,4.4798,4.4914,4.5597,4.6295,4.6896,4.6175,4.5381,4.4996,4.5116,4.5405,4.5718,4.6199,4.6728,4.7257,4.7329,4.7329,4.7305,4.7136,4.6957,4.6798,4.6257,4.5625,4.4864,4.412,4.3281,4.2469,4.1946,4.1348,4.0285,3.9675,3.8899,3.7594,3.7461,3.7578,6.6691,6.6065,6.4813,6.2909,6.076,6.0459,6.0108,5.9709,5.8654,5.8227,5.8227,5.6972,5.6118,5.5566,5.5089,5.4838,5.4859,5.4762,5.4787,5.4762,5.4787,5.4737,5.4637,5.4084,5.3783,5.3658,5.2678,5.1925,5.1348,5.0318,4.9414,4.8636,4.7631,4.6577,4.5422,4.3011,4.2158,4.2961,4.4644,4.5723,4.62,4.6527,4.5698,4.3689,4.2986,4.1656,3.9572,3.8517,3.7764,3.7186,3.6285,3.5633,3.5253,3.4198,3.3237,0.0,3.1687,0.0,0.0,0.0,0.0,0.0,0.0,0.0,0.0,3.4198,3.4977,3.6983,3.9496,4.11,4.1455,4.1882,4.2755,4.4342,4.497,4.5673,4.6642,4.6885,4.7307,4.7936,4.78,4.7644,4.7768,4.8233,4.8455,4.8527,4.8768,4.8579,4.805,4.7714,4.7593,4.769,4.8074,4.8363,4.8772,4.8964,4.8964,4.8964,4.8507,4.8315,4.8219,4.7743,4.7208,4.665,4.6315,4.582,4.4664,4.4367,4.3816,4.2452,4.215,4.1165,3.8567,3.7987,3.806,6.6518,6.6123,6.4173,6.329,6.297,6.1204,5.9148,5.6922,5.5817,5.5591,5.6093,5.7123,5.7273,5.6746,5.662,5.6319,5.5917,5.5892,5.5892,5.5892,5.5892,5.5666,5.5214,5.4662,5.416,5.3683,5.3055,5.2503,5.1925,5.1272,4.9967,4.8083,4.7394,4.6577,4.5497,0.0,0.0,0.0,4.4618,4.5547,4.5623,4.4844,4.379,4.2564,4.1505,0.0,3.8442,3.8115,3.7739,3.7236,3.7412,0.0,0.0,0.0,0.0,0.0,0.0,0.0,0.0,0.0,0.0,0.0,3.8165,3.7462,3.6709,3.8542,4.0124,4.1081,4.276,4.4568,4.6326,4.6602,4.7154,4.8335,4.8586,4.8785,4.9177,4.9262,4.9388,4.9675,4.9682,4.9664,4.9652,4.9572,4.9587,4.9907,4.9869,4.99,5.0022,4.9277,4.8796,4.8796,4.8916,4.8964,4.906,4.9133,4.9181,4.9012,4.8628,4.8339,4.8291,4.7858,4.7497,4.7232,4.6808,4.6338,4.6001,4.5528,4.4823,4.3976,4.3769,4.287,3.9902,3.9298,3.9161,6.6023,0.0,6.3891,6.2658,0.0,6.0082,5.791,5.5657,5.6623,5.7148,5.7449,5.7825,5.7674,5.71,5.6275,5.5476,5.4652,5.401,5.4177,5.4963,5.482,5.5121,5.5767,5.4963,5.4411,5.411,5.3306,5.2628,5.2101,5.1825,5.0971,4.959,4.8761,4.8058,4.7506,4.6677,4.5698,4.4618,4.5472,4.615,4.6627,4.5874,4.4794,4.3413,4.2559,0.0,0.0,0.0,0.0,0.0,0.0,0.0,0.0,0.0,0.0,3.9195,3.8718,3.8894,3.9948,4.03,4.1178,4.2836,4.3714,4.3237,4.1028,4.3137,4.4819,4.5372,4.6451,4.7631,4.8962,4.9163,4.949,5.0293,5.0419,5.0579,5.088,5.0821,5.0844,5.1204,5.1097,5.0916,5.0754,5.0778,5.0693,5.0589,5.0543,5.057,5.06,5.0239,4.9902,4.9878,4.9878,4.9878,4.9878,4.9878,4.9854,4.9806,4.9205,4.8748,4.8676,4.8026,4.7497,4.7497,4.7165,4.6965,4.6898,4.6607,4.6204,4.5504,4.5301,4.4595,4.2376,4.1034,3.991,6.5356,6.5091,6.3571,6.1855,6.009,5.8913,5.7348,5.5705,0.0,0.0,0.0,5.8315,5.7791,5.7097,5.5757,5.4566,5.3378,5.2227,5.2461,5.3773,5.3392,5.416,5.5624,5.4817,5.4365,5.429,5.3337,5.2703,5.2277,5.2176,5.1875,5.1373,5.0393,4.9891,4.9816,4.8962,4.8083,4.7205,4.6702,4.6878,4.7707,4.7154,4.6125,4.4669,4.3991,4.276,4.0877,4.0375,4.0124,4.0124,3.9798,3.9898,4.0526,4.0651,4.1003,4.163,4.1781,4.2459,4.389,4.4418,4.5347,4.6928,4.8385,4.8159,4.5673,4.7255,4.8535,4.9012,4.9565,5.0092,5.067,5.072,5.0946,5.1498,5.1574,5.1749,5.2108,5.1954,5.1967,5.2347,5.2164,5.1866,5.1607,5.1677,5.1681,5.119,5.1187,5.1141,5.0908,5.0718,5.06,5.06,5.0551,5.0648,5.0696,5.0648,5.0672,5.0407,4.9662,4.9084,4.882,4.8147,4.7569,4.7497,4.7497,4.7431,4.7497,4.7431,4.7298,4.6674,4.654,4.6136,4.4664,4.2914,4.1297,6.4421,6.3522,6.2413,6.1753,6.1265,5.9731,5.8576,5.7819,5.7232,5.6767,5.6421,5.7675,5.77,5.6715,5.6493,5.5804,5.4672,5.4033,5.3884,5.408,5.3611,5.3537,5.3782,5.3499,5.3367,5.3387,5.3067,5.2879,5.2779,5.2327,5.2051,5.1925,5.1348,5.1046,5.1021,5.0896,5.0745,5.0544,4.8234,4.7079,4.7168,4.625,4.5372,4.4644,4.3689,4.276,4.2011,4.1936,4.1861,4.1861,4.2238,4.2861,4.3865,4.4392,4.5121,4.6125,4.6627,4.7205,4.7945,4.8033,4.8586,4.9715,5.0519,5.0343,4.9088,4.9615,5.0092,5.0218,5.072,5.1272,5.1774,5.185,5.2051,5.2553,5.2678,5.2729,5.2779,5.271,5.2666,5.2767,5.2792,5.2723,5.2585,5.2421,5.2238,5.2099,5.1796,5.1586,5.1236,5.0908,5.0696,5.0696,5.0696,5.0696,5.0696,5.0696,5.0479,5.0116,4.9469,4.8892,4.8531,4.793,4.7521,4.7497,4.7497,4.7497,4.7497,4.7497,4.7431,4.7298,4.7232,4.6808,4.5481,4.4778,4.4092,6.3875,6.2889,6.2119,6.1218,6.0313,5.866,5.7878,5.7552,5.7066,5.6936,5.7152,5.7413,5.7066,5.6284,5.5428,5.4376,5.3326,5.2036,5.1983,5.2828,5.2125,5.2416,5.3271,5.3042,5.2961,5.3147,5.2556,5.2446,5.2629,5.2379,5.2279,5.2229,5.1933,5.1574,5.1297,5.1272,5.1272,5.1272,5.0042,4.9389,4.9364,4.8586,4.8033,4.7757,4.6979,4.6451,4.62,4.5959,4.5933,4.6175,4.615,4.6476,4.7255,4.7581,4.8083,4.8862,4.9138,4.9515,5.0092,5.0419,5.0795,5.1297,5.185,5.1975,5.1448,5.1348,5.1448,5.1749,5.2026,5.2277,5.2528,5.2553,5.2653,5.2904,5.2861,5.2861,5.2861,5.2861,5.2861,5.2861,5.2861,5.2792,5.2654,5.2654,5.2515,5.2169,5.189,5.1726,5.1586,5.1401,5.1119,5.0791,5.0696,5.0696,5.0672,5.0431,5.0167,4.9878,4.9181,4.8628,4.8291,4.7858,4.7545,4.7497,4.7497,4.7497,4.7497,4.7497,4.7497,4.7497,4.7497,4.7074,4.6674,4.6516,4.5549,6.3346,6.236,6.1831,6.0676,5.9113,5.7766,5.7141,5.7021,5.7021,5.7339,5.7819,5.7047,5.6435,5.5929,5.4591,5.3571,5.2548,5.1022,5.1062,5.2168,5.1516,5.1929,5.3074,5.2826,5.2816,5.2973,5.2367,5.2238,5.2515,5.2515,5.2515,5.2466,5.2366,5.2076,5.1649,5.1649,5.1649,5.1649,5.1649,5.1548,5.1272,5.0845,5.0594,5.0594,5.0167,4.9967,4.9967,4.9565,4.954,4.9916,4.9565,4.954,4.9941,5.0092,5.0343,5.0745,5.0921,5.1172,5.1624,5.2051,5.2302,5.2302,5.2678,5.2861,5.2879,5.2553,5.2452,5.2854,5.281,5.2836,5.2836,5.2904,5.2861,5.2861,5.2861,5.2861,5.2861,5.2861,5.2861,5.2861,5.2861,5.2792,5.2654,5.2723,5.2654,5.2238,5.203,5.196,5.196,5.1796,5.1401,5.1049,5.0837,5.067,5.0527,5.0167,4.9806,4.9614,4.8868,4.8339,4.8074,4.7738,4.7545,4.7497,4.7497,4.7497,4.7497,4.7497,4.7497,4.7497,4.7497,4.7497,4.7431,4.7364,4.6607,6.2817,6.1855,6.1277,6.0123,5.8656,5.7983,5.743,5.7045,5.7021,5.7021,5.7132,5.6546,5.6148,5.5925,5.5321,5.4814,5.4549,5.4034,5.3739,5.3739,5.3394,5.2976,5.2801,5.2985,5.2924,5.2596,5.261,5.2723,5.2792,5.2767,5.2861,5.2861,5.2879,5.2804,5.2754,5.2754,5.2754,5.2779,5.2779,5.2277,5.1348,5.1222,5.1197,5.1197,5.1172,5.1122,5.1122,5.1071,5.1071,5.1122,5.1071,5.1071,5.1172,5.1574,5.1875,5.195,5.2402,5.2729,5.2754,5.2829,5.2829,5.2854,5.281,5.2861,5.2861,5.281,5.2854,5.2929,5.2861,5.2861,5.2861,5.2861,5.2861,5.2861,5.2861,5.2861,5.2861,5.2861,5.2861,5.2861,5.2861,5.2861,5.2861,5.2861,5.2861,5.2723,5.2446,5.2308,5.2308,5.1866,5.1397,5.1187,5.1141,5.0783,5.0234,4.9926,4.9445,4.87,4.8387,4.8074,4.7762,4.7593,4.7497,4.7497,4.7497,4.7497,4.7497,4.7497,4.7497,4.7497,4.7497,4.7497,4.7497,4.7497,4.6874,6.2263,6.1253,6.0724,5.957,5.8151,5.7574,5.7213,5.7021,5.7021,5.7021,5.69,5.6131,5.5679,5.5593,5.4748,5.4316,5.4248,5.3812,5.3545,5.3497,5.3011,5.2791,5.2788,5.2588,5.2625,5.2824,5.2456,5.2352,5.2585,5.2585,5.2723,5.2861,5.2861,5.2861,5.2861,5.2861,5.2861,5.2861,5.2861,5.2703,5.2327,5.2251,5.2251,5.2251,5.2251,5.2251,5.2251,5.2251,5.2251,5.2251,5.2251,5.2251,5.2251,5.2477,5.2578,5.2603,5.2804,5.2861,5.2861,5.2861,5.2861,5.2861,5.2861,5.2861,5.2861,5.2861,5.2861,5.2861,5.2861,5.2861,5.2861,5.2861,5.2861,5.2861,5.2861,5.2861,5.2861,5.2861,5.2861,5.2861,5.2861,5.2861,5.2861,5.2861,5.2861,5.2861,5.2792,5.2654,5.2654,5.2421,5.1926,5.1239,5.1097,5.0746,5.0038,4.9277,4.8796,4.8387,4.8026,4.769,4.7593,4.7497,4.7497,4.7497,4.7497,4.7497,4.7497,4.7497,4.7497,4.7497,4.7497,4.7497,4.7497,4.7497,4.7298,6.1734,6.07,5.9883,5.8872,5.779,5.7237,5.7021,5.7021,5.7021,5.7021,5.69,5.5866,5.5385,5.5241,5.4355,5.4047,5.4074,5.3735,5.364,5.3616,5.3253,5.3132,5.3326,5.2959,5.2949,5.3147,5.2705,5.2456,5.254,5.2515,5.2654,5.2861,5.2861,5.2861,5.2861,5.2861,5.2861,5.2861,5.2861,5.2861,5.2836,5.2861,5.2861,5.2861,5.2861,5.2861,5.2861,5.2861,5.2861,5.2861,5.2861,5.2861,5.2861,5.2861,5.2861,5.2861,5.2861,5.2861,5.2861,5.2861,5.2861,5.2861,5.2861,5.2861,5.2861,5.2861,5.2861,5.2861,5.2861,5.2861,5.2861,5.2861,5.2861,5.2861,5.2861,5.2861,5.2861,5.2861,5.2861,5.2861,5.2861,5.2861,5.2861,5.2861,5.2861,5.2861,5.2861,5.2861,5.281,5.2573,5.1955,5.1147,5.0695,5.0084,4.9511,4.8892,4.8315,4.8026,4.7738,4.7545,4.7497,4.7497,4.7497,4.7497,4.7497,4.7497,4.7497,4.7497,4.7497,4.7497,4.7497,4.7497,4.7497,4.7497,4.7497,6.1181,6.0051,5.856,5.7911,5.7766,5.7261,5.7021,5.7021,5.7021,5.7021,5.6876,5.5866,5.5385,5.5313,5.4582,5.457,5.4868,5.4769,5.4745,5.472,5.4696,5.4746,5.4715,5.4665,5.4309,5.3693,5.3518,5.3242,5.2886,5.2861,5.2861,5.2861,5.2861,5.2861,5.2861,5.2861,5.2861,5.2861,5.2861,5.2861,5.2861,5.2861,5.2861,5.2861,5.2861,5.2861,5.2861,5.2861,5.2861,5.2861,5.2861,5.2861,5.2861,5.2861,5.2861,5.2861,5.2861,5.2861,5.2861,5.2861,5.2861,5.2861,5.2861,5.2861,5.2861,5.2861,5.2861,5.2861,5.2861,5.2861,5.2861,5.2861,5.2861,5.2861,5.2861,5.2861,5.2861,5.2861,5.2861,5.2861,5.2861,5.2861,5.2861,5.2861,5.2861,5.2861,5.2861,5.2861,5.2717,5.193,5.1264,5.0763,4.9903,4.8859,4.843,4.8334,4.8093,4.7786,4.7617,4.7497,4.7497,4.7497,4.7497,4.7497,4.7497,4.7497,4.7497,4.7497,4.7497,4.7497,4.7497,4.7497,4.7497,4.7497,4.7497,6.0436,5.9113,5.8199,5.7622,5.7285,5.7093,5.7021,5.7021,5.7021,5.7021,5.6828,5.5866,5.5385,5.5337,5.4431,5.4122,5.4197,5.4197,5.4197,5.4197,5.4197,5.4324,5.4574,5.4475,5.4223,5.3957,5.3743,5.3432,5.2911,5.2861,5.2861,5.2861,5.2861,5.2861,5.2861,5.2861,5.2861,5.2861,5.2861,5.2861,5.2861,5.2861,5.2861,5.2861,5.2861,5.2861,5.2861,5.2861,5.2861,5.2861,5.2861,5.2861,5.2861,5.2861,5.2861,5.2861,5.2861,5.2861,5.2861,5.2861,5.2861,5.2861,5.2861,5.2861,5.2861,5.2861,5.2861,5.2861,5.2861,5.2861,5.2861,5.2861,5.2861,5.2861,5.2861,5.2861,5.2861,5.2861,5.2861,5.2861,5.2861,5.2861,5.2861,5.2861,5.2861,5.2861,5.2861,5.2861,5.276,5.2179,5.1408,5.058,4.9787,4.884,4.7852,4.7986,4.7955,4.766,4.7497,4.7497,4.7497,4.7497,4.7497,4.7497,4.7497,4.7497,4.7497,4.7497,4.7497,4.7497,4.7497,4.7497,4.7497,4.7497,4.7497,5.9474,5.8343,5.7766,5.7357,5.7045,5.7021,5.7021,5.7021,5.7021,5.7021,5.6828,5.5866,5.5385,5.5217,5.4431,5.3972,5.3972,5.3897,5.3822,5.3822,5.3822,5.4122,5.4497,5.45,5.4448,5.4359,5.3894,5.3507,5.3181,5.3005,5.2861,5.2861,5.2861,5.2861,5.2861,5.2861,5.2861,5.2861,5.2861,5.2861,5.2861,5.2861,5.2861,5.2861,5.2861,5.2861,5.2861,5.2861,5.2861,5.2861,5.2861,5.2861,5.2861,5.2861,5.2861,5.2861,5.2861,5.2861,5.2861,5.2861,5.2861,5.2861,5.2861,5.2861,5.2861,5.2861,5.2861,5.2861,5.2861,5.2861,5.2861,5.2861,5.2861,5.2861,5.2861,5.2861,5.2861,5.2861,5.2861,5.2861,5.2861,5.2861,5.2861,5.2861,5.2861,5.2861,5.2861,5.2861,5.2854,5.2141,5.1455,5.0511,4.9734,4.8886,4.813,4.8081,4.8015,4.7654,4.7497,4.7497,4.7497,4.7497,4.7497,4.7497,4.7497,4.7497,4.7497,4.7497,4.7497,4.7497,4.7497,4.7497,4.7497,4.7497,4.7497,5.8319,5.7814,5.7237,5.7069,5.7021,5.7021,5.7021,5.7021,5.7021,5.7021,5.6876,5.5866,5.5385,5.5246,5.4657,5.4397,5.4272,5.4047,5.3972,5.3897,5.3897,5.4272,5.4942,5.4992,5.5113,5.5193,5.426,5.3733,5.3607,5.3231,5.3005,5.2861,5.2861,5.2861,5.2861,5.2911,5.2955,5.2955,5.298,5.2911,5.2861,5.2861,5.2861,5.2861,5.2861,5.2861,5.2861,5.2861,5.2861,5.2861,5.2861,5.2861,5.2861,5.2861,5.2861,5.2861,5.2861,5.2861,5.2861,5.2861,5.2861,5.2861,5.2861,5.2861,5.2861,5.2861,5.2861,5.2861,5.2861,5.2861,5.2861,5.2861,5.2861,5.2861,5.2861,5.2861,5.2861,5.2861,5.2861,5.2861,5.2861,5.2861,5.2861,5.2861,5.2861,5.2861,5.2861,5.2861,5.276,5.1847,5.0904,5.0538,4.9851,4.883,4.8469,4.8248,4.7984,4.7696,4.7563,4.7497,4.7497,4.7497,4.7497,4.7497,4.7497,4.7497,4.7497,4.7497,4.7497,4.7497,4.7497,4.7497,4.7497,4.7497,4.7497,5.7959,5.7742,5.7237,5.7021,5.7021,5.7021,5.7021,5.7021,5.7021,5.7021,5.6828,5.589,5.5385,5.5222,5.4657,5.4397,5.4397,5.457,5.4669,5.4669,5.4595,5.4744,5.5041,5.5263,5.5407,5.5268,5.4637,5.4084,5.3758,5.3532,5.3306,5.3005,5.2886,5.2861,5.3005,5.3256,5.3306,5.3005,5.3281,5.3306,5.2911,5.2861,5.2861,5.2861,5.2861,5.2861,5.2861,5.2861,5.2861,5.2861,5.2861,5.2861,5.2861,5.2861,5.2861,5.2861,5.2861,5.2861,5.2861,5.2861,5.2861,5.2861,5.2861,5.2861,5.2861,5.2861,5.2861,5.2861,5.2861,5.2861,5.2861,5.2861,5.2861,5.2861,5.2861,5.2861,5.2861,5.2861,5.2861,5.2861,5.2861,5.2861,5.2861,5.2861,5.2861,5.2861,5.2861,5.2861,5.271,5.184,5.103,5.068,4.9768,4.9032,4.8682,4.8445,4.8158,4.7894,4.7696,4.7497,4.7497,4.7497,4.7497,4.7497,4.7497,4.7497,4.7497,4.7497,4.7497,4.7497,4.7497,4.7497,4.7497,4.7497,4.7497,5.7694,5.7478,5.7165,5.7021,5.7021,5.7021,5.7021,5.7021,5.7021,5.7021,5.6804,5.589,5.5385,5.5246,5.4733,5.452,5.4645,5.5041,5.5337,5.5337,5.5115,5.5115,5.5263,5.5607,5.5776,5.5594,5.5139,5.4687,5.4336,5.411,5.3858,5.3582,5.3532,5.3557,5.3557,5.3833,5.3833,5.3632,5.3858,5.3758,5.3331,5.3206,5.313,5.2886,5.2861,5.2861,5.2861,5.2861,5.2861,5.2861,5.2861,5.2861,5.2861,5.2861,5.2861,5.2861,5.2861,5.2861,5.2861,5.2861,5.2861,5.2861,5.2861,5.2861,5.2861,5.2861,5.2861,5.2861,5.2861,5.2861,5.2861,5.2861,5.2861,5.2861,5.2861,5.2861,5.2861,5.2861,5.2861,5.2861,5.2861,5.2861,5.2861,5.2861,5.2861,5.2861,5.2861,5.2861,5.2635,5.1975,5.1322,5.0755,5.0006,4.9361,4.8927,4.8616,4.842,4.8092,4.7852,4.763,4.7497,4.7497,4.7497,4.7497,4.7497,4.7497,4.7497,4.7497,4.7497,4.7497,4.7497,4.7497,4.7497,4.7497,4.7497,5.7478,5.7045,5.7021,5.7021,5.7021,5.7021,5.7021,5.7021,5.7021,5.7021,5.678,5.5866,5.5385,5.5246,5.4733,5.457,5.5041,5.5337,5.5779,5.5852,5.5558,5.5337,5.5632,5.5999,5.6095,5.6068,5.5666,5.539,5.5164,5.4787,5.4587,5.4436,5.4386,5.4511,5.4436,5.4561,5.4536,5.4436,5.4607,5.431,5.3783,5.3758,5.3507,5.3055,5.303,5.3005,5.2929,5.2861,5.2861,5.2861,5.2861,5.2861,5.2861,5.2861,5.2861,5.2861,5.2861,5.2861,5.2861,5.2861,5.2861,5.2861,5.2861,5.2861,5.2861,5.2861,5.2861,5.2861,5.2861,5.2861,5.2861,5.2861,5.2861,5.2861,5.2861,5.2861,5.2861,5.2861,5.2861,5.2861,5.2861,5.2861,5.2861,5.2861,5.2861,5.2861,5.2861,5.2861,5.2703,5.2126,5.1473,5.0845,5.0203,4.9646,4.9137,4.8942,4.8747,4.8551,4.8182,4.7894,4.7563,4.7563,4.7497,4.7497,4.7497,4.7497,4.7497,4.7497,4.7497,4.7497,4.7497,4.7497,4.7497,4.7497,4.7497,5.7141,5.7021,5.7021,5.7021,5.7021,5.7021,5.7021,5.7021,5.7021,5.7021,5.678,5.5866,5.5385,5.5342,5.4757,5.4645,5.5041,5.5411,5.5852,5.612,5.5999,5.5926,5.6072,5.6146,5.6219,5.6168,5.6018,5.5792,5.5415,5.5239,5.4988,5.4561,5.4662,5.4612,5.4587,5.4988,5.4913,5.4687,5.5013,5.4913,5.4436,5.4336,5.4059,5.3557,5.3507,5.3306,5.298,5.2861,5.2861,5.2861,5.2861,5.2861,5.2861,5.2861,5.2861,5.2861,5.2861,5.2861,5.2861,5.2861,5.2861,5.2861,5.2861,5.2861,5.2861,5.2861,5.2861,5.2861,5.2861,5.2861,5.2861,5.2861,5.2861,5.2861,5.2861,5.2861,5.2861,5.2861,5.2861,5.2861,5.2861,5.2861,5.2861,5.2861,5.2861,5.2861,5.2861,5.2861,5.2703,5.2051,5.1272,5.0946,5.0444,4.9851,4.9396,4.9202,4.9072,4.8942,4.8641,4.8248,4.7894,4.763,4.7563,4.7497,4.7497,4.7497,4.7497,4.7497,4.7497,4.7497,4.7497,4.7497,4.7497,4.7497,4.7497,5.7021,5.7021,5.7021,5.7021,5.7021,5.7021,5.7021,5.7021,5.7021,5.7021,5.678,5.6046,5.5641,5.5597,5.4983,5.4892,5.5263,5.5485,5.5779,5.6146,5.6219,5.6219,5.6219,5.6219,5.6219,5.6219,5.6219,5.6043,5.5792,5.5717,5.5541,5.5365,5.5265,5.5239,5.5315,5.5516,5.5591,5.5365,5.5566,5.5465,5.4963,5.4913,5.4612,5.4185,5.4059,5.3808,5.3331,5.3055,5.2861,5.2861,5.2861,5.2861,5.2861,5.2861,5.2861,5.2861,5.2861,5.2861,5.2861,5.2861,5.2861,5.2861,5.2861,5.2861,5.2861,5.2861,5.2861,5.2861,5.2861,5.2861,5.2861,5.2861,5.2861,5.2861,5.2861,5.2861,5.2861,5.2861,5.2861,5.2861,5.2861,5.2861,5.2861,5.2861,5.2861,5.2861,5.2861,5.2861,5.2735,5.1925,5.1247,5.0996,5.0469,4.9841,4.9525,4.9396,4.9332,4.9202,4.8942,4.8641,4.8223,4.7828,4.7563,4.7497,4.7497,4.7497,4.7497,4.7497,4.7497,4.7497,4.7497,4.7497,4.7497,4.7497,4.7497,5.7021,5.7021,5.7021,5.7021,5.7021,5.7021,5.7021,5.7021,5.7021,5.6973,5.6842,5.6256,5.5925,5.5905,5.5259,5.5189,5.5558,5.5558,5.5852,5.6072,5.6219,5.6219,5.6219,5.6219,5.6219,5.6219,5.6219,5.6194,5.6118,5.6143,5.6194,5.6043,5.6093,5.6168,5.6018,5.6143,5.6194,5.6093,5.6068,5.5917,5.5541,5.544,5.5189,5.4712,5.4486,5.426,5.3808,5.3432,5.3155,5.303,5.2955,5.2861,5.2861,5.2861,5.2861,5.2861,5.2861,5.2861,5.2861,5.2861,5.2861,5.2861,5.2861,5.2861,5.2861,5.2861,5.2861,5.2861,5.2861,5.2861,5.2861,5.2861,5.2861,5.2861,5.2861,5.2861,5.2861,5.2861,5.2861,5.2861,5.2861,5.2861,5.2861,5.2861,5.2861,5.2861,5.2861,5.2861,5.2653,5.1925,5.1448,5.1222,5.0519,4.969,4.959,4.959,4.9525,4.9461,4.9202,4.8812,4.842,4.8026,4.7696,4.7563,4.7497,4.7497,4.7497,4.7497,4.7497,4.7497,4.7497,4.7497,4.7497,4.7497,4.7497,5.7021,5.7021,5.7021,5.7021,5.7021,5.7021,5.7021,5.7021,5.7021,5.6963,5.6716,5.6241,5.5985,5.5849,5.5385,5.5189,5.5632,5.5632,5.5852,5.6146,5.6219,5.6219,5.6219,5.6219,5.6219,5.6219,5.6219,5.6219,5.6219,5.6219,5.6219,5.6219,5.6219,5.6219,5.6219,5.6219,5.6219,5.6219,5.6219,5.6143,5.6043,5.5968,5.5742,5.5239,5.4813,5.4536,5.4411,5.4285,5.4009,5.3582,5.3181,5.298,5.2861,5.2861,5.2861,5.2861,5.2861,5.2861,5.2861,5.2861,5.2861,5.2861,5.2861,5.2861,5.2861,5.2861,5.2861,5.2861,5.2861,5.2861,5.2861,5.2861,5.2861,5.2861,5.2861,5.2861,5.2861,5.2861,5.2861,5.2861,5.2861,5.2861,5.2861,5.2861,5.2861,5.2861,5.2861,5.2861,5.2452,5.1875,5.1473,5.1147,5.0393,4.9615,4.959,4.959,4.959,4.959,4.9332,4.9137,4.8682,4.8355,4.8026,4.7762,4.7497,4.7497,4.7497,4.7497,4.7497,4.7497,4.7497,4.7497,4.7497,4.7497,4.7497,5.666,5.6684,5.6925,5.7021,5.7021,5.7021,5.7021,5.7021,5.7259,5.7103,5.6804,5.6577,5.6344,5.6028,5.5757,5.5705,5.5852,5.5926,5.5999,5.6219,5.6219,5.6219,5.6219,5.6219,5.6219,5.6219,5.6219,5.6219,5.6219,5.6219,5.6219,5.6219,5.6219,5.6219,5.6219,5.6219,5.6219,5.6219,5.6219,5.6219,5.6219,5.6194,5.6143,5.5742,5.5265,5.4938,5.4938,5.4662,5.4411,5.4059,5.3607,5.3155,5.2955,5.2861,5.2861,5.2861,5.2861,5.2861,5.2861,5.2861,5.2861,5.2861,5.2861,5.2861,5.2861,5.2861,5.2861,5.2861,5.2861,5.2861,5.2861,5.2861,5.2861,5.2861,5.2861,5.2861,5.2861,5.2861,5.2861,5.2861,5.2861,5.2861,5.2861,5.2861,5.2861,5.2861,5.2929,5.2879,5.2327,5.1749,5.1222,5.077,5.0092,4.964,4.9615,4.959,4.959,4.959,4.9525,4.9267,4.9007,4.8682,4.8355,4.8092,4.7696,4.7563,4.7563,4.7563,4.7497,4.7497,4.7497,4.7497,4.7497,4.7497,4.7497,5.6227,5.6275,5.6804,5.7021,5.71,5.7021,5.71,5.7259,5.74,5.7169,5.6916,5.7067,5.6675,5.6427,5.6224,5.6219,5.6219,5.6219,5.6219,5.6219,5.6219,5.6219,5.6219,5.6219,5.6219,5.6219,5.6219,5.6219,5.6219,5.6219,5.6219,5.6219,5.6219,5.6219,5.6219,5.6219,5.6219,5.6219,5.6219,5.6219,5.6219,5.6219,5.6194,5.6068,5.5792,5.5516,5.544,5.5164,5.4813,5.4733,5.4235,5.3683,5.3181,5.2955,5.2861,5.2861,5.2861,5.2861,5.2861,5.2861,5.2861,5.2861,5.2861,5.2861,5.2861,5.2861,5.2861,5.2861,5.2861,5.2861,5.2861,5.2861,5.2861,5.2861,5.2861,5.2861,5.2861,5.2861,5.2861,5.2861,5.2861,5.2861,5.2861,5.2861,5.2861,5.2861,5.2929,5.2729,5.2151,5.1624,5.1122,5.0594,4.9992,4.964,4.9615,4.959,4.959,4.959,4.959,4.9461,4.9267,4.9137,4.8812,4.8289,4.805,4.7828,4.7696,4.7563,4.7563,4.7497,4.7497,4.7497,4.7497,4.7497,4.7497,5.6227,5.6275,5.6804,5.718,5.7394,5.718,5.7369,5.7898,5.7223,5.7046,5.7067,5.6749,5.6477,5.6298,5.6221,5.6219,5.6219,5.6219,5.6219,5.6219,5.6219,5.6219,5.6219,5.6219,5.6219,5.6219,5.6219,5.6219,5.6219,5.6219,5.6219,5.6219,5.6219,5.6219,5.6219,5.6219,5.6219,5.6219,5.6219,5.6219,5.6219,5.6219,5.6219,5.6194,5.6043,5.6018,5.6018,5.5942,5.5742,5.5315,5.5164,5.4536,5.3783,5.3231,5.298,5.2861,5.2861,5.2861,5.2861,5.2861,5.2861,5.2861,5.2861,5.2861,5.2861,5.2861,5.2861,5.2861,5.2861,5.2861,5.2861,5.2861,5.2861,5.2861,5.2861,5.2861,5.2861,5.2861,5.2861,5.2861,5.2861,5.2861,5.2861,5.2861,5.2861,5.2861,5.2861,5.2578,5.2,5.1523,5.1046,5.0519,4.9941,4.9741,4.959,4.959,4.959,4.959,4.959,4.959,4.9461,4.9525,4.9267,4.8747,4.8355,4.8092,4.7894,4.7696,4.7563,4.7497,4.7497,4.7497,4.7497,4.7497,4.7497,5.5818,5.589,5.6897,5.7248,5.7188,5.7218,5.7306,5.7348,5.7155,5.689,5.6799,5.6676,5.6499,5.6246,5.6219,5.6219,5.6219,5.6219,5.6219,5.6219,5.6219,5.6219,5.6219,5.6219,5.6219,5.6219,5.6219,5.6219,5.6219,5.6219,5.6219,5.6219,5.6219,5.6219,5.6219,5.6219,5.6219,5.6219,5.6219,5.6219,5.6219,5.6219,5.6219,5.6219,5.6219,5.6219,5.6219,5.6219,5.6093,5.5817,5.5541,5.5114,5.4511,5.3833,5.3206,5.3005,5.2861,5.2861,5.2861,5.2861,5.2861,5.2861,5.2861,5.2861,5.2861,5.2861,5.2861,5.2861,5.2861,5.2861,5.2861,5.2861,5.2861,5.2861,5.2861,5.2861,5.2861,5.2861,5.2861,5.2861,5.2861,5.2861,5.2861,5.2861,5.2861,5.2861,5.2861,5.2452,5.185,5.1373,5.0921,5.0293,4.9791,4.9715,4.959,4.959,4.959,4.959,4.959,4.959,4.959,4.959,4.9525,4.9267,4.8877,4.8486,4.8092,4.7828,4.7696,4.7563,4.7563,4.7497,4.7497,4.7497,4.7497,5.5487,5.5636,5.7036,5.7418,5.7135,5.732,5.7257,5.6941,5.6996,5.6874,5.6626,5.6674,5.6522,5.6294,5.6219,5.6219,5.6219,5.6219,5.6219,5.6219,5.6219,5.6219,5.6219,5.6219,5.6219,5.6219,5.6219,5.6219,5.6219,5.6219,5.6219,5.6219,5.6219,5.6219,5.6219,5.6219,5.6219,5.6219,5.6219,5.6219,5.6219,5.6219,5.6219,5.6219,5.6219,5.6219,5.6219,5.6219,5.6219,5.6043,5.5817,5.5491,5.5265,5.4536,5.3758,5.3206,5.3005,5.2861,5.2861,5.2861,5.2861,5.2861,5.2861,5.2861,5.2861,5.2861,5.2861,5.2861,5.2861,5.2861,5.2861,5.2861,5.2861,5.2861,5.2861,5.2861,5.2861,5.2861,5.2861,5.2861,5.2861,5.2861,5.2861,5.2861,5.2861,5.2779,5.2779,5.2201,5.1624,5.1197,5.0695,5.0042,4.964,4.964,4.959,4.959,4.959,4.959,4.959,4.959,4.959,4.959,4.9525,4.9461,4.9332,4.8942,4.8486,4.8092,4.796,4.7828,4.7696,4.7563,4.7497,4.7497,4.7497,5.5949,5.6123,5.7193,5.7732,5.7784,5.7555,5.7514,5.7575,5.68,5.6676,5.6799,5.6472,5.6319,5.6219,5.6219,5.6219,5.6219,5.6219,5.6219,5.6219,5.6219,5.6219,5.6219,5.6219,5.6219,5.6219,5.6219,5.6219,5.6219,5.6219,5.6219,5.6219,5.6219,5.6219,5.6219,5.6219,5.6219,5.6219,5.6219,5.6219,5.6219,5.6219,5.6219,5.6219,5.6219,5.6219,5.6219,5.6219,5.6219,5.6194,5.6143,5.5867,5.5465,5.5315,5.4587,5.3833,5.3231,5.2861,5.2886,5.2861,5.2861,5.2861,5.2861,5.2861,5.2861,5.2861,5.2861,5.2861,5.2861,5.2861,5.2861,5.2861,5.2861,5.2861,5.2861,5.2861,5.2861,5.2861,5.2861,5.2861,5.2861,5.2861,5.2861,5.2861,5.2836,5.2754,5.2503,5.1975,5.1373,5.0896,5.0645,5.0067,4.9866,4.9866,5.0092,5.0017,4.9841,4.9791,4.9715,4.969,4.959,4.959,4.959,4.9525,4.9461,4.9396,4.9007,4.8616,4.8355,4.8092,4.7894,4.7696,4.7563,4.7497,4.7563,5.6391,5.6067,5.7376,5.7558,5.7146,5.7148,5.7075,5.6898,5.6474,5.6423,5.6472,5.6344,5.6219,5.6219,5.6219,5.6219,5.6219,5.6219,5.6219,5.6219,5.6219,5.6219,5.6219,5.6219,5.6219,5.6219,5.6219,5.6219,5.6219,5.6219,5.6219,5.6219,5.6219,5.6219,5.6219,5.6219,5.6219,5.6219,5.6219,5.6219,5.6219,5.6219,5.6219,5.6219,5.6219,5.6219,5.6219,5.6219,5.6219,5.6219,5.6219,5.6118,5.5817,5.5566,5.5089,5.4787,5.416,5.3607,5.3055,5.2911,5.2886,5.2861,5.2861,5.2861,5.2861,5.2861,5.2861,5.2861,5.2861,5.2861,5.2861,5.2861,5.2861,5.2861,5.2861,5.2861,5.2861,5.2861,5.2861,5.2861,5.2861,5.2861,5.2861,5.2861,5.2861,5.2829,5.2603,5.2151,5.1322,5.0469,5.0318,5.0243,5.0193,5.0268,5.0569,5.072,5.0444,5.0318,5.0142,5.0017,4.9665,4.959,4.959,4.959,4.9525,4.9461,4.9332,4.9072,4.8747,4.842,4.8182,4.805,4.796,4.7828,4.7894,5.6675,5.6078,5.7519,5.7547,5.6626,5.6874,5.6672,5.6244,5.6244,5.6219,5.6219,5.6219,5.6219,5.6219,5.6219,5.6219,5.6219,5.6219,5.6219,5.6219,5.6219,5.6219,5.6219,5.6219,5.6219,5.6219,5.6219,5.6219,5.6219,5.6219,5.6219,5.6219,5.6219,5.6219,5.6219,5.6219,5.6219,5.6219,5.6219,5.6219,5.6219,5.6219,5.6219,5.6219,5.6219,5.6219,5.6219,5.6219,5.6219,5.6219,5.6219,5.6194,5.6093,5.5842,5.5541,5.5265,5.4838,5.4336,5.3683,5.3331,5.308,5.298,5.2861,5.2861,5.2861,5.2861,5.2861,5.2861,5.2861,5.2861,5.2861,5.2861,5.2861,5.2861,5.2861,5.2861,5.2861,5.2861,5.2861,5.2861,5.2861,5.2861,5.2861,5.2861,5.2836,5.2904,5.2628,5.2251,5.1473,5.0494,5.0494,5.0619,5.067,5.0745,5.0946,5.1122,5.0921,5.082,5.0645,5.0343,5.0017,4.9715,4.959,4.959,4.959,4.9525,4.9461,4.9267,4.9137,4.8812,4.8551,4.851,4.8379,4.8313,4.8206,5.6697,5.6248,5.7573,5.7648,5.6923,5.6948,5.6622,5.6219,5.6219,5.6219,5.6219,5.6219,5.6219,5.6219,5.6219,5.6219,5.6219,5.6219,5.6219,5.6219,5.6219,5.6219,5.6219,5.6219,5.6219,5.6219,5.6219,5.6219,5.6219,5.6219,5.6219,5.6219,5.6219,5.6219,5.6219,5.6219,5.6219,5.6219,5.6219,5.6219,5.6219,5.6219,5.6219,5.6219,5.6219,5.6219,5.6219,5.6219,5.6219,5.6219,5.6219,5.6219,5.6168,5.6093,5.5842,5.5566,5.544,5.4963,5.4436,5.3884,5.3432,5.3105,5.2911,5.3005,5.2929,5.2861,5.2861,5.2861,5.2861,5.2861,5.2861,5.2861,5.2861,5.2861,5.2861,5.2861,5.2861,5.2861,5.2861,5.2861,5.2861,5.2861,5.2861,5.2861,5.2861,5.2836,5.2503,5.2126,5.18,5.1046,5.1096,5.1172,5.1222,5.1247,5.1297,5.1373,5.1498,5.1322,5.1071,5.072,5.0343,5.0067,4.9791,4.959,4.959,4.959,4.959,4.9461,4.9332,4.9137,4.9032,4.8886,4.892,4.8928,4.8797,5.6721,5.6319,5.7075,5.7074,5.652,5.652,5.6394,5.6244,5.6219,5.6219,5.6219,5.6219,5.6219,5.6219,5.6219,5.6219,5.6219,5.6219,5.6219,5.6219,5.6219,5.6219,5.6219,5.6219,5.6219,5.6219,5.6219,5.6219,5.6219,5.6219,5.6219,5.6219,5.6219,5.6219,5.6219,5.6219,5.6219,5.6219,5.6219,5.6219,5.6219,5.6219,5.6219,5.6219,5.6219,5.6219,5.6219,5.6219,5.6219,5.6219,5.6219,5.6219,5.6219,5.6219,5.6093,5.5965,5.5915,5.5566,5.516,5.4607,5.4009,5.3557,5.3381,5.3281,5.3055,5.2955,5.2861,5.2861,5.2929,5.2998,5.2861,5.2861,5.2861,5.2861,5.2861,5.2861,5.2861,5.2861,5.2861,5.2861,5.2861,5.2861,5.2861,5.2861,5.2861,5.281,5.2427,5.2026,5.1825,5.1649,5.1674,5.1749,5.1774,5.195,5.2026,5.2076,5.2126,5.185,5.1523,5.1096,5.0695,5.0393,5.0117,4.9866,4.959,4.959,4.959,4.959,4.9525,4.9332,4.9277,4.9156,4.928,4.9454,4.9628,5.657,5.6269,5.662,5.657,5.6244,5.6219,5.6219,5.6219,5.6219,5.6219,5.6219,5.6219,5.6219,5.6219,5.6219,5.6219,5.6219,5.6219,5.6219,5.6219,5.6219,5.6219,5.6219,5.6219,5.6219,5.6219,5.6219,5.6219,5.6219,5.6219,5.6219,5.6219,5.6219,5.6219,5.6219,5.6219,5.6219,5.6219,5.6219,5.6219,5.6219,5.6219,5.6219,5.6219,5.6219,5.6219,5.6219,5.6219,5.6219,5.6219,5.6219,5.6219,5.6219,5.6219,5.634,5.6365,5.6314,5.6065,5.5879,5.5081,5.4507,5.4034,5.3959,5.3683,5.3331,5.3155,5.3181,5.2929,5.3067,5.3136,5.3067,5.3136,5.3067,5.3067,5.2929,5.2861,5.2861,5.2861,5.2861,5.2861,5.2929,5.2929,5.2929,5.2929,5.2929,5.2929,5.2754,5.2477,5.2402,5.2251,5.2176,5.2251,5.2352,5.2578,5.2804,5.2628,5.2477,5.2352,5.2,5.1498,5.1096,5.0745,5.0268,4.9791,4.959,4.959,4.959,4.959,4.959,4.959,4.9571,4.9666,4.9866,5.0156,5.0506,5.6244,5.6219,5.6244,5.6244,5.6219,5.6219,5.6219,5.6219,5.6219,5.6219,5.6219,5.6219,5.6219,5.6219,5.6219,5.6219,5.6219,5.6219,5.6219,5.6219,5.6219,5.6219,5.6219,5.6219,5.6219,5.6219,5.6219,5.6219,5.6219,5.6219,5.6219,5.6438,5.6485,5.6438,5.6292,5.6219,5.6219,5.6219,5.6219,5.6219,5.6219,5.6219,5.6219,5.6219,5.6219,5.6219,5.6412,5.6412,5.6412,5.6412,5.6412,5.6365,5.6219,5.6219,5.6412,5.6921,5.6558,5.6605,5.701,5.5568,5.4879,5.4658,5.4536,5.4235,5.3808,5.3607,5.3381,5.3005,5.3384,5.3452,5.3452,5.3452,5.3452,5.3316,5.3179,5.3316,5.3384,5.3136,5.3204,5.3384,5.3179,5.2929,5.2929,5.2998,5.2998,5.2929,5.2929,5.2879,5.2779,5.2703,5.2578,5.2578,5.2678,5.2754,5.2879,5.2904,5.2829,5.2729,5.2477,5.1975,5.1423,5.0971,5.0444,4.9816,4.959,4.959,4.959,4.959,4.9665,4.9791,5.0117,5.0278,5.0503,5.0804,5.1206,5.6219,5.6219,5.6219,5.6219,5.6219,5.6219,5.6219,5.6219,5.6219,5.6219,5.6219,5.6219,5.6219,5.6219,5.6219,5.6219,5.6219,5.6219,5.6219,5.6219,5.6219,5.6219,5.6219,5.6219,5.6219,5.6219,5.6219,5.6219,5.6219,5.6292,5.6631,5.6848,5.721,5.7138,5.651,5.6219,5.6219,5.6219,5.6219,5.6219,5.6219,5.6219,5.6292,5.6292,5.6292,5.6412,5.6776,5.6776,5.6776,5.6776,5.6776,5.6631,5.6365,5.6219,5.634,5.6776,5.6631,5.7282,5.7615,5.6964,5.5994,5.5551,5.5064,5.4687,5.3909,5.3733,5.3406,5.3287,5.3819,5.3682,5.3204,5.4106,5.4309,5.3971,5.3971,5.4283,5.435,5.3903,5.3793,5.4106,5.4106,5.4039,5.3971,5.37,5.3632,5.3521,5.3521,5.3136,5.2991,5.2854,5.2804,5.2804,5.2785,5.281,5.2929,5.3067,5.3136,5.2966,5.2797,5.2503,5.1925,5.1272,5.0745,5.0193,4.9866,4.959,4.9615,4.973,4.9866,5.0067,5.0534,5.0987,5.1297,5.1624,5.1975,5.6219,5.6219,5.6219,5.6219,5.6219,5.6219,5.6219,5.6219,5.6219,5.6219,5.6219,5.6219,5.6219,5.6219,5.6219,5.6219,5.6219,5.6219,5.6219,5.6219,5.6219,5.6219,5.6219,5.6219,5.6219,5.6219,5.6219,5.6292,5.6631,5.6631,5.7065,5.7713,5.8212,5.7856,5.721,5.6921,5.651,5.6438,5.6438,5.6631,5.6631,5.6656,5.6656,5.6558,5.6412,5.6412,5.6848,5.7138,5.721,5.721,5.7138,5.6993,5.6485,5.6292,5.6631,5.7184,5.8089,5.847,5.8329,5.8044,5.7189,5.6724,5.6099,5.5358,5.4719,5.4702,5.4176,5.4072,5.4354,5.4132,5.3971,5.4953,5.502,5.4779,5.4686,5.5087,5.502,5.4578,5.4511,5.482,5.4953,5.502,5.5087,5.4686,5.4418,5.4283,5.4174,5.3768,5.3384,5.3316,5.3316,5.3316,5.3384,5.3589,5.3521,5.3384,5.3384,5.3316,5.3103,5.2909,5.2176,5.1473,5.1021,5.0519,5.0082,4.9705,4.9794,4.9895,5.0442,5.0937,5.1301,5.174,5.2093,5.2345,5.2682,5.6219,5.6219,5.6219,5.6219,5.6219,5.6143,5.6168,5.6219,5.6219,5.6219,5.6219,5.6219,5.6219,5.6219,5.6219,5.6219,5.6219,5.6219,5.6219,5.6219,5.6219,5.6219,5.6219,5.6219,5.6219,5.6219,5.6365,5.6703,5.721,5.7544,5.7973,5.8426,5.8779,5.8638,5.8284,5.7856,5.7282,5.7065,5.7138,5.7354,5.7354,5.7472,5.7328,5.7112,5.6776,5.6703,5.704,5.74,5.7328,5.7256,5.7256,5.6993,5.6631,5.634,5.7687,5.9008,6.0123,5.9777,5.9175,5.8991,5.8824,5.8384,5.7179,5.6683,5.6289,5.5905,5.5339,5.5167,5.536,5.5218,5.526,5.5551,5.5842,5.5617,5.5419,5.5485,5.5485,5.5353,5.5393,5.5525,5.5591,5.5657,5.5986,5.5723,5.5499,5.5393,5.5326,5.5127,5.4753,5.4039,5.4039,5.4039,5.4241,5.4443,5.4376,5.4106,5.3971,5.3971,5.3632,5.3343,5.254,5.2085,5.1895,5.1402,5.0341,5.0102,5.0742,5.1178,5.1458,5.1893,5.2682,5.2362,5.2641,5.3097,5.33,5.6219,5.6219,5.6219,5.6219,5.6143,5.5792,5.5842,5.6194,5.6219,5.6219,5.6219,5.6219,5.6143,5.6219,5.6219,5.6194,5.6194,5.6219,5.6219,5.6168,5.6043,5.6143,5.6194,5.6241,5.6194,5.6438,5.6703,5.721,5.7615,5.8186,5.8965,5.9245,5.9761,5.9761,5.9412,5.9035,5.8497,5.8115,5.8186,5.8186,5.84,5.8656,5.8302,5.7759,5.74,5.7544,5.816,5.863,5.8771,5.9262,5.9498,5.9219,5.7927,5.8258,5.9359,6.0165,6.092,6.1193,6.0838,6.0357,6.0219,6.0219,5.9035,5.8157,5.7704,5.7292,5.6605,5.6554,5.6346,5.6092,5.6209,5.6471,5.6731,5.6731,5.6639,5.6834,5.6834,5.6704,5.6769,5.7092,5.7092,5.7028,5.7221,5.7,5.6807,5.6677,5.6547,5.6482,5.609,5.5459,5.5153,5.5127,5.5353,5.5657,5.522,5.4887,5.4753,5.4686,5.4459,5.4366,5.4148,5.3775,5.3191,5.2569,5.1935,5.1981,5.2387,5.2754,5.3098,5.3763,5.4366,5.3745,5.3343,5.3885,5.4081,5.5566,5.5566,5.5566,5.5566,5.5491,5.5214,5.5265,5.5541,5.5566,5.5566,5.5591,5.5767,5.5892,5.5867,5.5867,5.5842,5.5842,5.5541,5.5465,5.5465,5.5688,5.5691,5.5839,5.6255,5.6501,5.6819,5.7354,5.7999,5.8541,5.9568,6.0495,6.0564,6.107,6.066,6.0177,5.9734,5.9734,5.9595,5.9568,5.9429,5.9638,5.9958,5.9472,5.8868,5.8586,5.9052,5.9542,5.9862,6.0551,6.0715,6.0674,6.033,5.9568,6.0234,6.0551,6.1369,6.2069,6.2298,6.2125,6.1789,6.1923,6.1789,6.0975,6.0784,5.986,5.9197,5.855,5.8103,5.7466,5.7082,5.7275,5.7505,5.7697,5.7925,5.8206,5.8487,5.8333,5.8143,5.8396,5.8836,5.8836,5.8711,5.8557,5.8368,5.8179,5.8115,5.8115,5.8179,5.777,5.7065,5.6742,5.6612,5.6769,5.6963,5.6444,5.6052,5.6183,5.6156,5.5959,5.5841,5.5722,5.5324,5.4751,5.432,5.3913,5.4083,5.4208,5.4557,5.4951,5.5599,5.6067,5.582,5.5248,5.5022,5.5127,5.4587,5.4612,5.4561,5.4683,5.4486,5.4511,5.4486,5.4436,5.4436,5.4582,5.4687,5.5114,5.5315,5.534,5.534,5.5315,5.5239,5.4988,5.4863,5.4728,5.5259,5.5462,5.5903,5.6315,5.7228,5.7688,5.8392,5.9269,6.0123,6.1043,6.1721,6.1856,6.1856,6.1614,6.1138,6.0632,6.077,6.1315,6.122,6.1084,6.1057,6.1328,6.1531,6.0784,6.051,6.0483,6.0345,6.0756,6.1504,6.1097,6.0988,6.1057,6.1464,6.1908,6.2175,6.2508,6.3225,6.3225,6.3122,6.2792,6.2858,6.2924,6.2886,6.2735,6.1824,6.0425,5.9583,5.9459,5.8925,5.8471,5.8522,5.8333,5.8396,5.8774,5.9114,5.9301,5.9177,5.9149,5.9426,5.9735,5.9735,5.9673,5.9735,5.9459,5.9335,5.9426,5.955,5.9673,5.9273,5.8557,5.8214,5.7961,5.7988,5.8052,5.7925,5.767,5.7834,5.777,5.7451,5.7322,5.7204,5.6741,5.6232,5.601,5.5874,5.5895,5.6101,5.6314,5.6589,5.7126,5.7547,5.7823,5.7515,5.6936,5.6287,5.4561,5.4561,5.4561,5.431,5.3934,5.3909,5.3683,5.3331,5.3331,5.3808,5.4486,5.4687,5.4762,5.4762,5.4762,5.4762,5.4687,5.4628,5.4632,5.5,5.5439,5.583,5.6505,5.7383,5.8316,5.9141,5.9955,6.0769,6.1773,6.2392,6.2592,6.2592,6.2592,6.242,6.222,6.1789,6.2125,6.2592,6.2792,6.2564,6.2498,6.2763,6.2896,6.2002,6.1436,6.1773,6.184,6.2175,6.2802,6.2962,6.3094,6.316,6.316,6.3488,6.3553,6.3553,6.4102,6.4102,6.3908,6.3647,6.3647,6.3451,6.3385,6.3516,6.2858,6.1407,6.0634,6.0646,6.0448,5.9917,5.9611,5.9301,5.9177,5.9611,5.992,5.992,5.992,6.0132,6.0377,6.0438,6.0499,6.056,6.0621,6.0621,6.0499,6.056,6.0681,6.0742,6.0377,5.9858,5.9459,5.9211,5.8961,5.8961,5.9024,5.9086,5.9149,5.9086,5.8746,5.8683,5.862,5.8292,5.7908,5.7907,5.7837,5.7889,5.7851,5.7902,5.8211,5.8671,5.8992,5.9217,5.9521,5.9183,5.8151,5.3833,5.3833,5.3833,5.3658,5.3381,5.3356,5.3181,5.2955,5.2861,5.3256,5.3833,5.4059,5.4185,5.4185,5.4185,5.4255,5.4275,5.4303,5.429,5.473,5.5793,5.6295,5.7183,5.825,5.8895,5.9741,6.0833,6.1911,6.3141,6.3319,6.3319,6.3319,6.3319,6.3188,6.3018,6.2952,6.315,6.3319,6.3777,6.3843,6.3675,6.3973,6.3843,6.2934,6.3,6.3197,6.3263,6.3553,6.3973,6.4232,6.4296,6.3973,6.3973,6.4167,6.4361,6.4425,6.4647,6.4775,6.4518,6.4361,6.4296,6.4131,6.4131,6.4325,6.4095,6.2758,6.2045,6.1896,6.0603,5.9977,6.0255,6.0132,6.0132,6.0438,6.056,6.0621,6.0621,6.0742,6.0802,6.0802,6.0863,6.0923,6.0923,6.0923,6.0863,6.0863,6.1133,6.1193,6.0952,6.0802,6.0499,6.0287,5.992,5.9981,6.0165,6.0226,6.0165,6.0104,5.992,5.9981,5.9891,5.9786,5.9622,5.9483,5.9486,5.9661,5.9626,5.9415,5.9679,6.0087,6.0384,6.0621,6.0863,6.0863,5.9953,5.2911,5.2861,5.2886,5.2861,5.2861,5.2861,5.2861,5.2861,5.2861,5.2861,5.308,5.3596,5.3652,5.3607,5.3747,5.3747,5.3992,5.4543,5.4422,5.4883,5.6053,5.7004,5.7874,5.8659,5.9625,6.0625,6.1695,6.2685,6.3744,6.3923,6.4037,6.4037,6.3908,6.3777,6.3348,6.3282,6.3545,6.3908,6.426,6.4454,6.4711,6.4996,6.4518,6.4454,6.4518,6.4583,6.4454,6.4518,6.4932,6.4932,6.4868,6.4583,6.4454,6.4583,6.4775,6.4903,6.4903,6.4996,6.4932,6.4839,6.4932,6.4932,6.4996,6.488,6.4613,6.4033,6.3308,6.2427,6.1102,6.0495,6.071,6.0831,6.0952,6.0952,6.1073,6.1133,6.1133,6.1193,6.1133,6.1133,6.1193,6.1193,6.1193,6.1193,6.1193,6.1193,6.1193,6.1193,6.1133,6.1073,6.0863,6.0802,6.0681,6.0863,6.1073,6.0952,6.0802,6.0802,6.0621,6.0984,6.1075,6.0629,6.054,6.0808,6.0839,6.0692,6.0781,6.06,6.1015,6.1073,6.1073,6.1013,6.1013,6.1044,6.1133,5.2861,5.2861,5.2861,5.2836,5.2836,5.2836,5.2861,5.2861,5.2929,5.2861,5.3161,5.3597,5.3673,5.3149,5.3742,5.404,5.4363,5.5046,5.5525,5.592,5.7451,5.8262,5.8941,5.9702,6.0889,6.1762,6.2532,6.3538,6.3971,6.4416,6.4775,6.4711,6.4711,6.4647,6.4647,6.4518,6.4454,6.4647,6.4647,6.4839,6.4868,6.4996,6.4996,6.4903,6.4903,6.4903,6.4839,6.4903,6.4996,6.4996,6.4996,6.4868,6.4868,6.4868,6.4996,6.4996,6.4996,6.4996,6.4996,6.4996,6.4996,6.4996,6.4996,6.4967,6.459,6.3922,6.3312,6.2906,6.1816,6.1094,6.1131,6.1073,6.1133,6.1133,6.1193,6.1193,6.1193,6.1193,6.1193,6.1193,6.1193,6.1193,6.1193,6.1193,6.1193,6.1193,6.1193,6.1193,6.1193,6.1193,6.1193,6.1193,6.1193,6.1193,6.1193,6.1133,6.1073,6.1133,6.1193,6.1193,6.1193,6.1193,6.1193,6.1193,6.1193,6.1046,6.1164,6.1193,6.1193,6.1133,6.1193,6.1193,6.1193,6.1193,6.1193]}]]